[[{"header":{"parameterUnit":"m.s-1","parameterCategory":1,"la1":30.6,"la2":29.2853,"lo1":-89.7004,"lo2":-87.6739,"dy":0.0162,"dx":0.0183,"nx":112,"ny":82,"refTime":"2023-04-25T18:00:00:Z","depth":0,"parameterNumber":2,"parameterNumberName":"U-component_of_WINDS"},"data":[0.0,0.0,0.0,0.0,0.0,0.0,0.0,0.0,0.0,0.0,0.0,0.0,0.0,0.0,0.0,0.0,0.0,0.0,0.0,0.0,0.0,0.0,0.0,0.0,0.0,0.0,0.0,0.0,0.0,0.0,0.0,0.0,0.0,0.0,0.0,0.0,0.0,0.0,0.0,0.0,0.0,0.0,0.0,0.0,0.0,0.0,0.0,0.0,0.0,0.0,0.0,0.0,0.0,0.0,0.0,0.0,0.0,0.0,0.0,0.0,0.0,0.0,0.0,0.0,0.0,0.0,0.0,0.0,0.0,0.0,0.0,0.0,0.0,0.0,0.0,0.0,0.0,0.0,0.0,0.0,0.0,0.0,0.0,0.0,0.0,0.0,0.0,0.0,0.0,0.0,-3.0554,-3.3329,-4.0373,-4.5603,-4.7488,-4.5131,-3.921,-2.8857,0.0,0.0,0.0,0.0,0.0,0.0,0.0,0.0,0.0,0.0,0.0,0.0,0.0,0.0,0.0,0.0,0.0,0.0,0.0,0.0,0.0,0.0,0.0,0.0,0.0,0.0,0.0,0.0,0.0,0.0,0.0,0.0,0.0,0.0,0.0,0.0,0.0,0.0,0.0,0.0,0.0,0.0,0.0,0.0,0.0,0.0,0.0,0.0,0.0,0.0,0.0,0.0,0.0,0.0,0.0,0.0,0.0,0.0,0.0,0.0,0.0,0.0,0.0,0.0,0.0,0.0,0.0,0.0,0.0,0.0,0.0,0.0,0.0,0.0,0.0,0.0,0.0,0.0,0.0,0.0,0.0,0.0,0.0,0.0,0.0,0.0,0.0,0.0,0.0,0.0,0.0,0.0,0.0,0.0,0.0,0.0,0.0,0.0,0.0,0.0,0.0,0.0,0.0,0.0,-3.1592,-4.4098,-4.6629,-4.7065,-4.6218,-4.4607,-4.0418,-3.2867,0.0,0.0,0.0,0.0,0.0,0.0,0.0,0.0,0.0,0.0,0.0,0.0,0.0,0.0,0.0,0.0,0.0,0.0,0.0,0.0,0.0,0.0,0.0,0.0,0.0,0.0,0.0,0.0,0.0,0.0,0.0,0.0,0.0,0.0,0.0,0.0,0.0,0.0,0.0,0.0,0.0,0.0,0.0,0.0,0.0,0.0,0.0,0.0,0.0,0.0,0.0,0.0,0.0,0.0,0.0,0.0,0.0,0.0,0.0,0.0,0.0,0.0,0.0,0.0,0.0,0.0,0.0,0.0,0.0,0.0,0.0,0.0,0.0,0.0,0.0,0.0,0.0,0.0,0.0,0.0,0.0,0.0,0.0,0.0,0.0,0.0,0.0,0.0,0.0,0.0,0.0,0.0,0.0,0.0,0.0,0.0,0.0,0.0,0.0,0.0,0.0,0.0,0.0,-3.4382,-3.852,-4.6043,-4.6799,-4.6533,-4.5854,-4.3953,-4.0015,-3.3412,-3.1831,0.0,0.0,0.0,0.0,0.0,0.0,0.0,0.0,0.0,0.0,0.0,0.0,0.0,0.0,0.0,0.0,0.0,0.0,0.0,0.0,0.0,0.0,0.0,0.0,0.0,0.0,0.0,0.0,0.0,0.0,0.0,0.0,0.0,0.0,0.0,0.0,0.0,0.0,0.0,0.0,0.0,0.0,0.0,0.0,0.0,0.0,0.0,0.0,0.0,0.0,0.0,0.0,0.0,0.0,0.0,0.0,0.0,0.0,0.0,0.0,0.0,0.0,0.0,0.0,0.0,0.0,0.0,0.0,0.0,0.0,0.0,0.0,0.0,0.0,0.0,0.0,0.0,0.0,0.0,0.0,0.0,0.0,0.0,0.0,0.0,0.0,0.0,0.0,0.0,0.0,0.0,0.0,0.0,0.0,0.0,0.0,0.0,0.0,0.0,0.0,0.0,0.0,-3.9863,-4.3765,-4.552,-4.5752,-4.5715,-4.5549,-4.3845,-4.0094,-3.3743,-3.4153,0.0,0.0,0.0,0.0,0.0,0.0,0.0,0.0,0.0,0.0,0.0,0.0,0.0,0.0,0.0,0.0,0.0,0.0,0.0,0.0,0.0,0.0,0.0,0.0,0.0,0.0,0.0,0.0,0.0,0.0,0.0,0.0,0.0,0.0,0.0,0.0,0.0,0.0,0.0,0.0,0.0,0.0,0.0,0.0,0.0,0.0,0.0,0.0,0.0,0.0,0.0,0.0,0.0,0.0,0.0,0.0,0.0,0.0,0.0,0.0,0.0,0.0,0.0,0.0,0.0,0.0,0.0,0.0,0.0,0.0,0.0,0.0,0.0,0.0,0.0,0.0,0.0,0.0,0.0,0.0,0.0,0.0,0.0,0.0,0.0,0.0,0.0,0.0,0.0,0.0,0.0,0.0,0.0,0.0,0.0,0.0,0.0,0.0,0.0,0.0,0.0,0.0,-3.8492,-4.2714,-4.5163,-4.564,-4.5516,-4.4821,-4.4622,-4.1853,-3.5618,-3.5295,0.0,0.0,0.0,0.0,0.0,0.0,0.0,0.0,0.0,0.0,0.0,0.0,0.0,0.0,0.0,0.0,0.0,0.0,0.0,0.0,0.0,0.0,0.0,0.0,0.0,0.0,0.0,0.0,0.0,0.0,0.0,0.0,0.0,0.0,0.0,0.0,0.0,0.0,0.0,0.0,0.0,0.0,0.0,0.0,0.0,0.0,0.0,0.0,0.0,0.0,0.0,0.0,0.0,0.0,0.0,0.0,0.0,0.0,0.0,0.0,0.0,0.0,0.0,0.0,0.0,0.0,0.0,0.0,0.0,0.0,0.0,0.0,0.0,0.0,0.0,0.0,0.0,0.0,0.0,0.0,0.0,0.0,0.0,0.0,0.0,0.0,0.0,0.0,0.0,0.0,0.0,0.0,0.0,0.0,0.0,0.0,0.0,0.0,0.0,0.0,0.0,0.0,-3.7948,-4.1873,0.0,-4.4863,-4.4643,-4.4688,-4.4411,-4.1688,-3.5765,0.0,0.0,0.0,0.0,0.0,0.0,0.0,0.0,0.0,0.0,0.0,0.0,0.0,0.0,0.0,0.0,0.0,0.0,0.0,0.0,0.0,0.0,0.0,0.0,0.0,0.0,0.0,0.0,0.0,0.0,0.0,0.0,0.0,0.0,0.0,0.0,0.0,0.0,0.0,0.0,0.0,0.0,0.0,0.0,0.0,0.0,0.0,0.0,0.0,0.0,0.0,0.0,0.0,0.0,0.0,0.0,0.0,0.0,0.0,0.0,0.0,0.0,0.0,0.0,0.0,0.0,0.0,0.0,0.0,0.0,0.0,0.0,0.0,0.0,0.0,0.0,0.0,0.0,0.0,0.0,0.0,0.0,0.0,0.0,0.0,0.0,0.0,0.0,0.0,0.0,0.0,0.0,0.0,0.0,0.0,0.0,0.0,0.0,0.0,0.0,0.0,0.0,-3.3616,-3.8014,-4.1964,0.0,-4.4456,-4.439,-4.4504,-4.4164,-4.1531,-3.5719,0.0,0.0,0.0,0.0,0.0,0.0,0.0,0.0,0.0,0.0,0.0,0.0,0.0,0.0,0.0,0.0,0.0,0.0,0.0,0.0,0.0,0.0,0.0,0.0,0.0,0.0,0.0,0.0,0.0,0.0,0.0,0.0,0.0,0.0,0.0,0.0,0.0,0.0,0.0,0.0,0.0,0.0,0.0,0.0,0.0,0.0,0.0,0.0,0.0,0.0,0.0,0.0,0.0,0.0,0.0,0.0,0.0,0.0,0.0,0.0,0.0,0.0,0.0,0.0,0.0,0.0,0.0,0.0,0.0,0.0,0.0,0.0,0.0,0.0,0.0,0.0,0.0,0.0,0.0,0.0,0.0,0.0,0.0,0.0,0.0,0.0,0.0,0.0,0.0,0.0,0.0,0.0,0.0,0.0,0.0,0.0,0.0,0.0,0.0,0.0,0.0,0.0,-3.2705,-3.8659,-4.308,-4.3595,-4.4556,-4.4901,-4.4164,-4.4097,-4.1586,0.0,0.0,0.0,0.0,0.0,0.0,0.0,0.0,0.0,0.0,0.0,0.0,0.0,0.0,0.0,0.0,0.0,0.0,0.0,0.0,0.0,0.0,0.0,0.0,0.0,0.0,0.0,0.0,0.0,0.0,0.0,0.0,0.0,0.0,0.0,0.0,0.0,0.0,0.0,0.0,0.0,0.0,0.0,0.0,0.0,0.0,0.0,0.0,0.0,0.0,0.0,0.0,0.0,0.0,0.0,0.0,0.0,0.0,0.0,0.0,0.0,0.0,0.0,0.0,0.0,0.0,0.0,0.0,0.0,0.0,0.0,0.0,0.0,0.0,0.0,0.0,0.0,0.0,0.0,0.0,0.0,0.0,0.0,0.0,0.0,0.0,0.0,0.0,0.0,0.0,0.0,0.0,0.0,0.0,0.0,0.0,0.0,0.0,0.0,0.0,0.0,0.0,0.0,-3.3144,-3.8939,-4.3295,-4.4006,-4.438,-4.4447,-4.4131,-4.4212,-4.1661,-3.5659,0.0,0.0,0.0,0.0,0.0,0.0,0.0,0.0,0.0,0.0,0.0,0.0,0.0,0.0,0.0,0.0,0.0,0.0,0.0,0.0,0.0,0.0,0.0,0.0,0.0,0.0,0.0,0.0,0.0,0.0,0.0,0.0,0.0,0.0,0.0,0.0,0.0,0.0,0.0,0.0,0.0,0.0,0.0,0.0,0.0,0.0,0.0,0.0,0.0,0.0,0.0,0.0,0.0,0.0,0.0,0.0,0.0,0.0,0.0,0.0,0.0,0.0,0.0,0.0,0.0,0.0,0.0,0.0,0.0,0.0,0.0,0.0,0.0,0.0,0.0,0.0,0.0,0.0,0.0,0.0,0.0,0.0,0.0,0.0,0.0,0.0,0.0,0.0,0.0,0.0,0.0,0.0,0.0,0.0,0.0,0.0,0.0,0.0,0.0,0.0,0.0,0.0,-3.3272,-3.8853,-4.3113,-4.3772,-4.4273,-4.4557,-4.474,-4.5091,-4.3103,-3.7868,0.0,0.0,0.0,0.0,0.0,0.0,0.0,0.0,0.0,0.0,0.0,0.0,0.0,0.0,0.0,0.0,0.0,0.0,0.0,0.0,0.0,0.0,0.0,0.0,0.0,0.0,0.0,0.0,0.0,0.0,0.0,0.0,0.0,0.0,0.0,0.0,0.0,0.0,0.0,0.0,0.0,0.0,0.0,0.0,0.0,0.0,0.0,0.0,0.0,0.0,0.0,0.0,0.0,0.0,0.0,0.0,0.0,0.0,0.0,0.0,0.0,0.0,0.0,0.0,0.0,0.0,0.0,0.0,0.0,0.0,0.0,0.0,0.0,0.0,0.0,0.0,0.0,0.0,0.0,0.0,0.0,0.0,0.0,0.0,0.0,0.0,0.0,0.0,0.0,0.0,0.0,0.0,0.0,0.0,0.0,0.0,0.0,0.0,0.0,0.0,0.0,0.0,-3.335,-3.869,-4.2747,-4.3309,-4.4357,-4.521,-4.5747,-4.6413,-4.5139,-4.1244,0.0,0.0,0.0,0.0,0.0,0.0,0.0,0.0,0.0,0.0,0.0,0.0,0.0,0.0,0.0,0.0,0.0,0.0,0.0,0.0,0.0,0.0,0.0,0.0,0.0,0.0,0.0,0.0,0.0,0.0,0.0,0.0,0.0,0.0,0.0,0.0,0.0,0.0,0.0,0.0,0.0,0.0,0.0,0.0,0.0,0.0,0.0,0.0,0.0,0.0,0.0,0.0,0.0,0.0,0.0,0.0,0.0,0.0,0.0,0.0,-2.4554,0.0,0.0,0.0,0.0,0.0,0.0,0.0,0.0,0.0,0.0,0.0,0.0,0.0,0.0,0.0,0.0,0.0,0.0,0.0,0.0,0.0,0.0,0.0,0.0,0.0,0.0,0.0,0.0,0.0,0.0,0.0,0.0,0.0,0.0,0.0,0.0,0.0,0.0,0.0,0.0,0.0,-3.4334,-3.9634,-4.375,-4.5189,-4.5573,-4.5979,-4.649,-4.6718,-4.5375,-4.1984,-4.1422,0.0,0.0,0.0,0.0,0.0,0.0,0.0,0.0,0.0,0.0,0.0,0.0,0.0,0.0,0.0,0.0,0.0,0.0,0.0,0.0,0.0,0.0,0.0,0.0,0.0,0.0,0.0,0.0,0.0,0.0,0.0,0.0,0.0,0.0,0.0,0.0,0.0,0.0,0.0,0.0,0.0,0.0,0.0,0.0,0.0,0.0,0.0,0.0,0.0,0.0,0.0,0.0,0.0,0.0,0.0,0.0,0.0,0.0,0.0,0.0,-2.6602,0.0,0.0,0.0,0.0,0.0,0.0,0.0,0.0,0.0,0.0,0.0,0.0,0.0,0.0,0.0,0.0,0.0,0.0,0.0,0.0,0.0,0.0,0.0,0.0,0.0,0.0,0.0,0.0,0.0,0.0,0.0,0.0,0.0,0.0,0.0,0.0,0.0,0.0,0.0,0.0,-3.5951,-4.1087,-4.4973,-4.6024,-4.6482,-4.6866,-4.7301,-4.7665,-4.6963,-4.4923,-4.3956,0.0,0.0,0.0,0.0,0.0,0.0,0.0,0.0,0.0,0.0,0.0,0.0,0.0,0.0,0.0,0.0,0.0,0.0,0.0,0.0,0.0,0.0,0.0,0.0,0.0,0.0,0.0,0.0,0.0,0.0,0.0,0.0,0.0,0.0,0.0,0.0,0.0,0.0,0.0,0.0,0.0,0.0,0.0,0.0,0.0,0.0,0.0,0.0,0.0,0.0,0.0,0.0,0.0,-2.8284,-2.9231,-2.9713,-3.0733,-3.1389,-3.1629,-2.9469,-2.9278,-3.0284,-2.7103,0.0,0.0,0.0,0.0,0.0,0.0,0.0,0.0,0.0,0.0,0.0,0.0,0.0,0.0,0.0,0.0,0.0,0.0,0.0,0.0,0.0,0.0,0.0,0.0,-4.0106,-4.2359,-3.9691,0.0,0.0,0.0,0.0,0.0,0.0,0.0,0.0,0.0,0.0,0.0,-3.8112,-4.2889,-4.6301,-4.6616,-4.7307,-4.7901,-4.8219,-4.8714,-4.8748,-4.8139,-4.6229,-4.471,0.0,0.0,0.0,0.0,0.0,0.0,0.0,0.0,0.0,0.0,0.0,0.0,0.0,0.0,0.0,0.0,0.0,0.0,0.0,0.0,0.0,0.0,0.0,0.0,0.0,0.0,0.0,0.0,0.0,0.0,0.0,0.0,-2.5244,-2.4695,0.0,0.0,0.0,0.0,0.0,0.0,0.0,0.0,0.0,0.0,0.0,0.0,0.0,-2.6035,-2.7638,-2.8093,-2.863,-2.9276,-3.1022,-3.301,-3.5108,-3.4606,-3.4741,-3.5278,-3.4366,0.0,-3.1694,-3.0174,0.0,0.0,0.0,0.0,0.0,0.0,0.0,0.0,0.0,0.0,0.0,0.0,0.0,0.0,0.0,0.0,0.0,0.0,0.0,0.0,0.0,0.0,-4.2315,-4.3396,-4.4173,-4.4833,0.0,-4.2491,-3.9688,-3.966,-3.988,0.0,0.0,0.0,0.0,0.0,0.0,0.0,-4.143,-4.5208,-4.7626,-4.8191,-4.8662,-4.9258,-4.9734,-4.9323,-4.8951,-4.8849,-4.8578,-4.7166,-4.435,-4.3945,0.0,0.0,0.0,0.0,0.0,0.0,0.0,0.0,0.0,0.0,0.0,0.0,0.0,0.0,0.0,0.0,0.0,0.0,0.0,0.0,0.0,0.0,0.0,0.0,0.0,0.0,0.0,0.0,0.0,-2.3752,-2.4326,-2.3733,-2.354,-2.3469,0.0,0.0,0.0,0.0,0.0,0.0,0.0,0.0,0.0,-2.6786,-2.7634,-2.8456,-2.9248,-3.0384,-3.1318,-3.2071,-3.3034,-3.4432,-3.6125,-3.5732,-3.5785,-3.6061,-3.5759,-3.5209,-3.442,-3.2206,-3.0597,-2.9378,0.0,0.0,0.0,0.0,-2.9537,-3.0492,-3.3471,-3.5065,-3.5601,-3.4773,0.0,0.0,0.0,0.0,0.0,0.0,0.0,0.0,0.0,0.0,-4.223,-4.443,-4.552,-4.6374,-4.7684,-4.6398,-4.4432,0.0,-4.1342,-3.8893,-3.4663,0.0,0.0,0.0,0.0,-4.0959,-4.3419,-4.6699,-4.8803,-4.8892,-4.9061,-4.9323,-4.9463,-4.9187,-4.9018,-4.9018,-4.939,-4.8849,-4.7064,-4.6127,-4.4158,0.0,0.0,0.0,0.0,0.0,0.0,0.0,0.0,0.0,0.0,0.0,0.0,0.0,0.0,0.0,0.0,0.0,0.0,0.0,0.0,0.0,0.0,0.0,0.0,0.0,0.0,0.0,0.0,-2.3419,-2.3904,-2.3269,-2.3528,-2.3499,0.0,0.0,0.0,0.0,0.0,0.0,-2.6922,-2.7038,-2.7608,-2.8875,-3.0114,-3.0982,-3.1436,-3.2731,-3.3835,-3.465,-3.4992,-3.56,-3.6567,-3.6567,-3.6567,-3.6567,-3.6567,-3.6665,-3.6471,-3.3911,-3.2461,-3.1771,-3.051,-2.9887,-2.9855,-3.1519,-3.2634,-3.3693,-3.6796,-3.8428,-3.9073,-3.8452,-3.8179,-3.7742,-3.6559,0.0,0.0,0.0,0.0,-3.674,-3.8716,-4.0347,-4.2114,-4.4376,-4.5929,-4.7132,-4.8403,-4.8278,-4.7418,0.0,-4.3817,-4.1054,-3.7112,0.0,0.0,0.0,0.0,-4.4086,-4.5198,-4.7955,-4.9785,-4.9526,-4.9626,-4.9687,-4.9565,-4.939,-4.9187,-4.9018,-4.9526,-4.956,-4.9018,-4.8044,-4.687,-4.5554,0.0,0.0,0.0,0.0,0.0,0.0,0.0,0.0,0.0,0.0,0.0,0.0,0.0,0.0,0.0,0.0,0.0,0.0,0.0,0.0,0.0,0.0,0.0,0.0,0.0,0.0,0.0,0.0,0.0,-2.4084,-2.452,0.0,0.0,0.0,0.0,-2.8056,-2.7523,-2.7947,-2.9905,-2.9349,-2.9909,-3.1689,-3.2372,-3.3462,-3.5044,-3.5244,-3.5838,-3.6881,-3.6881,-3.7194,-3.7821,-3.7821,-3.7821,-3.7821,-3.7821,-3.7572,-3.7157,-3.5336,-3.3807,-3.2637,-3.2209,-3.1392,-3.0974,-3.4405,-3.6276,-3.7432,-4.0244,-4.1529,-4.1564,-3.9442,-3.7396,-3.6004,-3.7286,-3.6276,0.0,0.0,-3.8042,-3.9214,-4.1989,-4.3218,-4.3901,-4.4674,-4.5973,-4.7137,-4.7806,-4.6562,-4.6135,0.0,-4.9489,-4.8288,-4.4749,0.0,-4.3358,-4.3232,-4.3387,-4.4458,-4.713,-4.9145,-5.0358,-5.0326,-5.0791,-5.1085,-5.1116,-5.0439,-4.9729,-4.9052,-4.9052,-4.9052,-4.9018,-4.9593,-4.8517,-4.5587,-4.6069,0.0,0.0,0.0,0.0,0.0,0.0,0.0,0.0,0.0,0.0,0.0,0.0,0.0,0.0,0.0,0.0,0.0,0.0,0.0,0.0,0.0,0.0,0.0,0.0,0.0,0.0,0.0,0.0,-2.452,-2.5753,0.0,-2.6242,-2.6755,-2.7589,-2.8594,-2.8823,-2.9559,-3.1073,-3.1058,-3.1907,-3.3761,-3.464,-3.5558,-3.6483,-3.6897,-3.7378,-3.8109,-3.8109,-3.8423,-3.8998,-3.8606,-3.8423,-3.8397,-3.8057,-3.7978,-3.8188,-3.7635,-3.6753,-3.5656,-3.5896,-3.5825,-3.5746,-3.806,-3.9031,-3.9635,-4.1728,-4.2244,-4.1947,-4.1179,-4.0403,-3.9836,-4.0383,-3.9959,-3.9372,-3.9836,-4.033,-4.0991,-4.2144,-4.316,-4.4146,-4.5298,-4.5913,-4.6695,-4.8254,-4.77,-4.7525,-4.9521,-4.8282,-4.6317,-4.4938,-4.636,-4.6929,-4.4685,-4.619,-4.8093,-4.9368,-5.0091,-5.0618,-5.0925,-5.1088,-5.1217,-5.1217,-5.098,-5.0507,-4.9729,-5.0168,-5.0202,-4.9729,-5.0405,-5.0541,-4.9869,-4.9819,-4.7178,0.0,0.0,0.0,0.0,0.0,0.0,0.0,0.0,0.0,0.0,0.0,0.0,0.0,0.0,0.0,0.0,0.0,0.0,0.0,0.0,0.0,0.0,0.0,0.0,0.0,0.0,-2.6145,-2.582,-2.7404,-2.8344,-2.7881,-2.8546,-2.9309,-2.9756,-3.0361,-3.1247,-3.2592,-3.3332,-3.4379,-3.5491,-3.6752,-3.749,-3.7671,-3.7976,-3.8266,-3.8449,-3.8632,-3.8919,-3.9311,-3.9102,-3.8893,-3.8684,-3.8318,-3.8266,-3.8489,-3.8916,-3.8762,-3.8336,-3.8999,-3.92,-3.9369,-4.0914,-4.1592,-4.1875,-4.2965,-4.2934,-4.244,-4.2673,-4.2586,-4.2382,-4.2382,-4.2485,-4.2496,-4.1884,-4.2135,-4.2643,-4.2698,-4.3504,-4.4486,-4.5371,-4.5927,-4.6625,-4.8232,-4.8407,-4.8573,-4.9661,-4.8219,-4.6634,-4.6487,-4.8383,-4.8573,-4.4693,-4.7553,-4.9673,-4.8423,-4.9786,-5.1025,-5.1524,-5.1589,-5.1589,-5.1589,-5.0139,-4.9598,-5.0405,-4.9463,-4.9362,-5.0439,-4.9666,-4.9497,-4.997,-4.949,-4.75,-4.4052,0.0,0.0,0.0,0.0,0.0,0.0,0.0,0.0,0.0,0.0,0.0,0.0,0.0,0.0,0.0,0.0,0.0,0.0,0.0,0.0,0.0,0.0,0.0,-2.5065,-2.5777,-2.6915,-2.8074,-2.9511,-3.0034,-2.9083,-2.9664,-3.0571,-3.1852,-3.237,-3.3197,-3.4433,-3.6209,-3.7089,-3.692,-3.8614,-3.9337,-3.8762,-3.8736,-3.8475,-3.7978,-3.8501,-3.8762,-3.8815,-3.939,-3.9311,-3.8762,-3.8736,-3.8449,-3.807,-3.9043,-3.9788,-4.0368,-4.1174,-4.1336,-4.1369,-4.2796,-4.3632,-4.4008,-4.4008,-4.3573,-4.3166,-4.3776,-4.3544,-4.3021,-4.3021,-4.3485,-4.3863,-4.3195,-4.3485,-4.4008,-4.4008,-4.4443,-4.4879,-4.4908,-4.5933,-4.7076,-4.7734,-4.8407,-4.9147,-4.9821,-4.9931,-4.9931,-4.9931,-4.9931,-4.8396,-4.3854,-4.7443,0.0,-4.4429,-4.8145,-5.1457,-5.2097,-5.2131,-5.2131,-5.2164,-4.8112,-4.7173,-5.1014,-4.7106,-4.6634,-5.1082,-4.768,-4.5698,-4.5698,-4.5003,-4.5137,-4.5992,0.0,0.0,0.0,0.0,0.0,0.0,0.0,0.0,0.0,0.0,0.0,0.0,0.0,0.0,0.0,0.0,0.0,0.0,0.0,0.0,0.0,0.0,-2.6448,-2.6611,-2.8617,-3.0171,-3.0229,-3.218,-3.343,-3.2991,-3.3597,-3.4535,-3.5688,-3.4969,-3.5256,-3.7023,-3.702,-3.7538,-3.8863,-3.9343,-3.973,-3.9939,-3.9128,-3.905,-3.973,-3.9468,-3.9808,-4.0592,-4.0305,-4.0095,-3.9913,-4.0065,-4.0321,-4.0683,-4.2048,-4.2705,-4.2761,-4.2276,-4.2308,-4.2767,-4.3488,-4.4182,-4.4589,-4.4124,-4.4153,-4.4327,-4.4066,-4.3863,-4.3718,-4.3718,-4.3834,-4.4036,-4.4398,-4.4232,-4.4182,-4.5108,-4.5084,-4.4995,-4.5488,-4.6256,-4.7076,-4.7734,-4.8407,-4.9197,-5.0338,-5.057,-5.0416,-5.001,-4.9931,-4.9457,-4.8206,-4.9197,0.0,-4.9534,-5.0669,-5.0888,-4.9169,-4.8456,-4.8354,-4.8894,-4.7342,-4.7916,-5.1758,-5.1386,-5.1254,-5.1961,-5.1589,-5.0926,-4.9981,-4.7668,-4.6056,0.0,0.0,0.0,0.0,0.0,0.0,0.0,0.0,0.0,0.0,0.0,0.0,0.0,0.0,0.0,0.0,0.0,0.0,0.0,0.0,0.0,0.0,-2.7381,-2.8633,-3.0007,-3.1283,-3.2244,-3.2831,-3.4649,-3.5696,-3.5502,-3.6063,-3.6825,-3.7741,-3.7071,-3.7093,-3.8216,-3.8365,-3.8715,-3.9546,-4.0063,-4.0357,-4.0409,-3.9756,-3.9651,-4.0069,-3.9991,-4.0174,-4.0592,-4.0723,-4.054,-4.0069,-4.0802,-4.1086,-4.1383,-4.2866,-4.3669,0.0,0.0,0.0,0.0,0.0,-4.4995,-4.5256,-4.4908,-4.4821,-4.4879,-4.4821,-4.4589,-4.4443,-4.4703,-4.4821,-4.488,-4.5247,-4.5052,-4.4967,-4.5727,-4.5815,-4.5903,-4.652,-4.7046,-4.7649,-4.8841,-4.9166,-4.9678,-5.0951,-5.0951,0.0,-5.0679,-5.0679,-4.9993,-4.8051,-4.9673,-5.0603,-4.9378,-5.1111,-5.186,-5.0312,-4.9767,-4.9666,-5.0105,-4.795,0.0,0.0,0.0,-5.0409,-4.9936,-5.0183,0.0,0.0,0.0,-4.625,-4.712,0.0,0.0,0.0,-4.3227,-4.2525,0.0,0.0,0.0,0.0,0.0,0.0,0.0,0.0,0.0,0.0,0.0,0.0,0.0,0.0,0.0,0.0,-2.9878,-3.1978,-3.4268,-3.3839,-3.3911,-3.5598,-3.6776,-3.7292,-3.7192,-3.7642,-3.8166,-3.8767,-3.8641,-3.8641,-3.8792,0.0,0.0,0.0,0.0,-4.1063,-4.0514,-4.0461,-4.02,-3.9808,-4.0226,-4.02,-3.9834,-4.0932,-4.0775,-3.9922,-4.1298,-4.1572,-4.1137,-4.2654,-4.3588,-4.4248,-4.5483,-4.5518,-4.5082,-4.5663,-4.5895,-4.5895,-4.5895,0.0,0.0,-4.5692,-4.5578,-4.5259,-4.5838,-4.602,-4.6018,-4.6102,-4.6108,-4.6046,-4.6225,-4.6638,-4.7306,-4.7897,-4.8095,-4.8677,-5.0365,-5.032,-5.0352,-5.1549,-5.1401,-5.1177,-5.1802,-5.1696,-5.0131,-4.6153,-4.9378,-5.0916,-4.7075,-5.0593,-5.3348,-5.3179,0.0,0.0,-5.3112,-4.9294,-4.8793,-5.3484,-4.9835,-4.7477,-4.7477,-4.6858,-4.6288,-4.5765,-4.5094,-4.6516,-5.0153,-5.0089,-5.0026,-4.99,-4.399,-4.2909,0.0,0.0,0.0,0.0,0.0,0.0,0.0,0.0,0.0,0.0,0.0,0.0,0.0,0.0,0.0,-3.07,-3.1896,-3.3551,-3.6673,-3.7049,-3.7127,-3.7271,-3.7967,-3.8567,-3.8768,-3.9094,-3.9702,-4.0715,-3.9373,-3.9222,-4.0715,-4.0004,-3.9979,-4.0941,-4.1145,-4.1272,-4.1141,-4.0644,-4.0592,-4.0984,0.0,0.0,-4.101,-4.169,-4.1676,-4.1202,-4.3094,-4.3626,-4.3301,-4.4719,-4.5396,-4.5541,-4.5837,-4.5808,-4.5721,-4.5837,-4.5895,-4.5895,-4.5895,-4.5808,-4.5721,-4.5837,-4.6137,-4.6549,-4.6636,-4.6725,0.0,-4.7327,-4.713,-4.6989,-4.7981,-4.8315,-4.8533,-4.9233,-4.971,-5.0288,-5.0595,-5.1038,-5.1549,-5.2274,-5.2345,-5.2449,-5.3041,-5.1549,-5.0083,-4.9705,-5.0057,-5.0659,-5.1336,-5.2349,-5.2345,-5.0854,-5.0109,-5.0008,-5.0615,-4.9299,-5.0443,-5.5006,-5.389,-5.3078,-5.3078,-5.1932,-5.1243,-5.1197,-5.0089,-5.016,-5.1606,-5.1037,-5.0785,-5.0721,-4.8871,-4.8649,0.0,0.0,0.0,0.0,0.0,0.0,0.0,0.0,0.0,0.0,0.0,-2.5587,0.0,0.0,-3.0337,-3.2364,-3.3385,-3.4956,-3.7735,-3.8275,-3.8388,-3.841,-3.9397,-4.0058,-3.9905,-4.0438,-4.0896,-4.1324,-4.0511,-4.0485,-4.1298,-4.0896,-4.0896,-4.1324,-4.1585,-4.1611,-4.1324,-4.101,-4.101,-4.1324,-4.1298,-4.1298,-4.135,-4.2213,-4.2515,-4.2511,-4.4261,-4.4829,-4.4833,-4.5595,-4.5895,-4.5895,-4.5895,-4.5895,-4.5895,-4.5895,-4.5895,-4.5895,-4.5895,-4.6135,-4.6403,-4.6403,-4.7046,-4.7782,-4.7509,-4.7304,-4.7297,-4.7293,-4.7363,-4.741,-4.809,-4.8983,-4.9867,-5.0486,-5.093,-5.1336,-5.1954,-5.2131,-5.2307,-5.2903,-5.28,-5.28,-5.3416,-5.2317,-5.1447,-5.1688,-5.1991,-5.2499,-5.3188,-5.3844,-5.3904,-5.2944,-5.2538,-5.247,-5.2842,-5.2504,-5.3247,-5.5581,-5.5344,-5.5141,-5.5141,-5.4246,-5.3678,-5.375,-5.279,-5.2372,-5.2475,-5.2125,-5.1804,-5.148,-5.1132,-5.0974,0.0,0.0,0.0,0.0,0.0,0.0,0.0,0.0,-2.3635,-2.5668,-2.694,-2.8177,-2.9757,-3.116,-3.24,-3.3696,-3.494,-3.6383,-3.8118,-3.89,-3.9373,-3.9476,-4.0563,-4.1183,-4.0847,-4.1503,-4.1729,-4.1524,-4.1702,-4.1781,-4.1681,-4.2023,-4.2102,-4.1865,-4.218,-4.2207,-4.1865,-4.1839,-4.1839,-4.1865,-4.221,-4.221,-4.1791,-4.2916,-4.3455,-4.348,-4.4581,-4.5352,-4.573,-4.5825,-4.5895,-4.5895,-4.6011,-4.5982,-4.5895,-4.5895,-4.5956,-4.6046,-4.6046,-4.658,-4.7076,-4.7076,-4.7873,-4.8717,-4.8252,-4.8035,-4.788,-4.7542,-4.7729,-4.8182,-4.8419,-4.9764,-5.1229,-5.1849,-5.2026,-5.2307,-5.328,-5.311,-5.2903,-5.3416,-5.311,-5.2972,-5.3416,-5.3294,-5.3096,-5.2819,-5.374,-5.4384,-5.4195,-5.5089,-5.5845,-5.6122,-5.6156,-5.6156,-5.6156,-5.6156,-5.6156,-5.6156,-5.6021,-5.5919,-5.5919,-5.5324,-5.5001,-5.4989,-5.4378,-5.3847,-5.3388,-5.3258,-5.278,-5.2091,-5.225,-5.2009,-1.85,-1.9235,-2.1108,-2.3532,-2.3695,-2.4286,0.0,0.0,-2.7087,-2.9555,-3.0417,-3.1086,-3.2274,-3.3833,-3.5065,-3.5503,-3.6831,-3.8007,-3.8225,-4.0038,-4.1231,-4.0946,-4.1358,-4.1722,-4.1948,-4.2272,-4.2378,-4.202,-4.2298,-4.2589,-4.2791,-4.2339,-4.2525,-4.3535,-4.311,-4.311,-4.3562,-4.3562,-4.3562,-4.3562,-4.3436,-4.3333,-4.328,-4.4407,-4.4401,-4.3546,-4.393,-4.4818,-4.5892,-4.5924,-4.5895,-4.5924,-4.6505,-4.6388,-4.5895,-4.5895,-4.6314,-4.6756,-4.6756,-4.7249,-4.7819,-4.7819,-4.8324,-4.8872,-4.881,-4.8779,-4.8829,-4.9378,-4.9458,-4.9836,-5.0876,-5.1783,-5.2557,-5.311,-5.328,-5.3348,-5.3484,-5.345,-5.3416,-5.3518,-5.345,-5.3416,-5.3518,-5.4024,-5.4186,-5.3661,-5.3824,-5.4336,-5.5555,-5.5762,-5.6318,-5.7504,-5.7645,-5.7645,-5.7645,-5.7645,-5.7645,-5.7645,-5.7036,-5.6697,-5.6697,-5.5984,-5.5665,-5.5788,-5.5048,-5.4717,-5.4731,-5.4109,-5.3378,-5.265,-5.3335,-5.3326,-2.0873,-2.1304,-2.2387,0.0,-2.5614,-2.7103,-2.8802,-2.9321,-2.9856,-3.1596,-3.282,-3.3763,-3.4078,-3.5427,-3.6338,0.0,-3.7541,-3.8932,-3.9218,-4.0689,-4.1516,-4.1188,-4.1386,-4.1789,-4.2065,-4.2724,-4.2831,-4.2119,-4.2751,-4.2938,-4.2492,-4.2865,-4.2998,-4.2838,-4.3584,-4.377,-4.3371,-4.369,-4.369,-4.3371,-4.383,-4.4067,-4.4184,-4.472,-4.5111,-4.5312,-4.5556,-4.5953,-4.6417,-4.604,-4.5895,-4.5924,-4.6185,-4.6127,-4.5985,-4.6314,-4.6668,-4.6872,-4.6886,-4.7327,-4.7845,-4.7446,-4.7933,-4.8789,-4.8789,-4.9018,-4.9363,-4.9586,-5.0204,-5.0936,-5.1366,-5.2327,-5.3212,-5.3416,-5.3518,-5.3518,-5.3518,-5.3518,-5.3518,-5.3518,-5.3518,-5.3653,-5.4059,-5.4769,-5.5308,-5.5501,-5.5515,-5.5743,-5.6371,-5.6774,-5.7325,-5.7848,-5.7881,-5.7881,-5.7881,-5.7881,-5.7881,-5.7881,-5.7611,-5.7442,-5.7442,-5.7137,-5.6993,-5.7043,-5.674,-5.6211,-5.5511,-5.5213,-5.4458,-5.3324,-5.3651,-5.3942,-2.1945,-2.276,-2.3771,-2.5643,-2.8065,-2.9994,-3.0291,-3.1255,-3.2306,-3.3071,-3.4342,-3.5131,-3.497,-3.5845,-3.6554,-3.618,-3.7844,-3.934,-3.9569,-4.072,-4.1255,-4.0777,-4.0911,-4.1113,-4.1582,-4.2494,-4.2968,-4.2413,-4.3049,-4.3264,-4.2896,-4.3252,-4.3466,-4.3352,-4.4189,-4.443,-4.3921,-4.4452,-4.4452,-4.3921,-4.4439,-4.4834,-4.5255,-4.5574,-4.619,-4.6871,-4.646,-4.6301,-4.6243,-4.543,-4.5285,-4.5605,-4.5605,-4.5721,-4.5956,-4.6814,-4.7043,-4.7036,-4.7516,-4.8035,-4.8404,-4.8215,-4.8775,-4.9548,-4.9548,-4.9838,-5.0227,-5.0368,-5.1082,-5.186,-5.1998,-5.2775,-5.3518,-5.3518,-5.3518,-5.3518,-5.3518,-5.3518,-5.3518,-5.3518,-5.3653,-5.3957,-5.4499,-5.5378,-5.619,-5.6731,-5.6968,-5.7103,-5.7103,-5.7577,-5.7881,-5.7881,-5.7881,-5.7881,-5.7881,-5.7881,-5.7881,-5.7881,-5.7881,-5.7881,-5.7881,-5.7881,-5.778,-5.7577,-5.7577,-5.692,-5.5542,-5.5542,-5.4922,-5.375,-5.3948,-5.4411,-1.985,-2.201,-2.4367,-2.8665,-3.114,-3.2982,-3.4375,-3.4562,-3.4478,-3.4292,-3.4614,-3.4705,-3.4504,-3.504,-3.5733,-3.6285,-3.816,-3.9415,-3.8792,-4.0109,-4.079,-3.9928,-3.9505,-3.9617,0.0,-4.1585,-4.2609,-4.29,-4.3246,-4.3741,-4.461,-4.3552,-4.3986,-4.6292,-4.5288,-4.5261,-4.6374,-4.6401,-4.6401,-4.6401,-4.5874,-4.598,-4.6764,-4.7175,-4.7566,-4.7666,-4.5779,-4.4937,-4.485,-4.3602,-4.3805,-4.4908,-4.4908,-4.5314,-4.6046,-4.7392,-4.7509,-4.7189,-4.9077,-4.9783,-4.9973,-5.1141,-5.1557,-5.1631,-5.1631,-5.1631,-5.1776,-5.2383,-5.2524,-5.2697,-5.3315,-5.3484,-5.3518,-5.3518,-5.3518,-5.3518,-5.3518,-5.3518,-5.3518,-5.3518,-5.4059,-5.4566,-5.46,-5.5784,-5.6765,-5.6799,-5.7408,-5.7848,-5.7848,-5.7881,-5.7881,-5.7881,-5.7881,-5.7881,-5.7881,-5.7881,-5.7881,-5.7881,-5.7881,-5.7881,-5.7881,-5.7881,-5.7543,-5.6867,-5.6833,-5.6122,-5.4668,-5.4668,-5.4296,-5.3518,-5.4227,-5.497,-2.1876,-2.5037,-2.8399,-3.1628,-3.3585,-3.4857,-3.5605,-3.5867,-3.5771,-3.502,-3.3871,-3.2841,-3.258,-3.2957,-3.3597,-3.4711,-3.761,-3.9776,-4.0076,-4.0718,-4.0583,-3.9096,-3.9114,0.0,0.0,0.0,0.0,-4.2276,-4.2749,-4.3345,-4.4067,-4.4094,-4.4474,-4.5288,-4.5668,-4.5885,-4.5885,-4.6265,-4.6265,-4.5885,-4.6476,-4.6855,-4.7303,-4.7595,-4.7441,-4.7085,-4.6011,-4.5547,-4.5518,-4.5082,-4.5169,-4.5547,-4.5547,-4.5931,-4.6609,-4.7081,-4.714,-4.7291,-4.9152,-4.9491,-4.924,-5.0046,-5.0287,-5.0424,-5.1343,-5.1578,-5.1818,-5.2907,-5.3212,-5.328,-5.345,-5.3518,-5.3518,-5.3518,-5.3518,-5.3518,-5.3518,-5.3518,-5.3653,-5.4126,-5.4431,-5.4905,-5.5886,-5.6461,-5.6968,-5.7442,-5.7712,-5.7881,-5.7881,-5.7881,-5.7881,-5.7881,-5.7881,-5.7881,-5.7881,-5.7881,-5.7881,-5.7881,-5.7881,-5.7881,-5.7881,-5.7881,-5.778,-5.7509,-5.7509,-5.7036,-5.6055,-5.6055,-5.5683,-5.4972,-5.5209,-5.5716,-2.4696,-2.8172,-3.1615,-3.4084,-3.5669,-3.6653,-3.6604,-3.6614,-3.624,-3.4957,-3.3031,-3.1376,-3.0639,-3.081,-3.1289,-3.2092,-3.5018,-3.7572,-3.8754,-3.8899,-3.8918,-3.8573,-3.8607,-3.8613,0.0,0.0,0.0,-4.1598,-4.2439,-4.3145,-4.3742,-4.4366,-4.4908,-4.5316,-4.5885,-4.6075,-4.5912,-4.6292,-4.637,-4.6168,-4.7387,-4.7957,-4.8027,-4.8336,-4.7985,-4.7143,-4.6505,-4.5953,-4.5518,-4.5285,-4.5343,-4.5518,-4.5518,-4.6108,-4.6959,-4.7166,-4.7311,-4.7572,-4.9437,-4.9653,-4.9349,-5.0578,-5.0985,-5.1187,-5.2265,-5.2637,-5.2874,-5.3991,-5.4093,-5.389,-5.389,-5.3687,-5.3518,-5.3518,-5.3518,-5.3518,-5.3518,-5.3518,-5.3721,-5.4465,-5.4803,-5.5378,-5.6596,-5.7036,-5.734,-5.7814,-5.7881,-5.7881,-5.7881,-5.7881,-5.7881,-5.7881,-5.7881,-5.7881,-5.7881,-5.7881,-5.7881,-5.7881,-5.7881,-5.7881,-5.7881,-5.7881,-5.778,-5.7509,-5.7509,-5.7137,-5.6427,-5.6427,-5.6156,-5.5716,-5.5987,-5.6359,-2.8065,-3.1281,-3.396,-3.6208,-3.7526,-3.8088,-3.7294,-3.6642,-3.5709,-3.3863,-3.1968,-3.0157,0.0,0.0,-2.9025,-2.8774,-3.1135,-3.3616,-3.5404,-3.5629,-3.6389,0.0,0.0,0.0,0.0,0.0,0.0,-4.1028,0.0,-4.3118,-4.3796,-4.442,-4.5288,-4.6428,-4.5912,-4.5912,-4.6455,-4.6587,-4.6742,-4.7308,-4.8624,-4.9092,-4.8894,-4.9357,-4.8885,-4.7753,-4.7085,-4.6069,-4.4908,-4.4327,-4.4414,-4.4937,-4.4937,-4.5757,-4.6989,-4.7619,-4.7843,-4.806,-4.9961,-5.0368,-5.0317,-5.2707,-5.3518,-5.3687,-5.4397,-5.4634,-5.4803,-5.5513,-5.5209,-5.4634,-5.46,-5.4093,-5.3585,-5.3518,-5.3551,-5.3551,-5.3518,-5.3518,-5.3721,-5.4499,-5.5277,-5.6055,-5.6731,-5.7442,-5.7881,-5.7881,-5.7881,-5.7881,-5.7881,-5.7881,-5.7881,-5.7881,-5.7881,-5.7881,-5.7881,-5.7881,-5.7881,-5.7881,-5.7881,-5.7881,-5.7881,-5.7881,-5.7577,-5.6867,-5.6867,-5.6528,-5.5818,-5.5818,-5.5852,-5.5886,-5.6562,-5.69,-3.208,-3.5073,-3.7495,-3.835,-3.8386,-3.7965,-3.6565,-3.5537,-3.4198,-3.1601,-2.8773,-2.6302,0.0,0.0,0.0,-2.9416,-3.362,0.0,-3.9382,-3.9988,0.0,-3.988,0.0,-4.0078,-3.9753,-4.016,0.0,0.0,-4.2059,-4.29,-4.4393,-4.5044,-4.5695,-4.6455,-4.6319,-4.6319,-4.6482,-4.7081,-4.7671,-4.8151,-4.8395,-4.901,-4.9708,-4.8188,-4.7637,-4.7724,-4.6621,-4.5924,-4.5605,-4.5459,-4.5488,-4.5634,-4.5634,-4.6491,-4.7619,-4.7273,-4.8151,-4.9521,-4.9714,-5.0047,-5.0625,-5.2809,-5.3856,-5.4329,-5.4532,-5.4972,-5.548,-5.5683,-5.5581,-5.531,-5.4735,-5.4871,-5.4871,-5.3754,-5.3923,-5.416,-5.3619,-5.3518,-5.389,-5.5175,-5.6461,-5.7408,-5.7577,-5.778,-5.7881,-5.7881,-5.7881,-5.7881,-5.7881,-5.7881,-5.7881,-5.7881,-5.7881,-5.7881,-5.7881,-5.7881,-5.7881,-5.7881,-5.7881,-5.7881,-5.7881,-5.7881,-5.7814,-5.7611,-5.7611,-5.7509,-5.734,-5.734,-5.7611,-5.8152,-5.778,-5.8186,-3.4575,-3.7377,-3.9965,-3.9674,-3.9144,-3.7988,-3.5494,-3.4088,-3.2357,-2.887,-2.6155,0.0,-2.2429,0.0,0.0,0.0,0.0,0.0,-3.8681,-3.9516,-4.006,0.0,-4.0962,0.0,-4.0621,-4.1137,-4.1761,0.0,-4.2629,-4.3335,-4.4637,-4.5505,-4.613,-4.6455,-4.6482,-4.6665,-4.7081,-4.8151,-4.8709,-4.8747,-4.9146,-4.9509,-4.9522,-4.8512,-4.7829,-4.7532,0.0,-4.6247,-4.5895,-4.5895,-4.5895,-4.5895,-4.5895,-4.6726,-4.7843,-4.7479,-4.8576,-5.0359,-5.0445,-5.0549,-5.0994,-5.2504,-5.3247,-5.3721,-5.4397,-5.5108,-5.5784,-5.6089,-5.619,-5.6089,-5.5683,-5.5649,-5.5513,-5.4668,-5.4769,-5.4972,-5.4566,-5.4465,-5.4837,-5.5953,-5.7103,-5.7881,-5.7881,-5.7881,-5.7881,-5.7881,-5.7881,-5.7881,-5.7881,-5.7881,-5.7881,-5.7881,-5.7881,-5.7881,-5.7881,-5.7881,-5.7881,-5.7881,-5.7881,-5.7881,-5.7881,-5.7881,-5.8051,-5.8389,-5.8389,-5.8389,-5.8389,-5.8693,-5.893,-5.9032,-5.8896,-5.9302,-3.6713,-3.9146,-4.1409,-4.0563,-3.975,-3.8242,-3.4168,-3.2415,-3.0441,-2.6089,0.0,-2.2315,-2.0955,-2.2261,-2.4014,-2.5345,0.0,-3.2514,-3.6577,-3.7424,-3.8678,-4.1423,-4.1558,-4.1381,-4.1462,-4.1924,-4.2521,-4.3199,-4.3715,-4.4257,-4.48,-4.5885,-4.6482,-4.6482,-4.656,-4.6977,-4.7671,-4.9161,-4.9677,-4.9209,-5.0159,-5.002,-4.907,-4.9149,-4.8521,-4.7219,-4.7131,-4.6661,-4.5985,-4.5956,-4.5956,-4.6046,-4.6046,-4.6814,-4.8072,-4.7897,-4.9127,-5.0812,-5.127,-5.1353,-5.1488,-5.2232,-5.2469,-5.2739,-5.4262,-5.5277,-5.6021,-5.6731,-5.6934,-5.6934,-5.6833,-5.6393,-5.5953,-5.5784,-5.5784,-5.5852,-5.575,-5.5784,-5.6055,-5.6697,-5.7408,-5.7881,-5.7881,-5.7881,-5.7881,-5.7881,-5.7881,-5.7881,-5.7881,-5.7881,-5.7881,-5.7881,-5.7881,-5.7881,-5.7881,-5.7881,-5.7915,-5.8017,-5.8051,-5.8084,-5.8186,-5.8186,-5.849,-5.9133,-5.9167,-5.9167,-5.9167,-5.981,-5.9844,-5.9336,-5.9844,-6.0216,-4.0958,-4.1834,-4.1939,-4.1356,-4.0399,-3.8201,-3.3302,-3.1085,0.0,0.0,-2.1872,-2.084,-1.8894,-2.0744,-2.3712,-2.7187,0.0,0.0,0.0,0.0,-4.1489,0.0,0.0,0.0,0.0,0.0,0.0,0.0,0.0,-4.5316,-4.5424,-4.6102,-4.6482,-4.6482,-4.7184,-4.7568,-4.7671,-4.8729,-4.9443,-4.9852,-4.9478,-4.9397,-4.9694,-4.8531,-4.7759,-4.7433,-4.6903,0.0,-4.6432,-4.6225,-4.6462,-4.6959,-4.6814,-4.7563,-4.8677,-4.8121,-4.9423,-5.1368,-5.0287,-5.0822,-5.2232,-5.3044,-5.3281,-5.3585,-5.5074,-5.6021,-5.6765,-5.7476,-5.7712,-5.7577,-5.6968,-5.7171,-5.7205,-5.6021,-5.619,-5.6461,-5.5852,-5.619,-5.6664,-5.6799,-5.7408,-5.7881,-5.7881,-5.7881,-5.7881,-5.7881,-5.7881,-5.7881,-5.7881,-5.7881,-5.7881,-5.7881,-5.7881,-5.7881,-5.7881,-5.7881,-5.8152,-5.8795,-5.8829,-5.9099,-5.9674,-5.9708,-5.9776,-5.9911,-5.9911,-5.9911,-5.9911,-6.0047,-6.0385,-6.0892,-6.0351,-6.0791,-4.1544,-4.2494,-4.323,-4.2276,-4.0876,-3.8201,-3.2332,0.0,0.0,0.0,-2.0009,-1.9586,-1.8598,0.0,0.0,0.0,0.0,0.0,0.0,0.0,0.0,0.0,0.0,0.0,0.0,0.0,0.0,0.0,0.0,-4.5723,-4.6021,-4.6319,-4.6665,-4.7081,-4.7847,-4.8283,-4.8465,-4.9238,-4.9478,-4.9123,-4.9459,-4.9401,-4.9044,-4.8655,-4.8238,-4.7673,-4.7052,0.0,-4.6901,-4.6784,-4.7046,-4.7563,-4.7478,-4.7988,-4.881,-4.8159,-4.9501,-5.1565,-5.0484,-5.109,-5.2503,-5.3687,-5.3822,-5.3721,-5.4803,-5.5919,-5.6867,-5.7239,-5.7577,-5.7814,-5.7442,-5.7611,-5.7712,-5.7002,-5.7103,-5.7171,-5.6427,-5.6867,-5.7374,-5.7374,-5.7645,-5.7881,-5.7881,-5.7881,-5.7881,-5.7881,-5.7881,-5.7881,-5.7881,-5.822,-5.8321,-5.7915,-5.7881,-5.8051,-5.8457,-5.8457,-5.8795,-5.9539,-5.9573,-5.9742,-6.008,-6.0114,-6.0283,-6.0723,-6.0723,-6.0723,-6.0723,-6.1095,-6.1298,-6.1298,-6.1298,-6.167,-4.1633,-4.3092,-4.434,-4.3166,-4.1396,-3.82,-3.1662,-2.8713,0.0,0.0,-1.876,-1.8741,-1.8627,0.0,-2.1833,0.0,0.0,0.0,0.0,0.0,0.0,0.0,0.0,0.0,0.0,0.0,0.0,0.0,0.0,0.0,-4.6578,-4.6506,-4.6977,-4.7948,-4.8382,-4.8787,-4.9092,-4.9575,-4.9434,-4.8716,-4.9613,-4.9553,-4.8716,-4.9105,-4.8895,-4.8118,-4.7374,0.0,-4.7478,-4.7478,-4.7643,-4.7943,-4.7943,-4.8275,-4.8836,-4.8102,-4.9623,-5.1827,-5.1015,-5.1722,-5.3213,-5.4262,-5.4093,-5.3687,-5.4735,-5.5886,-5.6833,-5.7002,-5.7442,-5.7881,-5.7881,-5.7881,-5.7848,-5.7679,-5.7645,-5.7509,-5.6934,-5.7273,-5.7712,-5.7848,-5.7881,-5.7881,-5.7881,-5.7881,-5.7881,-5.7881,-5.7881,-5.7949,-5.8118,-5.866,-5.8863,-5.8423,-5.8355,-5.8592,-5.9201,-5.9268,-5.9573,-6.0317,-6.0351,-6.0419,-6.0588,-6.0588,-6.0892,-6.1535,-6.1535,-6.1535,-6.1535,-6.211,-6.211,-6.1535,-6.211,-6.2381,-4.3372,-4.4507,-4.4383,-4.3973,-4.191,-3.8206,-3.1804,0.0,0.0,-1.9803,-1.876,-1.8627,-1.8084,-1.8664,-2.0423,-2.4134,-2.4731,-2.7477,0.0,0.0,0.0,0.0,0.0,0.0,0.0,0.0,0.0,0.0,0.0,0.0,-4.6762,-4.6572,-4.7157,-4.8596,-4.8281,-4.8355,-4.9092,-4.8684,-4.9015,-5.0062,-4.9583,-4.9613,-5.0032,-4.9523,-4.9163,-4.8732,-4.8152,0.0,0.0,-4.8271,-4.8152,-4.8164,-4.8004,-4.8324,-4.8811,-4.8148,-4.9941,-5.2482,-5.1179,-5.2753,-5.531,-5.4769,-5.4093,-5.389,-5.5987,-5.6697,-5.6934,-5.7611,-5.7848,-5.7881,-5.7881,-5.7881,-5.7712,-5.707,-5.69,-5.69,-5.6799,-5.6867,-5.7103,-5.7746,-5.7881,-5.7881,-5.7881,-5.7881,-5.7881,-5.7881,-5.7881,-5.8118,-5.8829,-5.8964,-5.9235,-5.9844,-5.9911,-5.9945,-5.9979,-6.0013,-6.0351,-6.1129,-6.1197,-6.1501,-6.2144,-6.2178,-6.2212,-6.2279,-6.2279,-6.2279,-6.2279,-6.2347,-6.2347,-6.2279,-6.2347,-6.2381,-4.2469,-4.3947,-4.411,-4.3488,-4.0227,-3.5856,-3.084,0.0,-2.313,-1.9341,-1.8673,-1.8741,-1.8633,-1.8964,-2.0127,-2.2549,-2.3407,0.0,0.0,0.0,0.0,0.0,0.0,0.0,0.0,0.0,0.0,0.0,0.0,0.0,-4.8201,-4.7985,-4.8424,-4.9513,-4.9281,-4.9172,-4.9186,-4.9044,-4.8745,-4.8476,-4.9015,-4.9404,-4.9643,-4.9644,-4.964,-4.9482,-4.8675,0.0,0.0,-4.8934,-4.8773,-4.8655,-4.8577,-4.8655,-4.8871,-4.8552,-5.0251,-5.2622,-5.1569,-5.3168,-5.5581,-5.4837,-5.4702,-5.5074,-5.6393,-5.7103,-5.7509,-5.7814,-5.7881,-5.7881,-5.7881,-5.7881,-5.7712,-5.6968,-5.6799,-5.6799,-5.6799,-5.6799,-5.7036,-5.7746,-5.7881,-5.7881,-5.7881,-5.7881,-5.7881,-5.7881,-5.8287,-5.8693,-5.8964,-5.981,-6.052,-6.0791,-6.0385,-6.0283,-6.0791,-6.0825,-6.1163,-6.1907,-6.1941,-6.2076,-6.2381,-6.2381,-6.2381,-6.2381,-6.2381,-6.2381,-6.2381,-6.2381,-6.2381,-6.2381,-6.2381,-6.2381,-3.9945,-4.2407,-4.3485,-4.2644,-3.887,-3.4312,0.0,0.0,-2.1855,-1.9301,-1.8711,-1.8788,-1.9213,-1.9332,-1.9908,-2.15,-2.2315,-2.3865,-2.7128,0.0,0.0,0.0,0.0,0.0,0.0,0.0,0.0,0.0,0.0,0.0,-4.9355,-4.9272,-4.9504,-5.0316,-4.9772,-4.941,-4.9284,-4.8895,-4.8327,-4.7608,-4.8536,-4.9254,-4.9794,-4.967,-4.9843,-5.0284,-4.9273,0.0,0.0,-4.9282,-4.897,-4.8604,-4.8604,-4.8604,-4.8618,-4.8904,-5.0668,-5.2729,-5.2014,-5.3578,-5.5581,-5.4837,-5.5108,-5.5818,-5.6325,-5.6833,-5.7273,-5.7509,-5.7712,-5.7881,-5.7881,-5.7881,-5.7712,-5.6968,-5.6799,-5.6799,-5.6799,-5.6799,-5.7036,-5.7746,-5.7881,-5.7881,-5.7881,-5.7881,-5.7949,-5.8186,-5.8693,-5.9167,-5.9641,-6.0622,-6.14,-6.1603,-6.1129,-6.0994,-6.1569,-6.1637,-6.1839,-6.2347,-6.2381,-6.2381,-6.2381,-6.2381,-6.2381,-6.2381,-6.2381,-6.2381,-6.2381,-6.2381,-6.2381,-6.2381,-6.2302,-6.2302,-3.5917,-3.9934,-4.2702,-4.1424,-3.8231,-3.4234,0.0,0.0,-2.1988,-1.9845,-1.8941,-1.875,-1.9545,-1.9406,-1.9723,-2.1326,-2.127,-2.2334,-2.6116,0.0,0.0,0.0,0.0,0.0,0.0,0.0,0.0,0.0,0.0,0.0,-4.9931,-5.0105,-5.0448,-5.1199,-4.9203,-4.8525,-4.9254,-4.7967,-4.7638,-4.8267,-4.8297,-4.9223,-5.0909,-4.9573,-4.9733,0.0,0.0,0.0,0.0,-4.9173,-4.8509,-4.7909,-4.7909,-4.7909,-4.8048,-4.9288,-5.109,-5.2795,-5.2611,-5.3911,-5.5581,-5.4837,-5.5108,-5.5716,-5.5716,-5.575,-5.5886,-5.6596,-5.734,-5.7881,-5.7881,-5.7881,-5.7712,-5.6968,-5.6799,-5.6799,-5.6799,-5.6799,-5.7036,-5.7746,-5.7881,-5.7881,-5.7881,-5.7881,-5.8152,-5.8896,-5.9032,-5.9573,-6.1095,-6.1298,-6.1569,-6.2313,-6.2381,-6.2381,-6.2381,-6.2381,-6.2381,-6.2381,-6.2381,-6.2381,-6.2381,-6.2381,-6.2381,-6.2381,-6.2381,-6.2381,-6.2381,-6.2381,-6.2381,-6.2381,-6.211,-6.1917,-3.1471,-3.3724,-3.4703,-3.4767,-3.1957,-2.8591,-2.6445,0.0,-2.0571,-1.9839,-1.9479,-1.9479,-2.0154,-2.0154,-2.047,-2.1604,-2.2142,-2.2754,-2.3911,0.0,0.0,0.0,0.0,0.0,0.0,0.0,0.0,0.0,0.0,0.0,-5.0822,-5.0415,-5.0541,-5.1199,-5.0084,-4.9429,-4.9284,-4.8865,-4.8473,-4.8127,-4.8494,-4.9179,-5.0008,-4.992,-5.0111,0.0,0.0,0.0,0.0,-4.9679,-4.9205,-4.8573,-4.8573,-4.8573,-4.8681,-4.948,-5.109,-5.2795,-5.2611,-5.3945,-5.5513,-5.4262,-5.4363,-5.4837,-5.4363,-5.4905,-5.5784,-5.5987,-5.6224,-5.6528,-5.7036,-5.7137,-5.7205,-5.7476,-5.7171,-5.6934,-5.7442,-5.7171,-5.7036,-5.7746,-5.7881,-5.7881,-5.7881,-5.7881,-5.8152,-5.8896,-5.9438,-6.0148,-6.1163,-6.1738,-6.2144,-6.2381,-6.2381,-6.2381,-6.2381,-6.2381,-6.2381,-6.2381,-6.2381,-6.2381,-6.2381,-6.2381,-6.2381,-6.2381,-6.2381,-6.2381,-6.2381,-6.2381,-6.2302,-6.211,-6.1951,-6.1709,0.0,-2.9693,-3.0904,-3.111,-2.8675,0.0,0.0,0.0,-2.0015,-2.012,-1.994,-1.9904,-2.0462,-2.0527,-2.0717,-2.1528,-2.2388,-2.3111,-2.3318,0.0,0.0,0.0,0.0,0.0,0.0,0.0,0.0,0.0,0.0,0.0,-5.1199,-5.0275,-5.0155,-5.081,-4.9972,-4.9404,-4.9163,-4.8892,-4.8611,-4.8218,-4.8645,-4.912,-4.9873,-4.9874,-5.0184,0.0,0.0,0.0,0.0,-4.9647,-4.9268,-4.8889,-4.8889,-4.9043,-4.9381,-5.0209,-5.1451,-5.2759,-5.2898,-5.3784,-5.4735,-5.3822,-5.3822,-5.4093,-5.3653,-5.4363,-5.5277,-5.5277,-5.5683,-5.6224,-5.6697,-5.7002,-5.734,-5.778,-5.7543,-5.734,-5.778,-5.7543,-5.734,-5.7814,-5.7881,-5.7881,-5.7881,-5.8118,-5.8558,-5.9302,-6.008,-6.0825,-6.1603,-6.211,-6.2381,-6.2381,-6.2381,-6.2381,-6.2381,-6.2381,-6.2381,-6.2381,-6.2381,-6.2381,-6.2381,-6.2381,-6.2381,-6.2381,-6.2381,-6.2381,-6.2381,-6.2302,-6.211,-6.1756,-6.1628,-6.1465,0.0,-2.7147,-3.0051,0.0,0.0,0.0,0.0,0.0,0.0,-2.066,-2.022,-1.9975,-2.0689,-2.0592,-2.066,-2.1247,-2.2269,-2.3317,0.0,0.0,0.0,0.0,0.0,0.0,0.0,0.0,0.0,0.0,0.0,0.0,-5.1143,-4.9938,-4.9482,-5.0062,-4.8954,-4.8501,-4.8849,-4.8329,-4.8248,-4.8604,-4.8604,-4.9192,-5.0278,-4.9653,-4.9958,0.0,0.0,0.0,0.0,-4.9236,-4.8952,-4.8952,-4.9029,-4.9413,-5.0005,-5.1247,-5.2092,-5.2661,-5.328,-5.3416,-5.3518,-5.3518,-5.3518,-5.3518,-5.3518,-5.3991,-5.4532,-5.4566,-5.5581,-5.6664,-5.6765,-5.7306,-5.7814,-5.7881,-5.7881,-5.7881,-5.7881,-5.7881,-5.7881,-5.7881,-5.7881,-5.7915,-5.7949,-5.8558,-5.9268,-6.008,-6.0825,-6.1569,-6.2313,-6.2381,-6.2381,-6.2381,-6.2381,-6.2381,-6.2381,-6.2381,-6.2381,-6.2381,-6.2381,-6.2381,-6.2381,-6.2381,-6.2381,-6.2381,-6.2381,-6.2381,-6.2381,-6.211,-6.179,-6.1483,-6.1417,-6.1285,-1.9825,0.0,-2.2604,-2.3476,-2.3286,-2.2702,0.0,0.0,0.0,0.0,0.0,0.0,0.0,-2.1307,-2.1274,-2.2321,-2.2802,-2.3475,-2.4652,0.0,0.0,0.0,0.0,0.0,0.0,0.0,0.0,0.0,0.0,-5.1348,-5.0482,-4.9972,-4.9573,-4.9246,-4.8804,-4.8675,-4.8849,-4.8784,-4.8875,-4.9097,-4.9097,-4.9434,-4.9993,-4.9836,-4.9947,0.0,0.0,-4.9931,-4.99,-4.9742,-4.9679,-4.9679,-5.0192,-5.0422,-5.065,-5.141,-5.2092,-5.259,-5.2731,-5.311,-5.3518,-5.3518,-5.3518,-5.3518,-5.3518,-5.3619,-5.389,-5.4431,-5.4837,-5.5378,-5.6528,-5.6934,-5.7205,-5.7746,-5.7881,-5.7881,-5.7881,-5.7881,-5.7881,-5.7881,-5.7881,-5.8084,-5.866,-5.8896,-5.9471,-6.0825,-6.1197,-6.1569,-6.2313,-6.2381,-6.2381,-6.2381,-6.2381,-6.2381,-6.2381,-6.2381,-6.2381,-6.2381,-6.2381,-6.2381,-6.2381,-6.2381,-6.2381,-6.2381,-6.2189,-6.2076,-6.2076,-6.1709,-6.1765,-6.2216,-6.1518,-6.1766,-1.8676,-1.9624,-2.086,-2.1628,-2.1827,-2.1827,-2.1615,0.0,0.0,0.0,0.0,0.0,0.0,0.0,0.0,-2.255,-2.4116,0.0,0.0,0.0,0.0,0.0,0.0,0.0,0.0,0.0,0.0,0.0,0.0,-5.1778,-5.0605,-5.0102,-4.9729,-4.928,-4.8806,-4.8789,-4.9074,-4.8767,-4.8914,-4.9582,-4.9268,-4.9378,-4.9931,-4.9931,-4.9931,0.0,0.0,-4.9931,-4.9931,-4.9931,-4.9931,-5.001,-5.057,-5.0951,-5.1327,-5.1915,-5.252,-5.3041,-5.3041,-5.3212,-5.3518,-5.3518,-5.3518,-5.3518,-5.3518,-5.3518,-5.3585,-5.3991,-5.4329,-5.4769,-5.5581,-5.6292,-5.69,-5.7306,-5.7645,-5.7881,-5.7881,-5.7881,-5.7881,-5.7881,-5.8152,-5.8524,-5.893,-5.9607,-6.0351,-6.1163,-6.1603,-6.1941,-6.2347,-6.2381,-6.2381,-6.2381,-6.2302,-6.2189,-6.2189,-6.211,-6.2144,-6.2381,-6.2381,-6.2381,-6.2381,-6.2268,-6.2189,-6.2064,-6.2287,-6.2293,-6.2211,-6.2299,-6.2532,-6.2846,-6.2363,-6.251,-1.843,-2.0256,-2.1939,-2.1698,-2.1786,-2.1882,-2.1857,0.0,0.0,0.0,0.0,0.0,0.0,0.0,0.0,0.0,0.0,0.0,0.0,0.0,0.0,0.0,0.0,0.0,0.0,0.0,0.0,0.0,0.0,-5.1878,-5.0838,-5.0322,-4.9864,-4.9603,-4.9078,-4.9015,-4.9372,-4.8573,-4.8732,-4.99,-4.9205,-4.9236,-4.9931,-4.9931,-4.9931,-4.9931,0.0,0.0,-4.9931,-4.9931,-4.9931,-4.9979,-5.0647,-5.1252,-5.1769,-5.2449,-5.3041,-5.3518,-5.3518,-5.3518,-5.3518,-5.3518,-5.3518,-5.3518,-5.3518,-5.3518,-5.3518,-5.3518,-5.4025,-5.4634,-5.4871,-5.5852,-5.6833,-5.6934,-5.7442,-5.7881,-5.7881,-5.7881,-5.7915,-5.8051,-5.8592,-5.9099,-5.9336,-6.0452,-6.14,-6.1603,-6.2178,-6.255,-6.255,-6.255,-6.2516,-6.2381,-6.211,-6.1997,-6.1917,-6.179,-6.187,-6.2302,-6.2302,-6.2336,-6.2471,-6.238,-6.2206,-6.2044,-6.2598,-6.2849,-6.2682,-6.3315,-6.3511,-6.3438,-6.3338,-6.3372,-1.7746,-2.025,-2.2504,-2.133,-2.1478,-2.1911,-2.1969,0.0,0.0,0.0,0.0,0.0,0.0,0.0,0.0,0.0,0.0,0.0,0.0,0.0,0.0,0.0,0.0,0.0,0.0,0.0,0.0,0.0,0.0,-5.1642,-5.0375,-5.0452,-5.0231,-4.9577,-4.9644,-4.9773,-4.9852,-4.8732,-4.8732,-4.99,-4.9205,-4.9236,-4.9931,-4.9931,-4.9931,-4.9931,0.0,-4.9931,-4.9931,-4.9931,-4.9931,-4.9979,-5.1102,-5.1623,-5.1875,-5.2972,-5.3416,-5.3518,-5.3518,-5.3518,-5.3518,-5.3518,-5.3518,-5.3518,-5.3518,-5.3518,-5.3518,-5.3518,-5.4025,-5.4871,-5.6122,-5.663,-5.6968,-5.7577,-5.7814,-5.7881,-5.7881,-5.7881,-5.8084,-5.8727,-5.893,-5.9438,-6.0723,-6.1129,-6.1738,-6.299,-6.326,-6.3328,-6.3328,-6.3328,-6.3012,-6.2177,-6.1997,-6.1917,-6.179,-6.1709,-6.1709,-6.179,-6.179,-6.2092,-6.2729,-6.3249,-6.3584,-6.3584,-6.3551,-6.3448,-6.3448,-6.3378,-6.369,-6.42,-6.357,-6.3639,-1.7749,-1.9498,-2.136,-2.1524,-2.2925,-2.4308,-2.427,-2.4383,0.0,0.0,0.0,0.0,0.0,0.0,0.0,0.0,0.0,0.0,0.0,0.0,0.0,0.0,0.0,0.0,0.0,0.0,0.0,0.0,0.0,0.0,-5.0666,-4.9897,-4.9597,-4.9519,-4.9138,-4.8948,-4.8948,-4.7946,-4.8246,-4.99,-4.8857,-4.8699,-4.9363,-4.8983,-4.9015,-4.9363,0.0,-4.9584,-4.9931,-4.9931,-4.9931,-4.9979,-5.1252,-5.1696,-5.1875,-5.3075,-5.3518,-5.3518,-5.3518,-5.3518,-5.3518,-5.3518,-5.3518,-5.3518,-5.3518,-5.3518,-5.3518,-5.3518,-5.3754,-5.4262,-5.5344,-5.5919,-5.6393,-5.7137,-5.7611,-5.7881,-5.7881,-5.822,-5.8592,-5.893,-5.9674,-6.0486,-6.1197,-6.1637,-6.2245,-6.3362,-6.3079,-6.2864,-6.3463,-6.2919,-6.2434,-6.2064,-6.1756,-6.1628,-6.1547,-6.1417,-6.1665,-6.2312,-6.2312,-6.2564,-6.325,-6.3584,-6.37,-6.3615,-6.3843,-6.4241,-6.4607,-6.4917,-6.5425,-6.6121,-6.579,-6.5593,-1.7827,-1.9016,-2.0477,-2.1795,-2.3756,-2.554,-2.6315,-2.6324,0.0,0.0,0.0,0.0,0.0,0.0,0.0,0.0,0.0,0.0,0.0,0.0,0.0,0.0,0.0,0.0,0.0,0.0,0.0,0.0,0.0,0.0,-5.0456,-4.9319,-4.8891,-4.9245,-4.8509,-4.8072,-4.8072,-4.7383,-4.7877,-4.9426,-4.8383,-4.8162,-4.8636,-4.8288,-4.832,-4.8667,-4.8667,-4.9047,-4.9679,-4.9679,-4.9852,-5.0214,-5.1252,-5.1875,-5.2236,-5.3144,-5.3518,-5.3518,-5.3416,-5.3416,-5.3518,-5.3416,-5.3416,-5.3518,-5.3518,-5.3518,-5.3518,-5.3518,-5.3619,-5.3923,-5.4668,-5.5412,-5.6156,-5.6867,-5.7476,-5.7881,-5.7881,-5.849,-5.9066,-5.9235,-6.0385,-6.1366,-6.1535,-6.2009,-6.2651,-6.3316,-6.2885,-6.275,-6.3269,-6.2643,-6.2078,-6.187,-6.1628,-6.145,-6.1567,-6.1567,-6.2082,-6.315,-6.3183,-6.3433,-6.3995,-6.4029,-6.4108,-6.4299,-6.4664,-6.5227,-6.5922,-6.6485,-6.7082,-6.7612,-6.7612,-6.7241,-1.7679,-1.9412,-2.1213,-2.1989,-2.234,0.0,-2.6561,-2.6304,0.0,-2.7978,0.0,0.0,0.0,0.0,0.0,0.0,0.0,0.0,0.0,0.0,0.0,0.0,0.0,0.0,0.0,0.0,0.0,0.0,0.0,0.0,-4.9119,-4.8844,-4.8666,-4.8541,-4.8254,-4.7997,-4.7909,-4.7846,-4.7909,-4.8035,-4.794,-4.794,-4.7972,-4.8573,-4.8509,-4.7972,-4.7972,-4.8351,-4.8952,-4.8952,-4.9719,-5.08,-5.1475,-5.2378,-5.3348,-5.345,-5.3518,-5.3484,-5.328,-5.3348,-5.3484,-5.3247,-5.3348,-5.3518,-5.3518,-5.3518,-5.3518,-5.3518,-5.3991,-5.4668,-5.5446,-5.619,-5.69,-5.7645,-5.7848,-5.7881,-5.7881,-5.849,-5.9201,-5.9877,-6.0723,-6.1535,-6.2178,-6.2347,-6.2572,-6.3155,-6.3747,-6.3799,-6.2963,-6.335,-6.3133,-6.1599,-6.1383,-6.16,-6.2131,-6.2709,-6.3438,-6.4254,-6.432,-6.4619,-6.5227,-6.526,-6.5922,-6.7281,-6.6684,-6.6717,-6.7479,-6.7512,-6.7579,-6.7612,-6.7612,-6.7241,-1.7815,-1.9756,-2.1795,-2.2085,-2.2867,0.0,0.0,-2.9081,-2.8879,-2.9446,-3.0957,0.0,0.0,0.0,0.0,0.0,0.0,0.0,0.0,0.0,0.0,0.0,0.0,0.0,0.0,0.0,0.0,0.0,0.0,0.0,-4.8997,-4.7942,-4.7612,-4.8023,-4.7244,-4.6802,-4.6761,-4.6687,-4.6613,-4.6613,-4.7024,-4.7214,-4.7214,-4.7056,-4.7056,-4.7214,-4.7214,-4.7846,-4.8857,-4.8446,-4.9018,-5.0231,-5.1185,-5.2363,-5.345,-5.2809,-5.264,-5.2573,-5.2438,-5.237,-5.2505,-5.3044,-5.3247,-5.3348,-5.3416,-5.3518,-5.3518,-5.3518,-5.4363,-5.5344,-5.5649,-5.6258,-5.7002,-5.7712,-5.7881,-5.8017,-5.849,-5.9167,-5.9911,-6.0689,-6.1356,-6.1852,-6.2122,-6.203,-6.2219,-6.2878,-6.268,-6.2531,-6.2747,-6.2399,-6.2099,-6.2083,-6.2399,-6.2629,-6.2842,-6.3537,-6.4266,-6.4995,-6.5028,-6.5359,-6.6055,-6.6552,-6.7049,-6.7612,-6.7347,-6.7579,-6.8274,-6.8274,-6.8506,-6.897,-6.897,-6.8271,-1.8768,-2.0205,-2.1795,-2.2908,0.0,0.0,-3.0649,-3.1405,-3.1336,-3.2405,-3.3802,0.0,0.0,0.0,0.0,0.0,0.0,0.0,0.0,0.0,0.0,0.0,0.0,0.0,0.0,0.0,0.0,0.0,0.0,0.0,0.0,-4.6625,-4.6233,-4.6679,-4.6173,-4.5833,-4.5833,-4.5841,-4.5823,-4.5896,-4.6266,-4.6487,-4.6487,-4.6234,-4.6266,-4.6487,-4.6487,-4.715,-4.8193,-4.7945,-4.8785,-5.0359,-5.1353,-5.2303,-5.3011,-5.2337,-5.19,-5.1665,-5.1765,-5.1798,-5.1967,-5.2875,-5.3179,-5.3247,-5.3416,-5.3518,-5.3551,-5.3788,-5.4735,-5.5784,-5.6021,-5.6596,-5.734,-5.8051,-5.8254,-5.8457,-5.9201,-5.9945,-6.0655,-6.1197,-6.1683,-6.1997,-6.1997,-6.1837,-6.1877,-6.2297,-6.1999,-6.1816,-6.2166,-6.1949,-6.2065,-6.2698,-6.3259,-6.3637,-6.3637,-6.4498,-6.526,-6.5724,-6.6187,-6.6684,-6.7181,-6.7479,-6.7844,-6.8307,-6.8076,-6.8307,-6.9036,-6.9036,-6.9301,-6.9798,-6.9511,-6.8765,-2.0697,-2.0722,-2.1179,0.0,0.0,0.0,-3.2519,-3.2748,-3.2863,-3.721,0.0,0.0,0.0,0.0,0.0,0.0,0.0,0.0,0.0,0.0,0.0,0.0,0.0,0.0,0.0,0.0,0.0,0.0,0.0,0.0,0.0,-4.4787,-4.4721,-4.4522,-4.4994,-4.5277,-4.5277,-4.5659,-4.5864,-4.608,-4.5864,-4.5792,-4.5823,-4.6487,-4.6424,-4.5823,-4.5823,-4.6202,-4.6877,-4.7357,-4.9094,-5.156,-5.2101,-5.2234,-5.2101,-5.2101,-5.1497,-5.076,-5.153,-5.1765,-5.1967,-5.2875,-5.3179,-5.3247,-5.3416,-5.3518,-5.3653,-5.4397,-5.5141,-5.5886,-5.663,-5.734,-5.8084,-5.8829,-5.9032,-5.9201,-5.9945,-6.0757,-6.1298,-6.1332,-6.1683,-6.1997,-6.1997,-6.187,-6.1628,-6.1383,-6.2016,-6.2166,-6.1218,-6.2378,-6.3272,-6.3272,-6.3968,-6.4399,-6.4399,-6.5724,-6.6519,-6.6552,-6.7877,-6.8672,-6.8672,-6.8009,-6.8341,-6.9765,-6.9069,-6.9069,-6.9798,-6.9798,-6.9798,-6.9798,-6.8994,-6.86,-1.8843,-2.156,0.0,0.0,0.0,0.0,0.0,-3.3419,0.0,0.0,0.0,0.0,0.0,0.0,0.0,0.0,0.0,0.0,0.0,0.0,0.0,0.0,0.0,0.0,0.0,0.0,0.0,0.0,0.0,0.0,0.0,-4.4655,-4.4589,-4.4522,-4.4513,-4.4541,-4.4541,-4.4628,-4.4724,-4.4724,-4.5234,-4.5603,-4.5823,-4.6013,-4.6013,-4.5823,-4.5823,-4.6202,-4.6877,-4.7755,-4.8646,-4.9519,-5.0992,-5.1425,-5.136,-5.1522,-5.1048,-5.0379,-5.138,-5.1586,-5.1693,-5.3341,-5.355,-5.3247,-5.3717,-5.3685,-5.3653,-5.4397,-5.5141,-5.5886,-5.663,-5.734,-5.8084,-5.8829,-5.9032,-5.937,-6.0655,-6.0941,-6.1166,-6.1672,-6.1703,-6.1628,-6.1628,-6.1417,-6.1252,-6.1169,-6.1368,-6.16,-6.1815,-6.314,-6.4034,-6.4034,-6.516,-6.5889,-6.5889,-6.6751,-6.7512,-6.8009,-6.844,-6.8672,-6.8672,-6.897,-6.9368,-6.9765,-6.9566,-6.9566,-6.9798,-6.9798,-6.9798,-6.9798,-6.8994,-6.8269,-2.1271,0.0,0.0,0.0,0.0,0.0,0.0,0.0,0.0,0.0,0.0,0.0,0.0,0.0,0.0,0.0,0.0,0.0,0.0,0.0,0.0,0.0,0.0,0.0,0.0,0.0,0.0,0.0,0.0,0.0,0.0,-4.3783,-4.3718,-4.3718,-4.3877,-4.3939,-4.4005,-4.4161,-4.4221,-4.4321,-4.5026,-4.5394,-4.5596,-4.5841,-4.5896,-4.5823,-4.5823,-4.6158,-4.6797,-4.7615,-4.8491,-4.9391,-5.0885,-5.1515,-5.1657,-5.2009,-5.1327,-5.0487,-5.1822,-5.1867,-5.1711,-5.3661,-5.4011,-5.3683,-5.4045,-5.3915,-5.3888,-5.4941,-5.5414,-5.5953,-5.6968,-5.7577,-5.8084,-5.8829,-5.9032,-5.9363,-6.0849,-6.0998,-6.1122,-6.1782,-6.1628,-6.1383,-6.1383,-6.1252,-6.1119,-6.1119,-6.1351,-6.1914,-6.2908,-6.3835,-6.4498,-6.4763,-6.5823,-6.6519,-6.6519,-6.7446,-6.8241,-6.8672,-6.897,-6.9136,-6.9136,-6.9566,-6.9798,-6.9798,-6.9798,-6.9798,-6.9798,-6.9798,-6.9607,-6.9285,-6.8468,-6.7631,-2.5811,0.0,0.0,0.0,0.0,0.0,0.0,0.0,0.0,0.0,0.0,0.0,0.0,0.0,0.0,0.0,0.0,0.0,0.0,0.0,0.0,0.0,0.0,0.0,0.0,0.0,0.0,0.0,0.0,0.0,0.0,-4.2618,-4.2618,-4.2618,-4.3073,-4.3396,-4.3622,-4.3909,-4.4163,-4.4329,-4.4902,-4.5186,-4.5213,-4.5801,-4.604,-4.5896,-4.5896,-4.612,-4.6652,-4.7202,-4.8596,-5.046,-5.1371,-5.2038,-5.2622,-5.3038,-5.2145,-5.0994,-5.2619,-5.2654,-5.2221,-5.4011,-5.4431,-5.4269,-5.4494,-5.4303,-5.4353,-5.5791,-5.5961,-5.6055,-5.7509,-5.7949,-5.8152,-5.8761,-5.8964,-5.9363,-6.0583,-6.0841,-6.0998,-6.1642,-6.1532,-6.145,-6.1583,-6.1385,-6.1218,-6.1285,-6.1914,-6.2842,-6.42,-6.4432,-6.473,-6.5425,-6.6187,-6.6651,-6.6717,-6.7976,-6.8771,-6.8771,-6.9434,-6.9798,-6.9798,-6.9798,-6.9798,-6.9798,-6.9798,-6.9831,-6.9898,-6.9736,-6.9318,-6.8698,-6.7663,-6.6806,0.0,0.0,0.0,0.0,0.0,0.0,0.0,0.0,0.0,0.0,0.0,0.0,0.0,0.0,0.0,0.0,0.0,0.0,0.0,0.0,0.0,0.0,0.0,0.0,0.0,0.0,0.0,0.0,0.0,0.0,-4.2587,-4.2618,-4.2618,-4.2618,-4.2716,-4.2781,-4.2877,-4.2879,-4.288,-4.2848,-4.3621,-4.42,-4.4509,-4.5687,-4.6191,-4.6191,-4.6191,-4.6404,-4.686,-4.7605,-4.8725,-5.0048,-5.1514,-5.2104,-5.2248,-5.3264,-5.2978,-5.226,-5.3613,-5.3763,-5.3584,-5.486,-5.4869,-5.4494,-5.4807,-5.4683,-5.4613,-5.5858,-5.6167,-5.637,-5.7582,-5.8321,-5.866,-5.822,-5.8444,-5.9178,-6.0583,-6.0684,-6.0846,-6.2099,-6.1733,-6.1534,-6.2695,-6.2396,-6.2146,-6.2709,-6.3438,-6.4034,-6.4332,-6.4862,-6.5459,-6.622,-6.6949,-6.7612,-6.8175,-6.9036,-6.9566,-6.9566,-6.9699,-6.9798,-6.9798,-6.9798,-6.9798,-6.9798,-6.9798,-7.0063,-7.0659,-6.9484,-6.9091,-6.9447,-6.7301,-6.6311,0.0,0.0,0.0,0.0,0.0,0.0,0.0,0.0,0.0,0.0,0.0,0.0,0.0,0.0,0.0,0.0,0.0,0.0,0.0,0.0,0.0,0.0,0.0,0.0,0.0,0.0,0.0,0.0,0.0,-4.2618,-4.2618,-4.2618,-4.2618,-4.2618,-4.2618,-4.2618,-4.2618,-4.2618,-4.2555,-4.2524,-4.349,-4.4496,-4.5472,-4.603,-4.6071,-4.5713,-4.6491,-4.6633,-4.6613,-4.8025,-4.94,-5.0701,-5.1951,-5.2848,-5.3506,-5.4346,-5.4056,-5.3533,-5.4536,-5.4513,-5.4185,-5.5168,-5.5269,-5.5026,-5.5209,-5.4992,-5.4994,-5.6322,-5.6471,-5.6508,-5.7868,-5.8259,-5.8208,-5.7836,-5.8504,-5.9396,-6.0058,-6.0291,-6.075,-6.2049,-6.1965,-6.198,-6.3073,-6.2941,-6.2941,-6.3703,-6.4133,-6.4498,-6.4829,-6.5194,-6.569,-6.6452,-6.7181,-6.791,-6.8639,-6.9368,-6.9798,-6.9798,-6.9798,-6.9798,-6.9798,-6.9382,-6.9547,-7.0328,-7.0271,-7.0437,-7.0798,-6.9603,-6.8956,-6.8892,-6.766,-6.6698,0.0,0.0,0.0,0.0,0.0,0.0,0.0,0.0,0.0,0.0,0.0,0.0,0.0,0.0,0.0,0.0,0.0,0.0,0.0,0.0,0.0,0.0,0.0,0.0,0.0,0.0,0.0,0.0,0.0,-4.2618,-4.2618,-4.2618,-4.2618,-4.2618,-4.2618,-4.2618,-4.2618,-4.2618,-4.265,-4.265,-4.3709,-4.5006,-4.6413,-4.6248,-4.5929,-4.5608,-4.6745,-4.6914,-4.6684,-4.8428,-5.0134,-5.1685,-5.2483,-5.3753,-5.5113,-5.5389,-5.5086,-5.4595,-5.5262,-5.5086,-5.463,-5.5297,-5.5507,-5.5507,-5.5507,-5.5329,-5.5366,-5.6871,-5.6802,-5.6679,-5.808,-5.8201,-5.783,-5.7621,-5.8757,-5.9823,-5.9533,-5.9864,-6.0702,-6.2131,-6.2577,-6.2875,-6.3372,-6.357,-6.3835,-6.4465,-6.4564,-6.4763,-6.5326,-6.5425,-6.5757,-6.6618,-6.7281,-6.7976,-6.8804,-6.9434,-6.9798,-6.9798,-6.9703,-6.9607,-6.9607,-6.8895,-6.9156,-7.0469,-7.033,-7.0345,-7.0604,-6.9606,-6.8857,-6.8328,-6.8013,-6.7225,0.0,0.0,0.0,0.0,0.0,0.0,0.0,0.0,0.0,0.0,0.0,0.0,0.0,0.0,0.0,0.0,0.0,0.0,0.0,0.0,0.0,0.0,0.0,0.0,0.0,0.0,0.0,0.0,-4.2618,-4.2618,-4.2618,-4.2618,-4.2618,-4.2618,-4.2618,-4.2618,-4.2618,-4.2618,-4.2713,-4.2837,-4.3896,-4.4603,-4.4991,-4.556,-4.6452,-4.7539,-4.7077,-4.7495,-4.8596,-4.9127,-5.0592,-5.2542,-5.2984,-5.408,-5.5448,-5.5507,-5.5437,-5.5367,-5.5472,-5.5437,-5.5367,-5.5472,-5.5507,-5.5507,-5.5507,-5.5448,-5.5704,-5.6865,-5.7155,-5.7278,-5.808,-5.8681,-5.8767,-5.7607,-5.8819,-6.0031,-5.9352,-5.9624,-6.0622,-6.2709,-6.4133,-6.4829,-6.4332,-6.473,-6.516,-6.526,-6.5293,-6.5326,-6.5392,-6.5425,-6.5955,-6.7347,-6.7579,-6.8175,-6.9533,-6.9732,-6.9798,-6.9798,-6.9188,-6.8797,-6.8797,-6.8549,-6.846,-6.8763,-6.8652,-6.9221,-7.0471,-6.9002,-6.8564,-6.905,-6.7703,-6.6971,0.0,0.0,0.0,0.0,0.0,0.0,0.0,0.0,0.0,0.0,0.0,0.0,0.0,0.0,0.0,0.0,0.0,0.0,0.0,0.0,0.0,0.0,0.0,0.0,0.0,0.0,0.0,0.0,-4.2618,-4.2618,-4.2618,-4.2618,-4.2618,-4.2618,-4.2805,-4.2805,-4.2618,-4.299,-4.3295,-4.3568,-4.3986,-4.4623,-4.5261,-4.5042,-4.5275,-4.5892,-4.64,-4.6999,-4.7725,-4.8792,-5.0714,-5.2984,-5.3098,-5.4138,-5.5507,-5.5507,-5.5507,-5.5507,-5.5507,-5.5507,-5.5507,-5.5507,-5.5507,-5.5507,-5.5507,-5.5788,-5.629,-5.7254,-5.7631,-5.7863,-5.86,-5.8553,-5.8214,-5.7581,-5.8508,-5.9425,-5.9126,-5.9875,-6.1152,-6.2941,-6.4432,-6.5326,-6.5028,-6.5194,-6.5425,-6.5425,-6.5425,-6.5558,-6.5989,-6.6022,-6.6585,-6.8076,-6.8241,-6.8639,-6.9699,-6.9382,-6.9091,-6.9091,-6.8369,-6.7834,-6.7834,-6.7405,-6.7229,-6.7641,-6.8021,-6.8527,-6.916,-6.7995,-6.7796,-6.8448,-6.7711,-6.7289,0.0,0.0,0.0,0.0,0.0,0.0,0.0,0.0,0.0,0.0,0.0,0.0,0.0,0.0,0.0,0.0,0.0,0.0,0.0,0.0,0.0,0.0,0.0,0.0,0.0,0.0,0.0,0.0,-4.2618,-4.2618,-4.2618,-4.2618,-4.2618,-4.2743,-4.299,-4.3052,-4.2867,-4.3416,-4.3831,-4.4097,-4.4155,-4.463,-4.5341,-4.4619,-4.4248,-4.4212,-4.5551,-4.6591,-4.7282,-4.8471,-5.0502,-5.2874,-5.2874,-5.3717,-5.4911,-5.4911,-5.5051,-5.5227,-5.5227,-5.5332,-5.5507,-5.5507,-5.5507,-5.5507,-5.5507,-5.6034,-5.6771,-5.7579,-5.8037,-5.838,-5.9044,-5.8734,-5.8152,-5.8005,-5.8773,-5.9438,-5.9477,-6.0622,-6.198,-6.3073,-6.4432,-6.5425,-6.5425,-6.5425,-6.5425,-6.5425,-6.5591,-6.5889,-6.6452,-6.6684,-6.7281,-6.8539,-6.8672,-6.9003,-6.9732,-6.9091,-6.86,-6.86,-6.7631,-6.6982,-6.6982,-6.6205,-6.6027,-6.6558,-6.7058,-6.7495,-6.787,-6.7229,-6.7165,-6.7658,-6.7658,-6.7412,0.0,0.0,0.0,0.0,0.0,0.0,0.0,0.0,0.0,0.0,0.0,0.0,0.0,0.0,0.0,0.0,0.0,0.0,0.0,0.0,0.0,0.0,0.0,0.0,0.0,0.0,0.0,0.0,-4.2618,-4.2618,-4.2618,-4.2618,-4.2743,-4.3052,-4.3113,-4.3235,-4.3535,-4.3923,-4.4097,-4.4097,-4.4384,-4.453,-4.436,-4.4327,-4.4188,-4.3997,-4.4875,-4.6481,-4.8506,-4.8598,-4.9985,-5.2067,-5.2067,-5.2593,-5.3296,-5.3296,-5.3752,-5.4384,-5.4384,-5.4875,-5.5507,-5.5507,-5.5507,-5.5507,-5.5507,-5.6034,-5.6771,-5.7579,-5.8227,-5.8741,-5.8976,-5.9426,-5.9621,-5.9078,-6.0047,-6.1021,-6.0986,-6.2146,-6.3173,-6.3272,-6.4432,-6.5425,-6.5425,-6.5425,-6.5425,-6.5425,-6.6022,-6.6485,-6.6519,-6.7148,-6.7844,-6.8606,-6.8672,-6.9003,-6.9732,-6.9091,-6.86,-6.86,-6.7046,-6.6205,-6.6205,-6.5406,-6.5029,-6.506,-6.5091,-6.5738,-6.7033,-6.6919,-6.6919,-6.6981,-6.6981,-6.695,0.0,0.0,0.0,0.0,0.0,0.0,0.0,0.0,0.0,0.0,0.0,0.0,0.0,0.0,0.0,0.0,0.0,0.0,0.0,0.0,0.0,0.0,0.0,0.0,0.0,0.0,0.0,0.0,0.0,-4.268,-4.2929,-4.2929,-4.3052,-4.3416,-4.3654,-4.3889,-4.427,-4.4155,-4.4212,-4.4384,-4.4384,-4.4384,-4.4293,-4.4097,-4.4015,-4.3898,-4.4072,-4.5269,-4.7021,-4.7501,-4.9111,-5.1329,-5.1821,-5.2488,-5.319,-5.319,-5.3647,-5.4314,-5.4314,-5.484,-5.5507,-5.5507,-5.5507,-5.5507,-5.5507,-5.6034,-5.6771,-5.7579,-5.8164,-5.8676,-5.9342,-5.9633,-5.9822,-6.0333,-6.0791,-6.1244,-6.1461,-6.2414,-6.3272,-6.3272,-6.4432,-6.5425,-6.5425,-6.5425,-6.5425,-6.5425,-6.6055,-6.6684,-6.7181,-6.7844,-6.8606,-6.9334,-6.9401,-6.931,-6.9058,-6.8236,-6.7529,-6.7046,-6.5915,-6.5297,-6.5297,-6.5108,-6.4888,-6.4888,-6.4888,-6.5134,-6.5626,-6.5626,-6.5842,-6.6273,-6.6273,-6.6273,-2.3517,0.0,0.0,0.0,0.0,0.0,0.0,0.0,0.0,0.0,0.0,0.0,0.0,0.0,0.0,0.0,0.0,0.0,0.0,0.0,0.0,0.0,0.0,0.0,0.0,0.0,0.0,0.0,0.0,0.0,-4.2752,-4.2583,-4.2789,-4.3406,-4.3695,-4.4091,-4.4587,-4.4384,-4.4384,-4.4587,-4.4384,-4.4236,-4.4212,-4.4039,-4.3898,-4.378,-4.3687,-4.4615,-4.6122,-4.6657,-4.8259,-5.0557,-5.1049,-5.1716,-5.2418,-5.2418,-5.305,-5.3928,-5.3928,-5.463,-5.5507,-5.5507,-5.5507,-5.5507,-5.5507,-5.6034,-5.6771,-5.7579,-5.8101,-5.8577,-5.9539,-6.0012,-6.0553,-6.1763,-6.1877,-6.1782,-6.1896,-6.2515,-6.3145,-6.3325,-6.4233,-6.5127,-6.5359,-6.5425,-6.5425,-6.5425,-6.6055,-6.6784,-6.7546,-6.8241,-6.897,-6.9699,-6.9798,-6.9478,-6.8699,-6.7834,-6.6982,-6.6205,-6.5297,-6.4888,-6.4888,-6.4888,-6.4888,-6.4888,-6.4888,-6.4888,-6.4888,-6.4888,-6.5134,-6.5565,-6.5565,-6.5565,0.0,0.0,0.0,0.0,0.0,0.0,0.0,0.0,0.0,0.0,0.0,0.0,0.0,0.0,0.0,0.0,0.0,0.0,0.0,0.0,0.0,0.0,0.0,0.0,0.0,0.0,0.0,0.0,-4.0776,-4.1245,-4.1999,-4.1667,-4.1886,-4.2925,-4.3238,-4.3741,-4.4553,-4.4553,-4.4553,-4.4587,-4.4384,-4.4212,-4.4097,-4.4097,-4.3923,-4.3628,-4.3839,-4.4731,-4.6054,-4.6054,-4.7499,-4.9644,-4.9679,-5.0171,-5.0873,-5.0873,-5.1856,-5.319,-5.319,-5.4208,-5.5507,-5.5507,-5.5507,-5.5507,-5.5507,-5.5999,-5.6736,-5.7579,-5.8066,-5.8577,-5.9574,-6.0734,-6.1916,-6.3293,-6.3302,-6.2889,-6.2391,-6.2603,-6.2849,-6.3192,-6.3835,-6.4564,-6.5293,-6.5425,-6.5425,-6.5425,-6.6055,-6.6784,-6.7546,-6.8241,-6.897,-6.9699,-6.9798,-6.9382,-6.86,-6.7733,-6.6878,-6.6098,-6.5297,-6.4888,-6.4888,-6.4888,-6.4888,-6.4888,-6.4888,-6.4918,-6.4918,-6.4918,-6.4888,-6.4888,-6.4888,-6.4888,-2.2458,0.0,0.0,0.0,0.0,0.0,0.0,0.0,0.0,0.0,0.0,0.0,0.0,0.0,0.0,0.0,0.0,0.0,0.0,0.0,0.0,0.0,0.0,0.0,0.0,0.0,0.0,0.0,-4.0776,-4.1074,-4.1535,-4.1877,-4.2173,-4.2483,-4.2537,-4.2963,-4.3741,-4.3741,-4.4012,-4.4587,-4.427,-4.4155,-4.4097,-4.3864,-4.3687,-4.3628,-4.3628,-4.4279,-4.5268,-4.5849,-4.7188,-4.8907,-4.9469,-5.0171,-5.0873,-5.0873,-5.1856,-5.319,-5.319,-5.4208,-5.5507,-5.5507,-5.5507,-5.5507,-5.5507,-5.5648,-5.6009,-5.7281,-5.7555,-5.8094,-6.0324,-6.1363,-6.2092,-6.3328,-6.3526,-6.3302,-6.2889,-6.2561,-6.2623,-6.3178,-6.3868,-6.4597,-6.5293,-6.5425,-6.5425,-6.5425,-6.6055,-6.6784,-6.7546,-6.8241,-6.8781,-6.8928,-6.8896,-6.8369,-6.691,-6.6596,-6.6098,-6.5297,-6.4998,-6.4888,-6.4888,-6.4888,-6.4888,-6.4888,-6.4888,-6.5134,-6.5626,-6.5134,-6.4888,-6.4888,-6.4888,-6.4888,-2.3026,-2.3204,-2.318,0.0,0.0,0.0,-2.5879,-2.8833,0.0,0.0,0.0,0.0,0.0,0.0,0.0,0.0,0.0,0.0,0.0,0.0,0.0,0.0,0.0,0.0,0.0,-3.9379,-3.9664,-3.9895,-4.009,-4.037,-4.0842,-4.1485,-4.1847,-4.1847,-4.1847,-4.2185,-4.2929,-4.3267,-4.3639,-4.4113,-4.4135,-4.4097,-4.4097,-4.3805,-4.3687,-4.3628,-4.3687,-4.4064,-4.472,-4.5691,-4.7049,-4.8591,-4.9398,-5.0171,-5.0873,-5.0873,-5.1856,-5.319,-5.319,-5.4208,-5.5507,-5.5507,-5.5507,-5.5507,-5.5507,-5.5507,-5.5764,-5.7149,-5.7933,-5.8785,-6.0808,-6.1606,-6.2162,-6.3328,-6.36,-6.3526,-6.3076,-6.3128,-6.3283,-6.3517,-6.3776,-6.4233,-6.5227,-6.5425,-6.5425,-6.5425,-6.579,-6.632,-6.7082,-6.7777,-6.8225,-6.8177,-6.8405,-6.7967,-6.6205,-6.6098,-6.5808,-6.4998,-6.4888,-6.4888,-6.4888,-6.4888,-6.4888,-6.4888,-6.5165,-6.5503,-6.5903,-6.5226,-6.4888,-6.4888,-6.4888,-6.4888,-2.385,-2.3883,-2.3562,-2.2906,0.0,0.0,-2.5747,-2.7964,-3.0403,0.0,0.0,0.0,0.0,0.0,0.0,0.0,0.0,0.0,0.0,0.0,0.0,0.0,0.0,0.0,-3.8408,-3.8408,-3.8544,-3.8985,-3.9169,-3.954,-4.0087,-4.073,-4.1068,-4.1068,-4.1068,-4.1474,-4.2286,-4.2963,-4.3369,-4.3572,-4.391,-4.4097,-4.4097,-4.3956,-4.3747,-4.3628,-4.378,-4.4039,-4.4417,-4.5682,-4.7099,-4.8539,-4.9363,-5.0171,-5.0873,-5.0873,-5.1856,-5.319,-5.319,-5.4208,-5.5507,-5.5507,-5.5507,-5.5507,-5.5507,-5.5507,-5.5764,-5.7087,-5.8625,-6.0032,-6.105,-6.1606,-6.2162,-6.3328,-6.36,-6.3526,-6.3152,-6.3776,-6.4341,-6.4166,-6.3818,-6.3976,-6.5249,-6.5425,-6.5425,-6.5425,-6.5425,-6.569,-6.6419,-6.699,-6.7311,-6.733,-6.7882,-6.7567,-6.6098,-6.6054,-6.5825,-6.5011,-6.5072,-6.5134,-6.5134,-6.5134,-6.5134,-6.5134,-6.5719,-6.5934,-6.578,-6.5195,-6.4888,-6.4888,-6.4888,-6.4888,0.0,0.0,0.0,0.0,0.0,0.0,-2.4254,-2.6021,-2.7754,0.0,0.0,0.0,0.0,0.0,0.0,0.0,0.0,0.0,0.0,0.0,0.0,0.0,0.0,0.0,-3.8408,-3.8408,-3.8544,-3.8985,-3.9468,-3.9884,-4.0087,-4.0223,-4.029,-4.029,-4.029,-4.0933,-4.2286,-4.2422,-4.3132,-4.435,-4.4202,-4.4097,-4.4097,-4.3805,-4.3628,-4.3628,-4.3628,-4.3923,-4.4451,-4.6283,-4.7382,-4.8116,-4.9258,-5.0171,-5.0873,-5.0873,-5.1856,-5.319,-5.319,-5.4208,-5.5507,-5.5507,-5.5507,-5.5507,-5.5507,-5.5507,-5.5764,-5.6997,-5.8467,-5.9867,-6.098,-6.1606,-6.2162,-6.3328,-6.36,-6.36,-6.3673,-6.4111,-6.4572,-6.525,-6.5149,-6.5194,-6.6067,-6.5746,-6.5425,-6.5425,-6.5425,-6.569,-6.6419,-6.6067,-6.5964,-6.6442,-6.609,-6.5607,-6.5156,-6.5602,-6.5911,-6.5719,-6.6211,-6.6519,-6.6519,-6.6519,-6.6519,-6.6519,-6.6642,-6.618,-6.5103,-6.4949,-6.4888,-6.4888,-6.4888,-6.4888,0.0,0.0,0.0,-2.4118,0.0,0.0,0.0,-2.5835,-2.6936,-2.7766,0.0,0.0,0.0,0.0,0.0,0.0,0.0,0.0,0.0,0.0,0.0,0.0,0.0,0.0,-3.8375,-3.8408,-3.86,-3.9061,-3.9729,-4.0087,-4.0087,-4.0087,-4.0087,-4.0087,-4.0087,-4.0629,-4.1745,-4.2117,-4.2861,-4.4012,-4.4102,-4.4097,-4.4097,-4.3747,-4.3628,-4.3628,-4.3628,-4.3946,-4.4641,-4.6442,-4.7557,-4.8286,-4.9746,-5.0522,-5.0943,-5.1294,-5.2172,-5.3225,-5.3612,-5.4524,-5.5507,-5.5507,-5.5507,-5.5507,-5.5507,-5.5914,-5.6501,-5.7143,-5.8337,-5.9733,-6.098,-6.1535,-6.2092,-6.3328,-6.36,-6.36,-6.3747,-6.4611,-6.5619,-6.6075,-6.6548,-6.6766,-6.6424,-6.6148,-6.5834,-6.5425,-6.5425,-6.5558,-6.5922,-6.5614,-6.548,-6.566,-6.5362,-6.5058,-6.4936,-6.5226,-6.5411,-6.5411,-6.6027,-6.6396,-6.6396,-6.6396,-6.6396,-6.6396,-6.6088,-6.575,-6.5411,-6.5072,-6.4888,-6.4888,-6.4888,-6.4888,0.0,0.0,0.0,0.0,0.0,-2.4392,0.0,0.0,0.0,-2.7722,0.0,0.0,0.0,0.0,0.0,0.0,0.0,0.0,0.0,0.0,0.0,0.0,0.0,0.0,-3.7643,-3.7731,-3.8145,-3.9102,-3.9312,-3.9627,-4.0104,-4.0087,-4.0087,-4.0087,-4.0087,-4.0493,-4.1407,-4.1982,-4.276,-4.3639,-4.391,-4.4097,-4.4097,-4.3747,-4.3628,-4.3628,-4.3628,-4.4026,-4.4782,-4.6438,-4.7534,-4.846,-5.023,-5.0873,-5.0978,-5.1751,-5.2523,-5.3296,-5.4033,-5.484,-5.5507,-5.5507,-5.5507,-5.5543,-5.5683,-5.6353,-5.715,-5.7428,-5.8272,-5.9424,-6.0945,-6.1535,-6.1987,-6.3293,-6.3673,-6.3673,-6.3747,-6.504,-6.6342,-6.659,-6.7556,-6.8068,-6.6962,-6.666,-6.6406,-6.5658,-6.557,-6.5481,-6.5213,-6.5068,-6.4996,-6.498,-6.4736,-6.4689,-6.4936,-6.5011,-6.5103,-6.5103,-6.5719,-6.6088,-6.6088,-6.6088,-6.6027,-6.5903,-6.538,-6.5288,-6.5719,-6.5165,-6.4888,-6.4888,-6.4888,-6.4888,0.0,0.0,0.0,0.0,-2.4393,0.0,0.0,0.0,-2.4534,-2.4641,0.0,0.0,0.0,0.0,0.0,0.0,0.0,0.0,0.0,0.0,0.0,0.0,0.0,0.0,0.0,-3.5283,-3.6439,-3.9023,-3.7393,-3.742,-3.9968,-4.0087,-4.0087,-4.0087,-4.0087,-4.0764,-4.2151,-4.2252,-4.3031,-4.4451,-4.4236,-4.4097,-4.4097,-4.3747,-4.3628,-4.3628,-4.3628,-4.4026,-4.4815,-4.6025,-4.7242,-4.846,-5.023,-5.0873,-5.0978,-5.1751,-5.2523,-5.3296,-5.4033,-5.484,-5.5507,-5.5507,-5.5507,-5.5648,-5.628,-5.6353,-5.6523,-5.7915,-5.8307,-5.8834,-6.1017,-6.1745,-6.2197,-6.3546,-6.3854,-6.3892,-6.4109,-6.4841,-6.5715,-6.674,-6.7653,-6.8239,-6.818,-6.765,-6.7078,-6.6406,-6.632,-6.5888,-6.4545,-6.377,-6.3545,-6.4074,-6.3493,-6.358,-6.4795,-6.5442,-6.578,-6.578,-6.6427,-6.6796,-6.6796,-6.6796,-6.6519,-6.5903,-6.5842,-6.5534,-6.5011,-6.4949,-6.4888,-6.4888,-6.4888,-6.4888,0.0,0.0,0.0,0.0,0.0,0.0,-2.4746,0.0,-2.4229,0.0,0.0,0.0,0.0,0.0,0.0,0.0,-2.475,0.0,0.0,0.0,0.0,0.0,0.0,0.0,0.0,0.0,0.0,0.0,-3.8622,-3.8831,-4.002,-4.0087,-4.0087,-4.0087,-4.0493,-4.1238,-4.2286,-4.2726,-4.3504,-4.4587,-4.427,-4.4097,-4.4097,-4.3747,-4.3628,-4.3628,-4.4059,-4.4655,-4.5445,-4.6636,-4.7827,-4.9017,-5.0055,-5.0899,-5.1645,-5.2418,-5.319,-5.3963,-5.4735,-5.5227,-5.5507,-5.5507,-5.5507,-5.5648,-5.6265,-5.6641,-5.701,-5.7994,-5.8487,-5.9114,-6.1086,-6.1641,-6.2127,-6.3546,-6.3999,-6.4072,-6.4037,-6.4772,-6.5755,-6.6703,-6.7618,-6.839,-6.8903,-6.8397,-6.7731,-6.7078,-6.6287,-6.5592,-6.4967,-6.3483,-6.2888,-6.3869,-6.3326,-6.3379,-6.4764,-6.5165,-6.5319,-6.5319,-6.5965,-6.6334,-6.6334,-6.6334,-6.5996,-6.5349,-6.5319,-6.5165,-6.4888,-6.4888,-6.4888,-6.4888,-6.4888,-6.4888,-2.6134,0.0,0.0,0.0,0.0,0.0,0.0,0.0,0.0,0.0,0.0,0.0,0.0,0.0,-2.3648,-2.2567,0.0,-2.442,0.0,0.0,0.0,0.0,0.0,0.0,0.0,0.0,0.0,-3.8136,-3.8387,-3.9005,-4.002,-4.0087,-4.0087,-4.0087,-4.0595,-4.1339,-4.2286,-4.2774,-4.3551,-4.4497,-4.4212,-4.4039,-4.4073,-4.3747,-4.3628,-4.3661,-4.439,-4.5119,-4.591,-4.6982,-4.8152,-4.9256,-4.982,-5.0899,-5.2214,-5.2923,-5.3647,-5.4419,-5.5227,-5.5507,-5.5507,-5.5507,-5.5648,-5.5904,-5.6519,-5.6962,-5.7434,-5.8311,-5.8596,-5.9184,-6.119,-6.1641,-6.2127,-6.3655,-6.418,-6.4251,-6.4037,-6.4669,-6.5512,-6.6388,-6.7302,-6.8147,-6.8919,-6.8828,-6.8474,-6.7765,-6.6508,-6.5437,-6.5204,-6.3292,-6.2456,-6.3515,-6.3096,-6.3287,-6.4518,-6.4795,-6.4888,-6.4888,-6.5349,-6.5626,-6.5626,-6.5626,-6.5411,-6.4918,-6.4888,-6.4888,-6.4888,-6.4888,-6.4998,-6.5108,-6.5108,-6.5108,0.0,0.0,0.0,-2.5405,0.0,0.0,0.0,0.0,-2.4629,0.0,0.0,0.0,0.0,-2.4036,-2.3524,-2.1807,-2.2238,0.0,0.0,0.0,0.0,0.0,0.0,0.0,0.0,0.0,-3.1799,-3.5363,-3.5036,-3.6265,-3.9884,-4.0087,-4.0087,-4.0087,-4.0087,-4.0798,-4.2286,-4.2159,-4.2879,-4.4293,-4.4073,-4.3898,-4.3898,-4.3687,-4.3628,-4.3661,-4.439,-4.5119,-4.5847,-4.6576,-4.7625,-4.8769,-4.951,-5.0912,-5.2542,-5.3041,-5.3647,-5.4419,-5.5227,-5.5507,-5.5507,-5.5507,-5.5999,-5.6701,-5.7289,-5.7381,-5.7538,-5.89,-5.863,-5.8528,-6.1223,-6.1883,-6.2335,-6.3974,-6.4393,-6.4393,-6.4393,-6.4428,-6.4743,-6.5759,-6.6532,-6.7304,-6.8112,-6.8884,-6.9118,-6.8474,-6.7107,-6.5895,-6.5048,-6.3164,-6.2198,-6.258,-6.2743,-6.3102,-6.381,-6.4487,-6.4888,-6.4888,-6.4918,-6.4918,-6.4918,-6.4918,-6.4918,-6.4888,-6.4888,-6.4888,-6.4888,-6.4888,-6.5187,-6.57,-6.57,-6.57,0.0,0.0,-3.1678,-2.7618,0.0,0.0,0.0,0.0,0.0,0.0,0.0,0.0,0.0,-2.4153,-2.3785,-2.2514,-2.2528,-2.2129,0.0,0.0,0.0,0.0,0.0,0.0,0.0,0.0,0.0,-3.4566,-3.6455,-3.8227,-3.9986,-4.0087,-4.0087,-4.0087,-4.1035,-4.1831,-4.2445,-4.3158,-4.3844,-4.4463,-4.4039,-4.3898,-4.3898,-4.3687,-4.3893,-4.4357,-4.5086,-4.5847,-4.6576,-4.7305,-4.8058,-4.8769,-4.9544,-5.0697,-5.2131,-5.3038,-5.4091,-5.5156,-5.5402,-5.5507,-5.5578,-5.6069,-5.6385,-5.6781,-5.7764,-5.802,-5.8198,-5.8872,-5.8908,-5.9012,-6.0565,-6.1432,-6.2022,-6.244,-6.359,-6.4428,-6.3625,-6.4079,-6.4882,-6.5724,-6.6426,-6.7125,-6.8004,-6.8775,-6.8967,-6.8206,-6.6942,-6.5634,-6.4778,-6.326,-6.2468,-6.3028,-6.283,-6.3109,-6.4257,-6.4707,-6.4888,-6.4888,-6.4888,-6.4888,-6.4888,-6.4888,-6.4888,-6.4888,-6.4888,-6.4888,-6.4888,-6.5297,-6.5483,-6.57,-6.6448,-6.6659,-3.1515,-3.2896,0.0,-2.9656,-3.0179,0.0,-2.6569,0.0,0.0,0.0,0.0,0.0,0.0,0.0,-2.41,-2.3521,-2.2837,-2.1789,0.0,-1.953,0.0,0.0,0.0,0.0,0.0,0.0,-3.1598,-3.4095,-3.6219,-3.8241,-3.9986,-4.0087,-4.0087,-4.0087,-4.1271,-4.2068,-4.2464,-4.3394,-4.4024,-4.4406,-4.3981,-4.378,-4.378,-4.3953,-4.4257,-4.4754,-4.5748,-4.6444,-4.6974,-4.7703,-4.8329,-4.8952,-4.9624,-5.0719,-5.1911,-5.2929,-5.4113,-5.5269,-5.5729,-5.5894,-5.6034,-5.6771,-5.7167,-5.7491,-5.8189,-5.8546,-5.8758,-5.8699,-5.8874,-5.9184,-6.0043,-6.1083,-6.1883,-6.1814,-6.3309,-6.4427,-6.3311,-6.3973,-6.4846,-6.5268,-6.6073,-6.6802,-6.7143,-6.7933,-6.8474,-6.8014,-6.6777,-6.5634,-6.4869,-6.3356,-6.264,-6.3313,-6.3066,-6.338,-6.4546,-6.4785,-6.4888,-6.4888,-6.4888,-6.4888,-6.4888,-6.4888,-6.4888,-6.4888,-6.5108,-6.5108,-6.4888,-6.57,-6.6098,-6.6205,-6.7181,-6.7593]},{"header":{"parameterUnit":"m.s-1","parameterCategory":1,"la1":30.6,"la2":29.2853,"lo1":-89.7004,"lo2":-87.6739,"dy":0.0162,"dx":0.0183,"nx":112,"ny":82,"refTime":"2023-04-25T18:00:00:Z","depth":0,"parameterNumber":3,"parameterNumberName":"V-component_of_WINDS"},"data":[0.0,0.0,0.0,0.0,0.0,0.0,0.0,0.0,0.0,0.0,0.0,0.0,0.0,0.0,0.0,0.0,0.0,0.0,0.0,0.0,0.0,0.0,0.0,0.0,0.0,0.0,0.0,0.0,0.0,0.0,0.0,0.0,0.0,0.0,0.0,0.0,0.0,0.0,0.0,0.0,0.0,0.0,0.0,0.0,0.0,0.0,0.0,0.0,0.0,0.0,0.0,0.0,0.0,0.0,0.0,0.0,0.0,0.0,0.0,0.0,0.0,0.0,0.0,0.0,0.0,0.0,0.0,0.0,0.0,0.0,0.0,0.0,0.0,0.0,0.0,0.0,0.0,0.0,0.0,0.0,0.0,0.0,0.0,0.0,0.0,0.0,0.0,0.0,0.0,0.0,-2.3128,-2.4438,-2.7877,-2.9757,-2.8816,-2.8613,-2.6323,-2.1353,0.0,0.0,0.0,0.0,0.0,0.0,0.0,0.0,0.0,0.0,0.0,0.0,0.0,0.0,0.0,0.0,0.0,0.0,0.0,0.0,0.0,0.0,0.0,0.0,0.0,0.0,0.0,0.0,0.0,0.0,0.0,0.0,0.0,0.0,0.0,0.0,0.0,0.0,0.0,0.0,0.0,0.0,0.0,0.0,0.0,0.0,0.0,0.0,0.0,0.0,0.0,0.0,0.0,0.0,0.0,0.0,0.0,0.0,0.0,0.0,0.0,0.0,0.0,0.0,0.0,0.0,0.0,0.0,0.0,0.0,0.0,0.0,0.0,0.0,0.0,0.0,0.0,0.0,0.0,0.0,0.0,0.0,0.0,0.0,0.0,0.0,0.0,0.0,0.0,0.0,0.0,0.0,0.0,0.0,0.0,0.0,0.0,0.0,0.0,0.0,0.0,0.0,0.0,0.0,-2.3698,-2.7689,-2.8574,-2.8983,-2.9161,-2.8418,-2.6123,-2.1754,0.0,0.0,0.0,0.0,0.0,0.0,0.0,0.0,0.0,0.0,0.0,0.0,0.0,0.0,0.0,0.0,0.0,0.0,0.0,0.0,0.0,0.0,0.0,0.0,0.0,0.0,0.0,0.0,0.0,0.0,0.0,0.0,0.0,0.0,0.0,0.0,0.0,0.0,0.0,0.0,0.0,0.0,0.0,0.0,0.0,0.0,0.0,0.0,0.0,0.0,0.0,0.0,0.0,0.0,0.0,0.0,0.0,0.0,0.0,0.0,0.0,0.0,0.0,0.0,0.0,0.0,0.0,0.0,0.0,0.0,0.0,0.0,0.0,0.0,0.0,0.0,0.0,0.0,0.0,0.0,0.0,0.0,0.0,0.0,0.0,0.0,0.0,0.0,0.0,0.0,0.0,0.0,0.0,0.0,0.0,0.0,0.0,0.0,0.0,0.0,0.0,0.0,0.0,-2.2221,-2.4304,-2.8631,-2.8819,-2.8655,-2.8932,-2.8136,-2.5738,-2.1491,-2.077,0.0,0.0,0.0,0.0,0.0,0.0,0.0,0.0,0.0,0.0,0.0,0.0,0.0,0.0,0.0,0.0,0.0,0.0,0.0,0.0,0.0,0.0,0.0,0.0,0.0,0.0,0.0,0.0,0.0,0.0,0.0,0.0,0.0,0.0,0.0,0.0,0.0,0.0,0.0,0.0,0.0,0.0,0.0,0.0,0.0,0.0,0.0,0.0,0.0,0.0,0.0,0.0,0.0,0.0,0.0,0.0,0.0,0.0,0.0,0.0,0.0,0.0,0.0,0.0,0.0,0.0,0.0,0.0,0.0,0.0,0.0,0.0,0.0,0.0,0.0,0.0,0.0,0.0,0.0,0.0,0.0,0.0,0.0,0.0,0.0,0.0,0.0,0.0,0.0,0.0,0.0,0.0,0.0,0.0,0.0,0.0,0.0,0.0,0.0,0.0,0.0,0.0,-2.3834,-2.5523,-2.8582,-2.8728,-2.8566,-2.8462,-2.7798,-2.5543,-2.1188,-2.0521,0.0,0.0,0.0,0.0,0.0,0.0,0.0,0.0,0.0,0.0,0.0,0.0,0.0,0.0,0.0,0.0,0.0,0.0,0.0,0.0,0.0,0.0,0.0,0.0,0.0,0.0,0.0,0.0,0.0,0.0,0.0,0.0,0.0,0.0,0.0,0.0,0.0,0.0,0.0,0.0,0.0,0.0,0.0,0.0,0.0,0.0,0.0,0.0,0.0,0.0,0.0,0.0,0.0,0.0,0.0,0.0,0.0,0.0,0.0,0.0,0.0,0.0,0.0,0.0,0.0,0.0,0.0,0.0,0.0,0.0,0.0,0.0,0.0,0.0,0.0,0.0,0.0,0.0,0.0,0.0,0.0,0.0,0.0,0.0,0.0,0.0,0.0,0.0,0.0,0.0,0.0,0.0,0.0,0.0,0.0,0.0,0.0,0.0,0.0,0.0,0.0,0.0,-2.5357,-2.7607,-2.7676,-2.8243,-2.8442,-2.8007,-2.7883,-2.59,-2.1191,-2.0894,0.0,0.0,0.0,0.0,0.0,0.0,0.0,0.0,0.0,0.0,0.0,0.0,0.0,0.0,0.0,0.0,0.0,0.0,0.0,0.0,0.0,0.0,0.0,0.0,0.0,0.0,0.0,0.0,0.0,0.0,0.0,0.0,0.0,0.0,0.0,0.0,0.0,0.0,0.0,0.0,0.0,0.0,0.0,0.0,0.0,0.0,0.0,0.0,0.0,0.0,0.0,0.0,0.0,0.0,0.0,0.0,0.0,0.0,0.0,0.0,0.0,0.0,0.0,0.0,0.0,0.0,0.0,0.0,0.0,0.0,0.0,0.0,0.0,0.0,0.0,0.0,0.0,0.0,0.0,0.0,0.0,0.0,0.0,0.0,0.0,0.0,0.0,0.0,0.0,0.0,0.0,0.0,0.0,0.0,0.0,0.0,0.0,0.0,0.0,0.0,0.0,0.0,-2.4762,-2.6676,0.0,-2.7492,-2.7626,-2.7924,-2.7482,-2.5422,-2.1173,0.0,0.0,0.0,0.0,0.0,0.0,0.0,0.0,0.0,0.0,0.0,0.0,0.0,0.0,0.0,0.0,0.0,0.0,0.0,0.0,0.0,0.0,0.0,0.0,0.0,0.0,0.0,0.0,0.0,0.0,0.0,0.0,0.0,0.0,0.0,0.0,0.0,0.0,0.0,0.0,0.0,0.0,0.0,0.0,0.0,0.0,0.0,0.0,0.0,0.0,0.0,0.0,0.0,0.0,0.0,0.0,0.0,0.0,0.0,0.0,0.0,0.0,0.0,0.0,0.0,0.0,0.0,0.0,0.0,0.0,0.0,0.0,0.0,0.0,0.0,0.0,0.0,0.0,0.0,0.0,0.0,0.0,0.0,0.0,0.0,0.0,0.0,0.0,0.0,0.0,0.0,0.0,0.0,0.0,0.0,0.0,0.0,0.0,0.0,0.0,0.0,0.0,-2.2461,-2.4804,-2.6606,0.0,-2.711,-2.7069,-2.7406,-2.7064,-2.5078,-2.1251,0.0,0.0,0.0,0.0,0.0,0.0,0.0,0.0,0.0,0.0,0.0,0.0,0.0,0.0,0.0,0.0,0.0,0.0,0.0,0.0,0.0,0.0,0.0,0.0,0.0,0.0,0.0,0.0,0.0,0.0,0.0,0.0,0.0,0.0,0.0,0.0,0.0,0.0,0.0,0.0,0.0,0.0,0.0,0.0,0.0,0.0,0.0,0.0,0.0,0.0,0.0,0.0,0.0,0.0,0.0,0.0,0.0,0.0,0.0,0.0,0.0,0.0,0.0,0.0,0.0,0.0,0.0,0.0,0.0,0.0,0.0,0.0,0.0,0.0,0.0,0.0,0.0,0.0,0.0,0.0,0.0,0.0,0.0,0.0,0.0,0.0,0.0,0.0,0.0,0.0,0.0,0.0,0.0,0.0,0.0,0.0,0.0,0.0,0.0,0.0,0.0,0.0,-2.2688,-2.5953,-2.7977,-2.7241,-2.7171,-2.6979,-2.6536,-2.6496,-2.4987,0.0,0.0,0.0,0.0,0.0,0.0,0.0,0.0,0.0,0.0,0.0,0.0,0.0,0.0,0.0,0.0,0.0,0.0,0.0,0.0,0.0,0.0,0.0,0.0,0.0,0.0,0.0,0.0,0.0,0.0,0.0,0.0,0.0,0.0,0.0,0.0,0.0,0.0,0.0,0.0,0.0,0.0,0.0,0.0,0.0,0.0,0.0,0.0,0.0,0.0,0.0,0.0,0.0,0.0,0.0,0.0,0.0,0.0,0.0,0.0,0.0,0.0,0.0,0.0,0.0,0.0,0.0,0.0,0.0,0.0,0.0,0.0,0.0,0.0,0.0,0.0,0.0,0.0,0.0,0.0,0.0,0.0,0.0,0.0,0.0,0.0,0.0,0.0,0.0,0.0,0.0,0.0,0.0,0.0,0.0,0.0,0.0,0.0,0.0,0.0,0.0,0.0,0.0,-2.2042,-2.553,-2.7715,-2.6572,-2.6403,-2.6443,-2.6516,-2.6304,-2.4786,-2.1426,0.0,0.0,0.0,0.0,0.0,0.0,0.0,0.0,0.0,0.0,0.0,0.0,0.0,0.0,0.0,0.0,0.0,0.0,0.0,0.0,0.0,0.0,0.0,0.0,0.0,0.0,0.0,0.0,0.0,0.0,0.0,0.0,0.0,0.0,0.0,0.0,0.0,0.0,0.0,0.0,0.0,0.0,0.0,0.0,0.0,0.0,0.0,0.0,0.0,0.0,0.0,0.0,0.0,0.0,0.0,0.0,0.0,0.0,0.0,0.0,0.0,0.0,0.0,0.0,0.0,0.0,0.0,0.0,0.0,0.0,0.0,0.0,0.0,0.0,0.0,0.0,0.0,0.0,0.0,0.0,0.0,0.0,0.0,0.0,0.0,0.0,0.0,0.0,0.0,0.0,0.0,0.0,0.0,0.0,0.0,0.0,0.0,0.0,0.0,0.0,0.0,0.0,-2.2761,-2.6084,-2.7998,-2.6955,-2.6734,-2.6641,-2.6486,-2.6428,-2.5263,-2.2529,0.0,0.0,0.0,0.0,0.0,0.0,0.0,0.0,0.0,0.0,0.0,0.0,0.0,0.0,0.0,0.0,0.0,0.0,0.0,0.0,0.0,0.0,0.0,0.0,0.0,0.0,0.0,0.0,0.0,0.0,0.0,0.0,0.0,0.0,0.0,0.0,0.0,0.0,0.0,0.0,0.0,0.0,0.0,0.0,0.0,0.0,0.0,0.0,0.0,0.0,0.0,0.0,0.0,0.0,0.0,0.0,0.0,0.0,0.0,0.0,0.0,0.0,0.0,0.0,0.0,0.0,0.0,0.0,0.0,0.0,0.0,0.0,0.0,0.0,0.0,0.0,0.0,0.0,0.0,0.0,0.0,0.0,0.0,0.0,0.0,0.0,0.0,0.0,0.0,0.0,0.0,0.0,0.0,0.0,0.0,0.0,0.0,0.0,0.0,0.0,0.0,0.0,-2.4342,-2.7217,-2.8833,-2.8125,-2.7717,-2.7299,-2.6545,-2.6797,-2.6192,-2.4416,0.0,0.0,0.0,0.0,0.0,0.0,0.0,0.0,0.0,0.0,0.0,0.0,0.0,0.0,0.0,0.0,0.0,0.0,0.0,0.0,0.0,0.0,0.0,0.0,0.0,0.0,0.0,0.0,0.0,0.0,0.0,0.0,0.0,0.0,0.0,0.0,0.0,0.0,0.0,0.0,0.0,0.0,0.0,0.0,0.0,0.0,0.0,0.0,0.0,0.0,0.0,0.0,0.0,0.0,0.0,0.0,0.0,0.0,0.0,0.0,-2.565,0.0,0.0,0.0,0.0,0.0,0.0,0.0,0.0,0.0,0.0,0.0,0.0,0.0,0.0,0.0,0.0,0.0,0.0,0.0,0.0,0.0,0.0,0.0,0.0,0.0,0.0,0.0,0.0,0.0,0.0,0.0,0.0,0.0,0.0,0.0,0.0,0.0,0.0,0.0,0.0,0.0,-2.4041,-2.7367,-2.9371,-2.8375,-2.8202,-2.7763,-2.6976,-2.6973,-2.6329,-2.4854,-2.4036,0.0,0.0,0.0,0.0,0.0,0.0,0.0,0.0,0.0,0.0,0.0,0.0,0.0,0.0,0.0,0.0,0.0,0.0,0.0,0.0,0.0,0.0,0.0,0.0,0.0,0.0,0.0,0.0,0.0,0.0,0.0,0.0,0.0,0.0,0.0,0.0,0.0,0.0,0.0,0.0,0.0,0.0,0.0,0.0,0.0,0.0,0.0,0.0,0.0,0.0,0.0,0.0,0.0,0.0,0.0,0.0,0.0,0.0,0.0,0.0,-2.6486,0.0,0.0,0.0,0.0,0.0,0.0,0.0,0.0,0.0,0.0,0.0,0.0,0.0,0.0,0.0,0.0,0.0,0.0,0.0,0.0,0.0,0.0,0.0,0.0,0.0,0.0,0.0,0.0,0.0,0.0,0.0,0.0,0.0,0.0,0.0,0.0,0.0,0.0,0.0,0.0,-2.5408,-2.9038,-3.0909,-2.9321,-2.9328,-2.886,-2.7447,-2.7519,-2.7251,-2.633,-2.5506,0.0,0.0,0.0,0.0,0.0,0.0,0.0,0.0,0.0,0.0,0.0,0.0,0.0,0.0,0.0,0.0,0.0,0.0,0.0,0.0,0.0,0.0,0.0,0.0,0.0,0.0,0.0,0.0,0.0,0.0,0.0,0.0,0.0,0.0,0.0,0.0,0.0,0.0,0.0,0.0,0.0,0.0,0.0,0.0,0.0,0.0,0.0,0.0,0.0,0.0,0.0,0.0,0.0,-2.9161,-2.9875,-3.1039,-3.1138,-3.2081,-3.3476,-3.0516,-2.9664,-3.0152,-2.6868,0.0,0.0,0.0,0.0,0.0,0.0,0.0,0.0,0.0,0.0,0.0,0.0,0.0,0.0,0.0,0.0,0.0,0.0,0.0,0.0,0.0,0.0,0.0,0.0,-3.0636,-3.1344,-2.9236,0.0,0.0,0.0,0.0,0.0,0.0,0.0,0.0,0.0,0.0,0.0,-2.769,-3.1018,-3.242,-3.0563,-3.0575,-2.9932,-2.8121,-2.8125,-2.8144,-2.7793,-2.696,-2.6074,0.0,0.0,0.0,0.0,0.0,0.0,0.0,0.0,0.0,0.0,0.0,0.0,0.0,0.0,0.0,0.0,0.0,0.0,0.0,0.0,0.0,0.0,0.0,0.0,0.0,0.0,0.0,0.0,0.0,0.0,0.0,0.0,-2.4915,-2.535,0.0,0.0,0.0,0.0,0.0,0.0,0.0,0.0,0.0,0.0,0.0,0.0,0.0,-2.7797,-2.788,-3.0524,-3.1936,-3.2089,-3.4303,-3.5554,-3.6039,-3.6467,-3.677,-3.7013,-3.6532,0.0,-3.282,-3.1246,0.0,0.0,0.0,0.0,0.0,0.0,0.0,0.0,0.0,0.0,0.0,0.0,0.0,0.0,0.0,0.0,0.0,0.0,0.0,0.0,0.0,0.0,-3.3961,-3.4985,-3.5453,-3.5502,0.0,-3.1298,-2.8309,-2.8683,-2.8578,0.0,0.0,0.0,0.0,0.0,0.0,0.0,-3.0101,-3.1802,-3.2427,-3.1295,-3.0704,-2.989,-2.8859,-2.8476,-2.8262,-2.8203,-2.8047,-2.7369,-2.5994,-2.5757,0.0,0.0,0.0,0.0,0.0,0.0,0.0,0.0,0.0,0.0,0.0,0.0,0.0,0.0,0.0,0.0,0.0,0.0,0.0,0.0,0.0,0.0,0.0,0.0,0.0,0.0,0.0,0.0,0.0,-2.2638,-2.401,-2.3941,-2.3747,-2.2763,0.0,0.0,0.0,0.0,0.0,0.0,0.0,0.0,0.0,-3.0543,-3.1097,-3.1882,-3.3059,-3.4193,-3.5244,-3.6091,-3.7011,-3.7907,-3.8739,-3.8995,-3.9053,-3.9011,-3.9024,-3.8256,-3.675,-3.379,-3.1271,-2.9123,0.0,0.0,0.0,0.0,-2.7664,-2.8186,-3.1349,-3.2273,-3.1915,-3.0495,0.0,0.0,0.0,0.0,0.0,0.0,0.0,0.0,0.0,0.0,-3.3441,-3.5819,-3.6208,-3.6069,-3.577,-3.4489,-3.2878,0.0,-2.9489,-2.7742,-2.4725,0.0,0.0,0.0,0.0,-2.9486,-3.0544,-3.2396,-3.2918,-3.0998,-3.0508,-2.9783,-2.8702,-2.8398,-2.8301,-2.8301,-2.8516,-2.8203,-2.731,-2.6901,-2.6011,0.0,0.0,0.0,0.0,0.0,0.0,0.0,0.0,0.0,0.0,0.0,0.0,0.0,0.0,0.0,0.0,0.0,0.0,0.0,0.0,0.0,0.0,0.0,0.0,0.0,0.0,0.0,0.0,-2.3317,-2.4431,-2.3576,-2.4685,-2.4334,0.0,0.0,0.0,0.0,0.0,0.0,-2.99,-2.9636,-3.1068,-3.4718,-3.4949,-3.5798,-3.7464,-3.7487,-3.8076,-3.9337,-3.9033,-3.9538,-4.0612,-4.0612,-4.0612,-4.0612,-4.0612,-4.0365,-3.9801,-3.6049,-3.3762,-3.2472,-3.0643,-2.9498,-2.9084,-3.0173,-3.0699,-3.1282,-3.4313,-3.5368,-3.5182,-3.447,-3.3482,-3.2377,-3.0813,0.0,0.0,0.0,0.0,-2.9487,-3.2921,-3.3408,-3.3649,-3.6257,-3.6697,-3.6494,-3.6309,-3.6215,-3.5409,0.0,-3.1399,-2.9555,-2.6472,0.0,0.0,0.0,0.0,-3.1157,-3.1064,-3.2498,-3.2641,-3.0648,-3.0262,-2.9707,-2.876,-2.8516,-2.8398,-2.8301,-2.8594,-2.8613,-2.8301,-2.7878,-2.7334,-2.6566,0.0,0.0,0.0,0.0,0.0,0.0,0.0,0.0,0.0,0.0,0.0,0.0,0.0,0.0,0.0,0.0,0.0,0.0,0.0,0.0,0.0,0.0,0.0,0.0,0.0,0.0,0.0,0.0,0.0,-2.6515,-2.8836,0.0,0.0,0.0,0.0,-2.7571,-2.8376,-3.0499,-3.425,-3.4061,-3.5175,-3.8271,-3.8923,-3.9179,-3.9092,-4.0011,-4.0686,-4.096,-4.096,-4.1308,-4.2005,-4.2005,-4.2005,-4.2005,-4.2005,-4.1546,-4.055,-3.8563,-3.6413,-3.4242,-3.3354,-3.1529,-2.9781,-3.337,-3.4125,-3.3852,-3.7201,-3.8055,-3.726,-3.459,-3.194,-3.0077,-3.2128,-3.0846,0.0,0.0,-3.2205,-3.2326,-3.5704,-3.6912,-3.7495,-3.8155,-3.8066,-3.8001,-3.854,-3.5247,-3.306,0.0,-3.5956,-3.5083,-3.2512,0.0,-3.1502,-3.141,-3.0521,-3.0555,-3.2391,-3.1763,-3.1011,-3.084,-3.0067,-2.9643,-2.9512,-2.9121,-2.8711,-2.832,-2.832,-2.832,-2.8301,-2.8633,-2.8153,-2.6586,-2.7001,0.0,0.0,0.0,0.0,0.0,0.0,0.0,0.0,0.0,0.0,0.0,0.0,0.0,0.0,0.0,0.0,0.0,0.0,0.0,0.0,0.0,0.0,0.0,0.0,0.0,0.0,0.0,0.0,-2.7594,-3.0556,0.0,-2.9145,-3.0778,-3.2019,-3.2178,-3.4047,-3.6179,-3.8371,-3.8182,-3.9052,-4.1321,-4.1099,-4.1085,-4.1418,-4.1522,-4.1878,-4.2324,-4.2324,-4.2673,-4.3311,-4.2876,-4.2673,-4.2644,-4.2266,-4.2179,-4.2042,-4.0535,-3.8899,-3.7409,-3.6688,-3.5825,-3.5128,-3.6275,-3.6556,-3.6479,-3.8069,-3.8372,-3.7769,-3.6753,-3.5745,-3.5089,-3.5885,-3.4889,-3.3776,-3.5089,-3.5058,-3.5009,-3.6959,-3.7518,-3.7871,-3.8688,-3.8868,-3.8664,-3.804,-3.71,-3.6303,-3.631,-3.4758,-3.3343,-3.265,-3.3683,-3.4096,-3.2466,-3.3252,-3.3675,-3.2987,-3.2529,-3.1629,-3.0147,-2.9793,-2.957,-2.957,-2.9434,-2.916,-2.8711,-2.8965,-2.8984,-2.8711,-2.9101,-2.918,-2.8937,-2.9639,-2.8347,0.0,0.0,0.0,0.0,0.0,0.0,0.0,0.0,0.0,0.0,0.0,0.0,0.0,0.0,0.0,0.0,0.0,0.0,0.0,0.0,0.0,0.0,0.0,0.0,0.0,0.0,-3.1297,-2.9312,-3.3096,-3.5002,-3.2644,-3.4938,-3.6682,-3.7075,-3.9036,-4.0721,-4.1903,-4.1717,-4.2077,-4.3438,-4.2841,-4.2562,-4.2767,-4.2548,-4.2498,-4.2702,-4.2905,-4.3224,-4.366,-4.3427,-4.3195,-4.2963,-4.2557,-4.2498,-4.256,-4.1369,-4.0492,-3.9872,-3.9169,-3.869,-3.8351,-3.8488,-3.8448,-3.8371,-3.8856,-3.8658,-3.8214,-3.8423,-3.8344,-3.8161,-3.8161,-3.7753,-3.7268,-3.7547,-3.7442,-3.7397,-3.8277,-3.8489,-3.8672,-3.944,-3.9573,-3.9297,-3.8194,-3.8161,-3.795,-3.658,-3.4713,-3.3571,-3.3775,-3.5152,-3.529,-3.2323,-3.3763,-3.4139,-3.1296,-3.1412,-3.1268,-2.9898,-2.9785,-2.9785,-2.9785,-2.9094,-2.878,-2.9101,-2.8702,-2.8643,-2.9121,-2.8819,-2.8721,-2.8996,-2.9884,-2.9394,-2.7393,0.0,0.0,0.0,0.0,0.0,0.0,0.0,0.0,0.0,0.0,0.0,0.0,0.0,0.0,0.0,0.0,0.0,0.0,0.0,0.0,0.0,0.0,0.0,-2.8207,-3.0994,-3.2942,-3.2012,-3.677,-3.9141,-3.6562,-3.8834,-4.0939,-4.2077,-4.2762,-4.3656,-4.4874,-4.4516,-4.4398,-4.4589,-4.4225,-4.3689,-4.305,-4.3021,-4.2731,-4.2179,-4.276,-4.305,-4.3108,-4.3747,-4.366,-4.305,-4.3021,-4.2702,-4.2096,-4.1142,-4.1022,-4.1439,-4.0639,-3.9744,-3.8916,-3.9907,-3.9981,-3.9625,-3.9625,-3.9233,-3.8867,-3.9416,-3.9207,-3.8736,-3.8736,-3.9155,-3.9494,-3.8893,-3.9155,-3.9625,-3.9625,-4.0017,-4.0409,-4.0435,-4.0282,-3.9853,-3.9,-3.8161,-3.7203,-3.6363,-3.6277,-3.6277,-3.6277,-3.6277,-3.5001,-3.1281,-3.2001,0.0,-2.7897,-2.8785,-2.9858,-3.0078,-3.0098,-3.0098,-3.0117,-2.7917,-2.7511,-2.9453,-2.7471,-2.7196,-2.9492,-2.7806,-2.6784,-2.6784,-2.7713,-2.8894,-3.0586,0.0,0.0,0.0,0.0,0.0,0.0,0.0,0.0,0.0,0.0,0.0,0.0,0.0,0.0,0.0,0.0,0.0,0.0,0.0,0.0,0.0,0.0,-3.2516,-3.2282,-3.5182,-3.7593,-3.8345,-4.0637,-4.1839,-4.129,-4.3002,-4.4004,-4.368,-4.4557,-4.5126,-4.5112,-4.471,-4.4736,-4.5302,-4.4469,-4.4124,-4.4356,-4.3456,-4.3369,-4.4124,-4.3834,-4.4211,-4.5082,-4.4763,-4.4531,-4.4327,-4.3342,-4.305,-4.3247,-4.1865,-4.142,-4.1474,-4.0118,-3.9799,-3.9881,-3.9849,-3.9957,-4.0148,-3.973,-3.9756,-3.9913,-3.9677,-3.9494,-3.9364,-3.9364,-3.9468,-3.9477,-3.8595,-3.8962,-3.9607,-3.9385,-3.9887,-4.0514,-4.0958,-4.0565,-3.9853,-3.9,-3.8161,-3.7073,-3.5576,-3.5245,-3.5466,-3.6168,-3.6277,-3.5933,-3.4863,-3.5092,0.0,-3.2168,-3.228,-3.1491,-2.8818,-2.8259,-2.8199,-2.8514,-2.7609,-2.7944,-2.9883,-2.9668,-2.9741,-3.0,-2.9785,-3.0298,-3.1688,-3.0809,-3.0773,0.0,0.0,0.0,0.0,0.0,0.0,0.0,0.0,0.0,0.0,0.0,0.0,0.0,0.0,0.0,0.0,0.0,0.0,0.0,0.0,0.0,0.0,-3.3216,-3.6321,-3.7724,-3.9504,-4.1085,-4.2212,-4.3365,-4.4278,-4.4433,-4.5135,-4.5475,-4.5177,-4.5779,-4.6011,-4.5747,-4.552,-4.5531,-4.5693,-4.5084,-4.4821,-4.4879,-4.4153,-4.4037,-4.4501,-4.4414,-4.4618,-4.5082,-4.5227,-4.5024,-4.4501,-4.3564,-4.3296,-4.3229,-4.1758,-4.126,0.0,0.0,0.0,0.0,0.0,-4.0514,-4.0749,-4.0435,-4.0357,-4.0409,-4.0357,-4.0148,-3.9842,-3.955,-3.9829,-4.0057,-3.8987,-3.9509,-4.0311,-4.0102,-4.0179,-4.0256,-4.0262,-3.9827,-3.9104,-3.7477,-3.7049,-3.6426,-3.4692,-3.4692,0.0,-3.5157,-3.5157,-3.4843,-3.3802,-3.4139,-3.3812,-3.1761,-3.2093,-3.1625,-2.9341,-2.8878,-2.8819,-2.9074,-2.7963,0.0,0.0,0.0,-2.9251,-2.8976,-2.956,0.0,0.0,0.0,-3.2085,-3.3765,0.0,0.0,0.0,-3.0409,-2.9777,0.0,0.0,0.0,0.0,0.0,0.0,0.0,0.0,0.0,0.0,0.0,0.0,0.0,0.0,0.0,0.0,-3.7227,-4.0747,-4.3468,-4.3704,-4.3797,-4.4156,-4.5213,-4.6052,-4.6133,-4.5867,-4.589,-4.6406,-4.6461,-4.6461,-4.6436,0.0,0.0,0.0,0.0,-4.5605,-4.4995,-4.4937,-4.4647,-4.4211,-4.4676,-4.4647,-4.424,-4.5459,-4.5285,-4.395,-4.3901,-4.3426,-4.2598,-4.1191,-4.1004,-4.1443,-4.1314,-4.0984,-4.0592,-4.1115,-4.1324,-4.1324,-4.1324,0.0,0.0,-4.1141,-4.0859,-4.0218,-3.9497,-4.0182,-4.0893,-3.9549,-4.0081,-4.1097,-4.0896,-4.0364,-3.9519,-3.8613,-3.8428,-3.769,-3.5266,-3.5398,-3.5421,-3.3797,-3.4022,-3.4357,-3.348,-3.3572,-3.3181,-3.0838,-3.1761,-3.1816,-2.9559,-3.0399,-3.1112,-3.0703,0.0,0.0,-3.0664,-2.8604,-2.8455,-3.0879,-2.8917,-2.7688,-2.7688,-2.8574,-2.9488,-3.0435,-3.1283,-3.3333,-3.6438,-3.6392,-3.6346,-3.6254,-3.1089,-3.0045,0.0,0.0,0.0,0.0,0.0,0.0,0.0,0.0,0.0,0.0,0.0,0.0,0.0,0.0,0.0,-3.5629,-3.9564,-4.3137,-4.5898,-4.6996,-4.6885,-4.5414,-4.5853,-4.6167,-4.5998,-4.6591,-4.6691,-4.602,-4.6304,-4.633,-4.602,-4.6019,-4.599,-4.5871,-4.5898,-4.5837,-4.5692,-4.514,-4.5082,-4.5518,0.0,0.0,-4.5547,-4.6301,-4.5681,-4.3991,-4.4237,-4.3436,-4.1815,-4.1338,-4.1235,-4.1366,-4.1272,-4.1246,-4.1167,-4.1272,-4.1324,-4.1324,-4.1324,-4.1246,-4.1167,-4.1272,-4.0818,-4.0109,-4.0007,-4.0084,0.0,-3.9187,-3.9546,-3.9955,-3.8509,-3.8089,-3.7748,-3.6764,-3.6117,-3.5376,-3.4936,-3.4425,-3.3797,-3.2664,-3.255,-3.2457,-3.1556,-3.3797,-3.5395,-3.4161,-3.4888,-3.498,-3.3338,-3.335,-3.255,-2.9806,-2.9223,-2.9164,-2.9518,-2.875,-2.927,-3.1758,-3.1113,-3.0644,-3.0644,-3.1204,-3.2176,-3.3407,-3.3945,-3.5286,-3.7494,-3.7081,-3.6897,-3.6851,-3.5344,-3.5184,0.0,0.0,0.0,0.0,0.0,0.0,0.0,0.0,0.0,0.0,0.0,-2.72,0.0,0.0,-3.5836,-3.9788,-4.3117,-4.5556,-4.6598,-4.8118,-4.8477,-4.6803,-4.6745,-4.6695,-4.6312,-4.6315,-4.6225,-4.5895,-4.5991,-4.5962,-4.5866,-4.6225,-4.6225,-4.5895,-4.6185,-4.6214,-4.5895,-4.5547,-4.5547,-4.5895,-4.5866,-4.5866,-4.5924,-4.6882,-4.6397,-4.4797,-4.4844,-4.4053,-4.236,-4.1597,-4.1324,-4.1324,-4.1324,-4.1324,-4.1324,-4.1324,-4.1324,-4.1324,-4.1324,-4.0997,-4.0694,-4.0694,-3.9827,-3.8693,-3.8472,-3.8477,-3.83,-3.7618,-3.7843,-3.8221,-3.7235,-3.6577,-3.5899,-3.5024,-3.4515,-3.3979,-3.3098,-3.2892,-3.2685,-3.1787,-3.1883,-3.1883,-3.0995,-3.3329,-3.4865,-3.3727,-3.3763,-3.3769,-3.3559,-3.332,-3.2549,-3.0876,-3.0486,-3.0447,-3.0662,-3.0466,-3.0897,-3.209,-3.1953,-3.1836,-3.1836,-3.2434,-3.3217,-3.3914,-3.4611,-3.5659,-3.7086,-3.6838,-3.6952,-3.7402,-3.715,-3.7035,0.0,0.0,0.0,0.0,0.0,0.0,0.0,0.0,-2.4474,-2.7285,-2.9143,-3.1293,-3.4688,-3.7135,-4.0011,-4.3913,-4.6157,-4.7415,-4.7494,-4.8468,-4.884,-4.8102,-4.7703,-4.7168,-4.6372,-4.5892,-4.5739,-4.5714,-4.571,-4.5797,-4.5888,-4.6264,-4.635,-4.609,-4.6437,-4.6466,-4.609,-4.6061,-4.6061,-4.609,-4.6674,-4.6674,-4.621,-4.7247,-4.6804,-4.5222,-4.4581,-4.3796,-4.2831,-4.1808,-4.1324,-4.1324,-4.1428,-4.1402,-4.1324,-4.1324,-4.1198,-4.1097,-4.1097,-4.0491,-3.9853,-3.9853,-3.8767,-3.7382,-3.7025,-3.6859,-3.674,-3.6152,-3.6294,-3.6473,-3.6156,-3.517,-3.4069,-3.3191,-3.2985,-3.2685,-3.1228,-3.1441,-3.1787,-3.0995,-3.1441,-3.1672,-3.0995,-3.2499,-3.3339,-3.2526,-3.229,-3.2355,-3.3048,-3.2775,-3.2568,-3.2402,-3.2422,-3.2422,-3.2422,-3.2422,-3.2422,-3.2422,-3.2344,-3.2285,-3.2285,-3.2914,-3.3376,-3.3697,-3.431,-3.5136,-3.618,-3.6092,-3.6445,-3.7156,-3.7269,-3.7269,-1.5871,-1.6574,-1.9173,-2.2923,-2.3592,-2.4822,0.0,0.0,-3.2139,-3.4604,-3.7395,-3.961,-4.0213,-4.1967,-4.4083,-4.6269,-4.672,-4.7782,-5.0726,-4.9004,-4.7851,-4.9014,-4.7999,-4.6745,-4.5379,-4.593,-4.6045,-4.5258,-4.5959,-4.6275,-4.6089,-4.5602,-4.5802,-4.689,-4.6432,-4.6432,-4.6919,-4.6919,-4.6919,-4.6919,-4.7195,-4.7289,-4.7232,-4.7413,-4.618,-4.3737,-4.1325,-4.071,-4.1503,-4.135,-4.1324,-4.135,-4.1873,-4.1768,-4.1324,-4.1324,-4.0795,-4.0287,-4.0287,-3.9647,-3.8896,-3.8896,-3.8267,-3.7501,-3.7453,-3.7429,-3.7299,-3.6372,-3.6264,-3.5876,-3.4316,-3.3149,-3.2207,-3.1441,-3.1228,-3.1112,-3.0879,-3.1015,-3.0995,-3.0898,-3.1015,-3.0995,-3.0898,-3.1348,-3.2077,-3.2723,-3.3796,-3.4449,-3.4044,-3.4004,-3.384,-3.3368,-3.3281,-3.3281,-3.3281,-3.3281,-3.3281,-3.3281,-3.293,-3.2734,-3.2734,-3.2485,-3.2953,-3.4187,-3.3899,-3.4357,-3.5712,-3.5307,-3.4996,-3.4683,-3.5134,-3.6479,-2.0334,-2.0844,-2.2193,0.0,-2.7228,-2.8938,-3.2411,-3.3878,-3.5424,-3.8499,-4.1076,-4.3021,-4.3815,-4.5141,-4.6511,0.0,-4.805,-4.8292,-4.8865,-4.7852,-4.6719,-4.5544,-4.5364,-4.5207,-4.511,-4.5616,-4.573,-4.5167,-4.5645,-4.5844,-4.5567,-4.5967,-4.6109,-4.5938,-4.6738,-4.6938,-4.6509,-4.6852,-4.6852,-4.6509,-4.7415,-4.7463,-4.6764,-4.7332,-4.6308,-4.3949,-4.1928,-4.1376,-4.1794,-4.1455,-4.1324,-4.135,-4.1585,-4.1533,-4.1224,-4.0795,-4.0389,-4.0032,-3.9168,-3.8325,-3.7549,-3.7236,-3.6284,-3.5123,-3.5123,-3.4803,-3.4244,-3.392,-3.3704,-3.3236,-3.2567,-3.1909,-3.1344,-3.0995,-3.0898,-3.0898,-3.0898,-3.0898,-3.0898,-3.0898,-3.0898,-3.0976,-3.1211,-3.1621,-3.2093,-3.2693,-3.3357,-3.3659,-3.3371,-3.361,-3.3598,-3.3398,-3.3418,-3.3418,-3.3418,-3.3418,-3.3418,-3.3418,-3.3262,-3.3164,-3.3164,-3.2988,-3.3237,-3.3769,-3.359,-3.3942,-3.4856,-3.4669,-3.4694,-3.4795,-3.5008,-3.5703,-2.2138,-2.3364,-2.4723,-2.8107,-3.0762,-3.3021,-3.4846,-3.6594,-3.8672,-4.1576,-4.3758,-4.5372,-4.5988,-4.7138,-4.8071,-4.8451,-4.8656,-4.8364,-4.7366,-4.6432,-4.5219,-4.3158,-4.2923,-4.3324,-4.401,-4.4975,-4.5279,-4.489,-4.5364,-4.5591,-4.5401,-4.5978,-4.6206,-4.5884,-4.6974,-4.723,-4.669,-4.7048,-4.7048,-4.669,-4.7863,-4.7869,-4.6658,-4.6783,-4.5788,-4.3899,-4.2387,-4.169,-4.1638,-4.0906,-4.0775,-4.1063,-4.1063,-4.1167,-4.1198,-4.016,-3.9649,-3.9293,-3.7965,-3.6859,-3.5981,-3.5514,-3.4471,-3.342,-3.342,-3.2987,-3.2462,-3.2243,-3.1919,-3.1625,-3.1398,-3.1087,-3.0898,-3.0898,-3.0898,-3.0898,-3.0898,-3.0898,-3.0898,-3.0898,-3.0976,-3.1152,-3.1465,-3.1973,-3.2441,-3.2754,-3.2891,-3.2969,-3.2969,-3.3242,-3.3418,-3.3418,-3.3418,-3.3418,-3.3418,-3.3418,-3.3418,-3.3418,-3.3418,-3.3418,-3.3418,-3.3418,-3.3359,-3.3242,-3.3242,-3.3361,-3.3538,-3.3538,-3.3656,-3.3914,-3.4039,-3.4331,-1.8349,-2.163,-2.5233,-3.0472,-3.3984,-3.6953,-4.0248,-4.1927,-4.3152,-4.4489,-4.6354,-4.7549,-4.663,-4.7788,-4.8733,-4.8372,-4.776,-4.7392,-4.7904,-4.4938,-4.2984,-4.3574,-4.1995,-4.1025,0.0,-4.363,-4.4705,-4.4425,-4.5176,-4.5892,-4.6195,-4.5099,-4.5549,-4.7937,-4.6897,-4.6869,-4.8021,-4.805,-4.805,-4.805,-4.8553,-4.8453,-4.7587,-4.5956,-4.4356,-4.2918,-4.1219,-4.0461,-4.0383,-3.9259,-3.9442,-4.0435,-4.0435,-4.0801,-4.1097,-3.9415,-3.8472,-3.7873,-3.6647,-3.5346,-3.4185,-3.3849,-3.3642,-3.3529,-3.3529,-3.3529,-3.3304,-3.2416,-3.2187,-3.1977,-3.1092,-3.0879,-3.0898,-3.0898,-3.0898,-3.0898,-3.0898,-3.0898,-3.0898,-3.0898,-3.1211,-3.1504,-3.1523,-3.2207,-3.2773,-3.2793,-3.3144,-3.3398,-3.3398,-3.3418,-3.3418,-3.3418,-3.3418,-3.3418,-3.3418,-3.3418,-3.3418,-3.3418,-3.3418,-3.3418,-3.3418,-3.3418,-3.3223,-3.2832,-3.2812,-3.2402,-3.1562,-3.1562,-3.1348,-3.1054,-3.1466,-3.1897,-2.2261,-2.6269,-3.0454,-3.5281,-3.8297,-4.0812,-4.3193,-4.5092,-4.6408,-4.6684,-4.5153,-4.3582,-4.2652,-4.2757,-4.3002,-4.2864,-4.4624,-4.5959,-4.5698,-4.3856,-4.2209,-4.1199,-4.0859,0.0,0.0,0.0,0.0,-4.3778,-4.4462,-4.5081,-4.5633,-4.5661,-4.6055,-4.6897,-4.7291,-4.7516,-4.7516,-4.7909,-4.7909,-4.7516,-4.6883,-4.6448,-4.588,-4.4383,-4.3282,-4.2396,-4.1428,-4.101,-4.0984,-4.0592,-4.0671,-4.101,-4.101,-4.0815,-4.0338,-3.8811,-3.7497,-3.6288,-3.5222,-3.4333,-3.3526,-3.2812,-3.2657,-3.259,-3.2238,-3.223,-3.2066,-3.1476,-3.1344,-3.1228,-3.1015,-3.0898,-3.0898,-3.0898,-3.0898,-3.0898,-3.0898,-3.0898,-3.0976,-3.125,-3.1426,-3.1699,-3.2266,-3.2598,-3.2891,-3.3164,-3.332,-3.3418,-3.3418,-3.3418,-3.3418,-3.3418,-3.3418,-3.3418,-3.3418,-3.3418,-3.3418,-3.3418,-3.3418,-3.3418,-3.3418,-3.3418,-3.3359,-3.3203,-3.3203,-3.293,-3.2363,-3.2363,-3.2148,-3.1738,-3.1875,-3.2168,-2.6483,-3.061,-3.4502,-3.9209,-4.1763,-4.3489,-4.5001,-4.6444,-4.7229,-4.6389,-4.3438,-4.0523,-3.9216,-3.8733,-3.8296,-3.7575,-4.0106,-4.2281,-4.2478,-4.1171,-4.0125,-4.0294,-4.0154,-3.9985,0.0,0.0,0.0,-4.3076,-4.3947,-4.4678,-4.5296,-4.5942,-4.6504,-4.6926,-4.7516,-4.7712,-4.7544,-4.7937,-4.7808,-4.7186,-4.5962,-4.5311,-4.5179,-4.4098,-4.3206,-4.2448,-4.1873,-4.1376,-4.0984,-4.0775,-4.0827,-4.0984,-4.0984,-4.0614,-3.993,-3.8708,-3.6964,-3.5201,-3.4136,-3.3334,-3.2663,-3.1913,-3.1705,-3.1676,-3.156,-3.1471,-3.1456,-3.1329,-3.123,-3.1113,-3.1113,-3.0996,-3.0898,-3.0898,-3.0898,-3.0898,-3.0898,-3.0898,-3.1016,-3.1445,-3.1641,-3.1973,-3.2676,-3.293,-3.3105,-3.3379,-3.3418,-3.3418,-3.3418,-3.3418,-3.3418,-3.3418,-3.3418,-3.3418,-3.3418,-3.3418,-3.3418,-3.3418,-3.3418,-3.3418,-3.3418,-3.3418,-3.3359,-3.3203,-3.3203,-3.2988,-3.2578,-3.2578,-3.2422,-3.2168,-3.2324,-3.2539,-3.0762,-3.4437,-3.7387,-4.2021,-4.4132,-4.5191,-4.5849,-4.6272,-4.5912,-4.3932,-4.1102,-3.8253,0.0,0.0,-3.4745,-3.2956,-3.4884,-3.7171,-3.8977,-3.7381,-3.7354,0.0,0.0,0.0,0.0,0.0,0.0,-4.2486,0.0,-4.465,-4.5352,-4.5998,-4.6897,-4.8078,-4.7544,-4.7544,-4.8106,-4.8032,-4.7773,-4.7102,-4.5741,-4.5182,-4.5395,-4.4833,-4.4016,-4.2997,-4.2396,-4.1481,-4.0435,-3.9913,-3.9991,-4.0461,-4.0461,-4.0304,-3.9955,-3.908,-3.7044,-3.4598,-3.3225,-3.2243,-3.1594,-3.1047,-3.0898,-3.0996,-3.1406,-3.1543,-3.1641,-3.2051,-3.1875,-3.1543,-3.1523,-3.123,-3.0937,-3.0898,-3.0918,-3.0918,-3.0898,-3.0898,-3.1016,-3.1465,-3.1914,-3.2363,-3.2754,-3.3164,-3.3418,-3.3418,-3.3418,-3.3418,-3.3418,-3.3418,-3.3418,-3.3418,-3.3418,-3.3418,-3.3418,-3.3418,-3.3418,-3.3418,-3.3418,-3.3418,-3.3418,-3.3418,-3.3242,-3.2832,-3.2832,-3.2637,-3.2226,-3.2226,-3.2246,-3.2266,-3.2656,-3.2851,-3.4552,-3.8275,-4.1826,-4.4507,-4.5144,-4.5244,-4.6383,-4.5897,-4.4167,-4.0447,-3.6011,-3.1625,0.0,0.0,0.0,-3.0729,-3.6851,0.0,-4.1682,-4.159,0.0,-4.1477,0.0,-4.1502,-4.1165,-4.1587,0.0,0.0,-4.3554,-4.4425,-4.597,-4.6645,-4.7319,-4.8106,-4.7965,-4.7965,-4.8134,-4.7494,-4.6846,-4.6296,-4.5129,-4.4518,-4.4561,-4.3389,-4.2892,-4.2971,-4.1977,-4.135,-4.1063,-4.0932,-4.0958,-4.1089,-4.1089,-4.0236,-3.908,-3.8452,-3.6449,-3.3876,-3.2749,-3.173,-3.1023,-3.0952,-3.1094,-3.1367,-3.1484,-3.1738,-3.2031,-3.2148,-3.209,-3.1934,-3.1601,-3.168,-3.168,-3.1035,-3.1133,-3.1269,-3.0957,-3.0898,-3.1113,-3.1855,-3.2598,-3.3144,-3.3242,-3.3359,-3.3418,-3.3418,-3.3418,-3.3418,-3.3418,-3.3418,-3.3418,-3.3418,-3.3418,-3.3418,-3.3418,-3.3418,-3.3418,-3.3418,-3.3418,-3.3418,-3.3418,-3.3418,-3.3379,-3.3262,-3.3262,-3.3203,-3.3105,-3.3105,-3.3262,-3.3574,-3.3359,-3.3594,-3.8568,-4.1512,-4.3805,-4.5841,-4.5832,-4.5072,-4.3637,-4.2663,-4.0497,-3.5178,-3.0624,0.0,-2.3843,0.0,0.0,0.0,0.0,0.0,-4.0407,-4.0742,-4.1303,0.0,-4.2603,0.0,-4.2064,-4.2598,-4.3245,0.0,-4.4144,-4.4874,-4.6223,-4.7122,-4.7769,-4.8106,-4.8134,-4.7903,-4.7494,-4.6296,-4.5422,-4.4864,-4.4251,-4.3609,-4.3239,-4.2732,-4.2502,-4.2424,0.0,-4.1458,-4.1324,-4.1324,-4.1324,-4.1324,-4.1324,-4.0262,-3.8742,-3.8447,-3.6273,-3.3332,-3.2916,-3.174,-3.0338,-3.0466,-3.0742,-3.1016,-3.1406,-3.1816,-3.2207,-3.2383,-3.2441,-3.2383,-3.2148,-3.2129,-3.2051,-3.1562,-3.1621,-3.1738,-3.1504,-3.1445,-3.166,-3.2305,-3.2969,-3.3418,-3.3418,-3.3418,-3.3418,-3.3418,-3.3418,-3.3418,-3.3418,-3.3418,-3.3418,-3.3418,-3.3418,-3.3418,-3.3418,-3.3418,-3.3418,-3.3418,-3.3418,-3.3418,-3.3418,-3.3418,-3.3516,-3.3711,-3.3711,-3.3711,-3.3711,-3.3887,-3.4023,-3.4082,-3.4004,-3.4238,-4.2048,-4.386,-4.46,-4.605,-4.5929,-4.4187,-3.9654,-3.8121,-3.58,-2.923,0.0,-2.3413,-2.1795,-2.3356,-2.4759,-2.4476,0.0,-3.4413,-3.8042,-3.8417,-3.9704,-4.346,-4.3223,-4.2851,-4.2935,-4.3413,-4.4031,-4.4734,-4.5268,-4.583,-4.6392,-4.7516,-4.8134,-4.8134,-4.8004,-4.7596,-4.6846,-4.5048,-4.395,-4.3536,-4.322,-4.2721,-4.191,-4.2537,-4.2365,-4.1776,-4.1698,-4.1464,-4.1224,-4.1198,-4.1198,-4.1097,-4.1097,-4.016,-3.8582,-3.8613,-3.6186,-3.2997,-3.3295,-3.1778,-2.9726,-3.0156,-3.0293,-3.0449,-3.1328,-3.1914,-3.2344,-3.2754,-3.2871,-3.2871,-3.2812,-3.2559,-3.2305,-3.2207,-3.2207,-3.2246,-3.2187,-3.2207,-3.2363,-3.2734,-3.3144,-3.3418,-3.3418,-3.3418,-3.3418,-3.3418,-3.3418,-3.3418,-3.3418,-3.3418,-3.3418,-3.3418,-3.3418,-3.3418,-3.3418,-3.3418,-3.3437,-3.3496,-3.3516,-3.3535,-3.3594,-3.3594,-3.3769,-3.4141,-3.416,-3.416,-3.416,-3.4531,-3.4551,-3.4258,-3.4551,-3.4766,-4.2228,-4.447,-4.597,-4.4543,-4.3512,-4.1872,-3.7974,-3.4981,0.0,0.0,-2.3455,-2.158,-1.8166,-2.0744,-2.4235,-2.6951,0.0,0.0,0.0,0.0,-4.2964,0.0,0.0,0.0,0.0,0.0,0.0,0.0,0.0,-4.6926,-4.7038,-4.774,-4.8134,-4.8134,-4.7391,-4.695,-4.6846,-4.4652,-4.3743,-4.4106,-4.2633,-4.2189,-4.2442,-4.1817,-4.1516,-4.1415,-4.0952,0.0,-4.072,-4.0896,-4.0567,-3.993,-4.016,-3.9208,-3.769,-3.7259,-3.558,-3.3359,-3.2657,-3.1449,-3.0156,-3.0625,-3.0762,-3.0937,-3.1797,-3.2344,-3.2773,-3.3184,-3.332,-3.3242,-3.2891,-3.3008,-3.3027,-3.2344,-3.2441,-3.2598,-3.2246,-3.2441,-3.2715,-3.2793,-3.3144,-3.3418,-3.3418,-3.3418,-3.3418,-3.3418,-3.3418,-3.3418,-3.3418,-3.3418,-3.3418,-3.3418,-3.3418,-3.3418,-3.3418,-3.3418,-3.3574,-3.3945,-3.3965,-3.4121,-3.4453,-3.4473,-3.4512,-3.459,-3.459,-3.459,-3.459,-3.4668,-3.4863,-3.5156,-3.4844,-3.5098,-4.2091,-4.3622,-4.4377,-4.3398,-4.2144,-3.9731,-3.437,0.0,0.0,0.0,-2.0097,-1.9248,-1.7343,0.0,0.0,0.0,0.0,0.0,0.0,0.0,0.0,0.0,0.0,0.0,0.0,0.0,0.0,0.0,0.0,-4.7347,-4.7656,-4.7965,-4.7903,-4.7494,-4.661,-4.5818,-4.4997,-4.3562,-4.2633,-4.2327,-4.2055,-4.1821,-4.1518,-4.1372,-4.1199,-4.1078,-4.0542,0.0,-4.0058,-4.0134,-3.9827,-3.9208,-3.9312,-3.8687,-3.7453,-3.6954,-3.5472,-3.3487,-3.2785,-3.1461,-3.0312,-3.0996,-3.1074,-3.1016,-3.1641,-3.2285,-3.2832,-3.3047,-3.3242,-3.3379,-3.3164,-3.3262,-3.332,-3.291,-3.2969,-3.3008,-3.2578,-3.2832,-3.3125,-3.3125,-3.3281,-3.3418,-3.3418,-3.3418,-3.3418,-3.3418,-3.3418,-3.3418,-3.3418,-3.3613,-3.3672,-3.3437,-3.3418,-3.3516,-3.375,-3.375,-3.3945,-3.4375,-3.4394,-3.4492,-3.4687,-3.4707,-3.4805,-3.5059,-3.5059,-3.5059,-3.5059,-3.5273,-3.5391,-3.5391,-3.5391,-3.5605,-4.1452,-4.2532,-4.2819,-4.2234,-4.0858,-3.7868,-3.0979,-2.7849,0.0,0.0,-1.757,-1.7476,-1.737,0.0,-2.1643,0.0,0.0,0.0,0.0,0.0,0.0,0.0,0.0,0.0,0.0,0.0,0.0,0.0,0.0,0.0,-4.7605,-4.7948,-4.7596,-4.6506,-4.5713,-4.4705,-4.3433,-4.2341,-4.148,-4.0877,-4.163,-4.158,-4.0877,-4.1204,-4.1028,-4.0555,-4.0105,0.0,-3.9312,-3.9312,-3.8926,-3.8307,-3.8307,-3.7887,-3.6968,-3.6578,-3.5233,-3.3657,-3.2971,-3.1851,-3.0723,-3.1328,-3.123,-3.0996,-3.1601,-3.2266,-3.2812,-3.291,-3.3164,-3.3418,-3.3418,-3.3418,-3.3398,-3.3301,-3.3281,-3.3203,-3.2871,-3.3066,-3.332,-3.3398,-3.3418,-3.3418,-3.3418,-3.3418,-3.3418,-3.3418,-3.3418,-3.3457,-3.3555,-3.3867,-3.3984,-3.373,-3.3691,-3.3828,-3.418,-3.4219,-3.4394,-3.4824,-3.4844,-3.4883,-3.498,-3.498,-3.5156,-3.5527,-3.5527,-3.5527,-3.5527,-3.5859,-3.5859,-3.5527,-3.5859,-3.6016,-3.9918,-4.242,-4.3615,-4.0648,-3.9082,-3.6574,-2.9528,0.0,0.0,-1.8628,-1.757,-1.737,-1.6863,-1.7329,-1.8879,-2.2115,-2.3366,-2.6767,0.0,0.0,0.0,0.0,0.0,0.0,0.0,0.0,0.0,0.0,0.0,0.0,-4.6154,-4.7392,-4.7363,-4.5714,-4.5022,-4.4309,-4.3433,-4.158,-4.1128,-4.2007,-4.1605,-4.163,-4.1982,-4.1555,-4.0707,-3.9816,-3.9167,0.0,0.0,-3.8396,-3.779,-3.6625,-3.6835,-3.6414,-3.5626,-3.5143,-3.4645,-3.4082,-3.3077,-3.2486,-3.1934,-3.1621,-3.123,-3.1113,-3.2324,-3.2734,-3.2871,-3.3262,-3.3398,-3.3418,-3.3418,-3.3418,-3.332,-3.2949,-3.2851,-3.2851,-3.2793,-3.2832,-3.2969,-3.334,-3.3418,-3.3418,-3.3418,-3.3418,-3.3418,-3.3418,-3.3418,-3.3555,-3.3965,-3.4043,-3.4199,-3.4551,-3.459,-3.4609,-3.4629,-3.4648,-3.4844,-3.5293,-3.5332,-3.5508,-3.5879,-3.5898,-3.5918,-3.5957,-3.5957,-3.5957,-3.5957,-3.5996,-3.5996,-3.5957,-3.5996,-3.6016,-3.824,-4.0447,-4.1133,-3.9501,-3.67,-3.3144,-2.8384,0.0,-2.1475,-1.8434,-1.772,-1.7476,-1.7074,-1.7001,-1.7573,-1.943,-2.0527,0.0,0.0,0.0,0.0,0.0,0.0,0.0,0.0,0.0,0.0,0.0,0.0,0.0,-4.4362,-4.5735,-4.5953,-4.4778,-4.4568,-4.3695,-4.2195,-4.1336,-4.0902,-4.0676,-4.1128,-4.1455,-4.1656,-4.1106,-4.0557,-4.007,-3.8892,0.0,0.0,-3.7548,-3.6921,-3.5839,-3.5945,-3.5839,-3.5344,-3.4313,-3.4054,-3.401,-3.2538,-3.2105,-3.209,-3.166,-3.1582,-3.1797,-3.2559,-3.2969,-3.3203,-3.3379,-3.3418,-3.3418,-3.3418,-3.3418,-3.332,-3.2891,-3.2793,-3.2793,-3.2793,-3.2793,-3.293,-3.334,-3.3418,-3.3418,-3.3418,-3.3418,-3.3418,-3.3418,-3.3652,-3.3887,-3.4043,-3.4531,-3.4941,-3.5098,-3.4863,-3.4805,-3.5098,-3.5117,-3.5312,-3.5742,-3.5762,-3.584,-3.6016,-3.6016,-3.6016,-3.6016,-3.6016,-3.6016,-3.6016,-3.6016,-3.6016,-3.6016,-3.6016,-3.6016,-3.5496,-3.8017,-3.9155,-3.8397,-3.4999,-3.0895,0.0,0.0,-2.038,-1.8078,-1.7679,-1.7597,-1.7073,-1.6879,-1.6928,-1.7333,-1.8313,-2.0114,-2.3272,0.0,0.0,0.0,0.0,0.0,0.0,0.0,0.0,0.0,0.0,0.0,-4.3666,-4.417,-4.4379,-4.3932,-4.3842,-4.2951,-4.1354,-4.1028,-4.0551,-3.9948,-4.0727,-4.1146,-4.123,-4.0582,-4.0183,-3.9819,-3.8323,0.0,0.0,-3.6633,-3.607,-3.5313,-3.5313,-3.5313,-3.5161,-3.4084,-3.3855,-3.3916,-3.2344,-3.1876,-3.209,-3.166,-3.1816,-3.2226,-3.2519,-3.2812,-3.3066,-3.3203,-3.332,-3.3418,-3.3418,-3.3418,-3.332,-3.2891,-3.2793,-3.2793,-3.2793,-3.2793,-3.293,-3.334,-3.3418,-3.3418,-3.3418,-3.3418,-3.3457,-3.3594,-3.3887,-3.416,-3.4434,-3.5,-3.5449,-3.5566,-3.5293,-3.5215,-3.5547,-3.5586,-3.5703,-3.5996,-3.6016,-3.6016,-3.6016,-3.6016,-3.6016,-3.6016,-3.6016,-3.6016,-3.6016,-3.6016,-3.6016,-3.6016,-3.6152,-3.6152,-3.1084,-3.5331,-3.8449,-3.7299,-3.4424,-3.069,0.0,0.0,-2.0237,-1.748,-1.7432,-1.7638,-1.6693,-1.6795,-1.6845,-1.629,-1.6618,-1.8166,-2.1624,0.0,0.0,0.0,0.0,0.0,0.0,0.0,0.0,0.0,0.0,0.0,-4.437,-4.2983,-4.2519,-4.2961,-4.2772,-4.2182,-4.1329,-4.0249,-3.9973,-4.0501,-4.0526,-4.0757,-4.1225,-4.0144,-3.9382,0.0,0.0,0.0,0.0,-3.5726,-3.5244,-3.4808,-3.4808,-3.4808,-3.4749,-3.4352,-3.4137,-3.3959,-3.2715,-3.2233,-3.209,-3.166,-3.1816,-3.2168,-3.2168,-3.2187,-3.2266,-3.2676,-3.3105,-3.3418,-3.3418,-3.3418,-3.332,-3.2891,-3.2793,-3.2793,-3.2793,-3.2793,-3.293,-3.334,-3.3418,-3.3418,-3.3418,-3.3418,-3.3574,-3.4004,-3.4082,-3.4394,-3.5273,-3.5391,-3.5547,-3.5976,-3.6016,-3.6016,-3.6016,-3.6016,-3.6016,-3.6016,-3.6016,-3.6016,-3.6016,-3.6016,-3.6016,-3.6016,-3.6016,-3.6016,-3.6016,-3.6016,-3.6016,-3.6016,-3.6403,-3.6654,-2.6058,-2.8298,-2.9378,-2.9303,-2.6696,-2.3779,-2.2387,0.0,-1.7415,-1.6647,-1.671,-1.671,-1.5888,-1.5888,-1.5993,-1.5986,-1.6309,-1.6991,-1.8182,0.0,0.0,0.0,0.0,0.0,0.0,0.0,0.0,0.0,0.0,0.0,-4.3406,-4.2679,-4.2409,-4.2961,-4.2587,-4.203,-4.1354,-4.1003,-4.0315,-3.9322,-3.9798,-3.9824,-3.9601,-3.8827,-3.8452,0.0,0.0,0.0,0.0,-3.6094,-3.5749,-3.529,-3.529,-3.529,-3.5207,-3.4486,-3.4137,-3.3959,-3.2715,-3.2253,-3.2051,-3.1328,-3.1387,-3.166,-3.1387,-3.1699,-3.2207,-3.2324,-3.2461,-3.2637,-3.293,-3.2988,-3.3027,-3.3184,-3.3008,-3.2871,-3.3164,-3.3008,-3.293,-3.334,-3.3418,-3.3418,-3.3418,-3.3418,-3.3574,-3.4004,-3.4316,-3.4726,-3.5312,-3.5644,-3.5879,-3.6016,-3.6016,-3.6016,-3.6016,-3.6016,-3.6016,-3.6016,-3.6016,-3.6016,-3.6016,-3.6016,-3.6016,-3.6016,-3.6016,-3.6016,-3.6016,-3.6016,-3.6152,-3.6403,-3.6674,-3.7079,0.0,-2.3725,-2.5025,-2.508,-2.2809,0.0,0.0,0.0,-1.6064,-1.5932,-1.6219,-1.6262,-1.549,-1.5468,-1.5541,-1.5427,-1.5969,-1.6637,-1.7412,0.0,0.0,0.0,0.0,0.0,0.0,0.0,0.0,0.0,0.0,0.0,-4.2961,-4.1813,-4.1529,-4.2635,-4.1932,-4.1272,-4.0707,-4.0483,-3.9717,-3.8526,-3.8867,-3.8897,-3.8442,-3.7925,-3.7645,0.0,0.0,0.0,0.0,-3.6071,-3.5795,-3.552,-3.552,-3.5306,-3.4899,-3.4186,-3.3733,-3.3288,-3.2099,-3.1681,-3.1601,-3.1074,-3.1074,-3.123,-3.0976,-3.1387,-3.1914,-3.1914,-3.2148,-3.2461,-3.2734,-3.291,-3.3105,-3.3359,-3.3223,-3.3105,-3.3359,-3.3223,-3.3105,-3.3379,-3.3418,-3.3418,-3.3418,-3.3555,-3.3809,-3.4238,-3.4687,-3.5117,-3.5566,-3.5859,-3.6016,-3.6016,-3.6016,-3.6016,-3.6016,-3.6016,-3.6016,-3.6016,-3.6016,-3.6016,-3.6016,-3.6016,-3.6016,-3.6016,-3.6016,-3.6016,-3.6016,-3.6152,-3.6403,-3.6924,-3.7213,-3.7482,0.0,-2.0831,-2.3904,0.0,0.0,0.0,0.0,0.0,0.0,-1.5357,-1.5869,-1.6175,-1.5449,-1.5447,-1.5357,-1.4808,-1.5665,-1.7019,0.0,0.0,0.0,0.0,0.0,0.0,0.0,0.0,0.0,0.0,0.0,0.0,-4.2724,-4.0439,-4.007,-4.2007,-4.0896,-4.0159,-3.9734,-3.9136,-3.855,-3.7974,-3.7974,-3.7917,-3.7715,-3.7247,-3.6967,0.0,0.0,0.0,0.0,-3.5772,-3.5566,-3.5566,-3.5459,-3.4922,-3.4207,-3.3759,-3.3027,-3.2113,-3.1228,-3.0995,-3.0898,-3.0898,-3.0898,-3.0898,-3.0898,-3.1172,-3.1484,-3.1504,-3.209,-3.2715,-3.2773,-3.3086,-3.3379,-3.3418,-3.3418,-3.3418,-3.3418,-3.3418,-3.3418,-3.3418,-3.3418,-3.3437,-3.3457,-3.3809,-3.4219,-3.4687,-3.5117,-3.5547,-3.5976,-3.6016,-3.6016,-3.6016,-3.6016,-3.6016,-3.6016,-3.6016,-3.6016,-3.6016,-3.6016,-3.6016,-3.6016,-3.6016,-3.6016,-3.6016,-3.6016,-3.6016,-3.6016,-3.6403,-3.6944,-3.7677,-3.7636,-3.7924,-1.2936,0.0,-1.5247,-1.591,-1.5633,-1.5241,0.0,0.0,0.0,0.0,0.0,0.0,0.0,-1.5198,-1.5244,-1.5995,-1.6264,-1.7134,-1.9521,0.0,0.0,0.0,0.0,0.0,0.0,0.0,0.0,0.0,0.0,-4.0298,-4.0697,-3.9395,-3.908,-4.0236,-3.9169,-3.8892,-3.9734,-3.9505,-3.8703,-3.7334,-3.7334,-3.7082,-3.6656,-3.6541,-3.6455,0.0,0.0,-3.6277,-3.6254,-3.614,-3.6094,-3.6094,-3.5308,-3.4979,-3.4648,-3.3866,-3.3027,-3.2227,-3.1998,-3.1441,-3.0898,-3.0898,-3.0898,-3.0898,-3.0898,-3.0957,-3.1113,-3.1426,-3.166,-3.1973,-3.2637,-3.2871,-3.3027,-3.334,-3.3418,-3.3418,-3.3418,-3.3418,-3.3418,-3.3418,-3.3418,-3.3535,-3.3867,-3.4004,-3.4336,-3.5117,-3.5332,-3.5547,-3.5976,-3.6016,-3.6016,-3.6016,-3.6016,-3.6016,-3.6016,-3.6016,-3.6016,-3.6016,-3.6016,-3.6016,-3.6016,-3.6016,-3.6016,-3.6016,-3.6268,-3.6384,-3.6384,-3.7079,-3.7665,-3.8126,-3.8068,-3.8409,-1.1389,-1.2085,-1.2909,-1.3449,-1.3573,-1.3573,-1.3836,0.0,0.0,0.0,0.0,0.0,0.0,0.0,0.0,-1.6011,-1.7845,0.0,0.0,0.0,0.0,0.0,0.0,0.0,0.0,0.0,0.0,0.0,0.0,-3.884,-3.9537,-3.8271,-3.7987,-3.9199,-3.8476,-3.8118,-3.8514,-3.8273,-3.7702,-3.6688,-3.6456,-3.6372,-3.6277,-3.6277,-3.6277,0.0,0.0,-3.6277,-3.6277,-3.6277,-3.6277,-3.6168,-3.5245,-3.4692,-3.4134,-3.3233,-3.2342,-3.1556,-3.1556,-3.1344,-3.0898,-3.0898,-3.0898,-3.0898,-3.0898,-3.0898,-3.0937,-3.1172,-3.1367,-3.1621,-3.209,-3.25,-3.2851,-3.3086,-3.3281,-3.3418,-3.3418,-3.3418,-3.3418,-3.3418,-3.3574,-3.3789,-3.4023,-3.4414,-3.4844,-3.5312,-3.5566,-3.5762,-3.5996,-3.6016,-3.6016,-3.6016,-3.6152,-3.6268,-3.6268,-3.6403,-3.6423,-3.6016,-3.6016,-3.6016,-3.6016,-3.6132,-3.6268,-3.6559,-3.6873,-3.7245,-3.738,-3.799,-3.8507,-3.889,-3.878,-3.9061,-1.0965,-1.2474,-1.3909,-1.3558,-1.3416,-1.3409,-1.3525,0.0,0.0,0.0,0.0,0.0,0.0,0.0,0.0,0.0,0.0,0.0,0.0,0.0,0.0,0.0,0.0,0.0,0.0,0.0,0.0,0.0,0.0,-3.7519,-3.8658,-3.7067,-3.6898,-3.8407,-3.8,-3.7441,-3.7036,-3.6602,-3.639,-3.6254,-3.5749,-3.5772,-3.6277,-3.6277,-3.6277,-3.6277,0.0,0.0,-3.6277,-3.6277,-3.6277,-3.6145,-3.5135,-3.4246,-3.3459,-3.2457,-3.1556,-3.0898,-3.0898,-3.0898,-3.0898,-3.0898,-3.0898,-3.0898,-3.0898,-3.0898,-3.0898,-3.0898,-3.1191,-3.1543,-3.168,-3.2246,-3.2812,-3.2871,-3.3164,-3.3418,-3.3418,-3.3418,-3.3437,-3.3516,-3.3828,-3.4121,-3.4258,-3.4902,-3.5449,-3.5566,-3.5898,-3.6113,-3.6113,-3.6113,-3.6094,-3.6016,-3.6403,-3.6519,-3.6654,-3.6944,-3.6809,-3.6152,-3.6152,-3.6171,-3.625,-3.6561,-3.7009,-3.728,-3.7799,-3.8138,-3.8412,-3.88,-3.9302,-3.964,-3.9578,-3.9599,-1.0663,-1.3213,-1.5394,-1.3264,-1.3097,-1.3362,-1.3266,0.0,0.0,0.0,0.0,0.0,0.0,0.0,0.0,0.0,0.0,0.0,0.0,0.0,0.0,0.0,0.0,0.0,0.0,0.0,0.0,0.0,0.0,-3.5825,-3.6264,-3.5821,-3.5995,-3.7021,-3.6735,-3.6495,-3.6386,-3.639,-3.639,-3.6254,-3.5749,-3.5772,-3.6277,-3.6277,-3.6277,-3.6277,0.0,-3.6277,-3.6277,-3.6277,-3.6277,-3.6145,-3.4469,-3.3685,-3.3367,-3.1672,-3.0995,-3.0898,-3.0898,-3.0898,-3.0898,-3.0898,-3.0898,-3.0898,-3.0898,-3.0898,-3.0898,-3.0898,-3.1191,-3.168,-3.2402,-3.2695,-3.2891,-3.3242,-3.3379,-3.3418,-3.3418,-3.3418,-3.3535,-3.3906,-3.4023,-3.4316,-3.5059,-3.5293,-3.5644,-3.6367,-3.6523,-3.6562,-3.6562,-3.6562,-3.6563,-3.6443,-3.6519,-3.6654,-3.6944,-3.7079,-3.7079,-3.6944,-3.6944,-3.7124,-3.7505,-3.8004,-3.8205,-3.8205,-3.8563,-3.8881,-3.8881,-3.9219,-3.9605,-4.0116,-3.9723,-4.0348,-1.0351,-1.2066,-1.3871,-1.3978,-1.5609,-1.7179,-1.7232,-1.7073,0.0,0.0,0.0,0.0,0.0,0.0,0.0,0.0,0.0,0.0,0.0,0.0,0.0,0.0,0.0,0.0,0.0,0.0,0.0,0.0,0.0,0.0,-3.5312,-3.4776,-3.4728,-3.5648,-3.5374,-3.5237,-3.5237,-3.5155,-3.5538,-3.6254,-3.5497,-3.5382,-3.5864,-3.5588,-3.5611,-3.5864,0.0,-3.6025,-3.6277,-3.6277,-3.6277,-3.6145,-3.4246,-3.3572,-3.3367,-3.1576,-3.0898,-3.0898,-3.0898,-3.0898,-3.0898,-3.0898,-3.0898,-3.0898,-3.0898,-3.0898,-3.0898,-3.0898,-3.1035,-3.1328,-3.1953,-3.2285,-3.2559,-3.2988,-3.3262,-3.3418,-3.3418,-3.3613,-3.3828,-3.4023,-3.4453,-3.4922,-3.5332,-3.5586,-3.5937,-3.6582,-3.6602,-3.6661,-3.6641,-3.6877,-3.6777,-3.6559,-3.6924,-3.7213,-3.7348,-3.7636,-3.7604,-3.7441,-3.7441,-3.7779,-3.8381,-3.8584,-3.8844,-3.8983,-3.9507,-3.9754,-3.998,-4.0368,-4.0882,-4.1317,-4.111,-4.1788,-1.0137,-1.1202,-1.2858,-1.4701,-1.6945,-1.9072,-2.0375,-2.0108,0.0,0.0,0.0,0.0,0.0,0.0,0.0,0.0,0.0,0.0,0.0,0.0,0.0,0.0,0.0,0.0,0.0,0.0,0.0,0.0,0.0,0.0,-3.4516,-3.3896,-3.3759,-3.4482,-3.4441,-3.4448,-3.4448,-3.4268,-3.4785,-3.591,-3.5152,-3.4992,-3.5336,-3.5083,-3.5106,-3.5359,-3.5359,-3.5634,-3.6094,-3.6094,-3.6054,-3.5817,-3.4246,-3.3367,-3.2799,-3.146,-3.0898,-3.0898,-3.0995,-3.0995,-3.0898,-3.0995,-3.0995,-3.0898,-3.0898,-3.0898,-3.0898,-3.0898,-3.0957,-3.1133,-3.1562,-3.1992,-3.2422,-3.2832,-3.3184,-3.3418,-3.3418,-3.3769,-3.4101,-3.4199,-3.4863,-3.543,-3.5527,-3.5801,-3.6172,-3.674,-3.6858,-3.6779,-3.6897,-3.7268,-3.73,-3.6809,-3.7213,-3.7657,-3.7913,-3.8285,-3.8418,-3.832,-3.834,-3.8682,-3.9409,-3.9429,-3.9672,-4.0179,-4.0406,-4.0758,-4.1193,-4.1545,-4.1917,-4.2249,-4.2249,-4.2837,-1.0002,-1.213,-1.4376,-1.4971,-1.437,0.0,-1.9924,-1.9287,0.0,-2.0703,0.0,0.0,0.0,0.0,0.0,0.0,0.0,0.0,0.0,0.0,0.0,0.0,0.0,0.0,0.0,0.0,0.0,0.0,0.0,0.0,-3.3287,-3.3413,-3.3604,-3.3989,-3.4261,-3.4553,-3.4808,-3.4762,-3.4808,-3.49,-3.4831,-3.4831,-3.4854,-3.529,-3.5244,-3.4854,-3.4854,-3.5129,-3.5566,-3.5566,-3.5301,-3.4914,-3.3909,-3.2571,-3.1112,-3.1015,-3.0898,-3.0879,-3.1228,-3.1112,-3.0879,-3.1208,-3.1112,-3.0898,-3.0898,-3.0898,-3.0898,-3.0898,-3.1172,-3.1562,-3.2012,-3.2441,-3.2851,-3.3281,-3.3398,-3.3418,-3.3418,-3.3769,-3.418,-3.457,-3.5059,-3.5527,-3.5898,-3.5996,-3.6308,-3.7016,-3.755,-3.7768,-3.7646,-3.8064,-3.8122,-3.7563,-3.7616,-3.7934,-3.8635,-3.9185,-3.964,-3.9956,-3.9997,-4.0183,-4.0758,-4.0779,-4.1193,-4.2042,-4.1669,-4.169,-4.2166,-4.2186,-4.2228,-4.2249,-4.2249,-4.2837,-1.0079,-1.2465,-1.4909,-1.5108,-1.5135,0.0,0.0,-2.2926,-2.236,-2.2903,-2.4078,0.0,0.0,0.0,0.0,0.0,0.0,0.0,0.0,0.0,0.0,0.0,0.0,0.0,0.0,0.0,0.0,0.0,0.0,0.0,-3.3049,-3.2796,-3.2723,-3.316,-3.3389,-3.3538,-3.3663,-3.3765,-3.3866,-3.3866,-3.4165,-3.4303,-3.4303,-3.4188,-3.4188,-3.4303,-3.4303,-3.4762,-3.5497,-3.5198,-3.4803,-3.4362,-3.2923,-3.1775,-3.0859,-3.0797,-3.0699,-3.0813,-3.1043,-3.1157,-3.1082,-3.1245,-3.1208,-3.1112,-3.0995,-3.0898,-3.0898,-3.0898,-3.1387,-3.1953,-3.2129,-3.248,-3.291,-3.332,-3.3418,-3.3496,-3.3769,-3.416,-3.459,-3.5039,-3.5603,-3.6071,-3.6228,-3.6539,-3.6833,-3.7408,-3.7662,-3.7758,-3.7702,-3.8051,-3.8241,-3.8044,-3.8425,-3.8945,-3.9268,-3.9702,-4.0158,-4.0613,-4.0634,-4.0841,-4.1276,-4.1586,-4.1897,-4.2249,-4.2083,-4.2228,-4.2663,-4.2663,-4.2807,-4.3097,-4.3097,-4.4124,-1.1389,-1.2996,-1.4909,-1.6115,0.0,0.0,-2.3838,-2.4647,-2.4482,-2.5776,-2.6528,0.0,0.0,0.0,0.0,0.0,0.0,0.0,0.0,0.0,0.0,0.0,0.0,0.0,0.0,0.0,0.0,0.0,0.0,0.0,0.0,-3.1746,-3.1627,-3.2082,-3.2331,-3.2542,-3.2542,-3.3001,-3.3292,-3.3192,-3.3614,-3.3775,-3.3775,-3.3591,-3.3614,-3.3775,-3.3775,-3.4257,-3.5014,-3.4357,-3.3843,-3.3332,-3.1778,-3.0963,-3.076,-3.0675,-3.0571,-3.0585,-3.095,-3.1124,-3.1071,-3.1301,-3.1325,-3.1208,-3.0995,-3.0898,-3.0918,-3.1055,-3.1601,-3.2207,-3.2344,-3.2676,-3.3105,-3.3516,-3.3633,-3.375,-3.418,-3.4609,-3.5019,-3.5332,-3.5973,-3.6519,-3.6519,-3.6789,-3.7179,-3.7617,-3.7807,-3.7881,-3.7909,-3.8335,-3.8594,-3.861,-3.9337,-3.9765,-3.9765,-4.0303,-4.0779,-4.1069,-4.1358,-4.1669,-4.1979,-4.2166,-4.2393,-4.2683,-4.2538,-4.2683,-4.3139,-4.3139,-4.3304,-4.3615,-4.4071,-4.5084,-1.4092,-1.3846,-1.4286,0.0,0.0,0.0,-2.3626,-2.3575,-2.3549,-2.9334,0.0,0.0,0.0,0.0,0.0,0.0,0.0,0.0,0.0,0.0,0.0,0.0,0.0,0.0,0.0,0.0,0.0,0.0,0.0,0.0,0.0,-3.0209,-3.0307,-3.0599,-3.1359,-3.1703,-3.1703,-3.2719,-3.317,-3.2869,-3.317,-3.3269,-3.3292,-3.3775,-3.3729,-3.3292,-3.3292,-3.3568,-3.3902,-3.316,-3.2341,-3.1442,-3.0537,-3.0309,-3.0537,-3.0537,-3.0485,-3.05,-3.0963,-3.1103,-3.1071,-3.1301,-3.1325,-3.1208,-3.0995,-3.0898,-3.0976,-3.1406,-3.1836,-3.2266,-3.2695,-3.3105,-3.3535,-3.3965,-3.4082,-3.418,-3.4609,-3.5078,-3.5391,-3.541,-3.5973,-3.6519,-3.6519,-3.6809,-3.7213,-3.7616,-3.8004,-3.8282,-3.8253,-3.8978,-3.9537,-3.9537,-3.9972,-4.0241,-4.0241,-4.1069,-4.1565,-4.1586,-4.2414,-4.2911,-4.2911,-4.2497,-4.2704,-4.3594,-4.3159,-4.3159,-4.3615,-4.3615,-4.3615,-4.3615,-4.4805,-4.5405,-1.1491,-1.4136,0.0,0.0,0.0,0.0,0.0,-2.3509,0.0,0.0,0.0,0.0,0.0,0.0,0.0,0.0,0.0,0.0,0.0,0.0,0.0,0.0,0.0,0.0,0.0,0.0,0.0,0.0,0.0,0.0,0.0,-3.0405,-3.0502,-3.0599,-3.1024,-3.1188,-3.1188,-3.154,-3.1608,-3.1608,-3.1968,-3.2528,-3.3292,-3.343,-3.343,-3.3292,-3.3292,-3.3568,-3.3902,-3.2515,-3.1742,-3.1395,-3.0187,-2.999,-3.0102,-2.9746,-2.9473,-2.938,-2.9366,-2.9634,-2.9996,-3.0025,-3.0606,-3.1208,-3.0392,-3.0528,-3.0976,-3.1406,-3.1836,-3.2266,-3.2695,-3.3105,-3.3535,-3.3965,-3.4082,-3.4277,-3.5019,-3.554,-3.585,-3.6147,-3.6709,-3.7213,-3.7213,-3.7636,-3.7904,-3.8037,-3.8161,-3.8305,-3.8626,-3.9454,-4.0013,-4.0013,-4.0717,-4.1172,-4.1172,-4.171,-4.2186,-4.2497,-4.2766,-4.2911,-4.2911,-4.3097,-4.3346,-4.3594,-4.347,-4.347,-4.3615,-4.3615,-4.3615,-4.3615,-4.4805,-4.5832,-1.4079,0.0,0.0,0.0,0.0,0.0,0.0,0.0,0.0,0.0,0.0,0.0,0.0,0.0,0.0,0.0,0.0,0.0,0.0,0.0,0.0,0.0,0.0,0.0,0.0,0.0,0.0,0.0,0.0,0.0,0.0,-2.9811,-2.9906,-2.9906,-3.0297,-3.0481,-3.0385,-3.0778,-3.0964,-3.089,-3.1381,-3.2081,-3.2673,-3.3001,-3.3192,-3.3292,-3.3292,-3.3229,-3.3073,-3.1815,-3.119,-3.1013,-2.9675,-2.9443,-2.9824,-2.9126,-2.8745,-2.8564,-2.8578,-2.8899,-2.9257,-2.9287,-2.9785,-3.0372,-2.9804,-3.0039,-3.0644,-3.1243,-3.1832,-3.2305,-3.2891,-3.3242,-3.3535,-3.3965,-3.4082,-3.4446,-3.5309,-3.5751,-3.6003,-3.6574,-3.7213,-3.7616,-3.7616,-3.7904,-3.8191,-3.8191,-3.8336,-3.8688,-3.9309,-3.9889,-4.0303,-4.0468,-4.1131,-4.1565,-4.1565,-4.2145,-4.2642,-4.2911,-4.3097,-4.3201,-4.3201,-4.347,-4.3615,-4.3615,-4.3615,-4.3615,-4.3615,-4.3615,-4.3919,-4.4352,-4.5533,-4.6699,-1.9099,0.0,0.0,0.0,0.0,0.0,0.0,0.0,0.0,0.0,0.0,0.0,0.0,0.0,0.0,0.0,0.0,0.0,0.0,0.0,0.0,0.0,0.0,0.0,0.0,0.0,0.0,0.0,0.0,0.0,0.0,-2.8746,-2.8746,-2.8746,-2.9465,-2.9686,-2.9423,-3.0319,-3.0637,-3.0466,-3.1149,-3.1493,-3.1659,-3.2519,-3.2992,-3.3192,-3.3192,-3.2745,-3.1913,-3.1094,-3.0662,-3.0469,-2.9064,-2.8994,-2.947,-2.8797,-2.8313,-2.7976,-2.8422,-2.844,-2.8501,-2.8718,-2.9094,-2.9313,-2.8975,-2.9331,-2.9974,-3.0925,-3.1661,-3.2363,-3.3203,-3.3457,-3.3574,-3.3926,-3.4043,-3.4446,-3.5686,-3.6017,-3.629,-3.7038,-3.7522,-3.7657,-3.7738,-3.7986,-3.8253,-3.8295,-3.8688,-3.9268,-4.0116,-4.0261,-4.0448,-4.0882,-4.1358,-4.1648,-4.169,-4.2476,-4.2973,-4.2973,-4.3387,-4.3615,-4.3615,-4.3615,-4.3615,-4.3615,-4.3615,-4.3635,-4.3677,-4.3788,-4.4374,-4.547,-4.6721,-4.7872,0.0,0.0,0.0,0.0,0.0,0.0,0.0,0.0,0.0,0.0,0.0,0.0,0.0,0.0,0.0,0.0,0.0,0.0,0.0,0.0,0.0,0.0,0.0,0.0,0.0,0.0,0.0,0.0,0.0,0.0,-2.8861,-2.8746,-2.8746,-2.8746,-2.8948,-2.8992,-2.8921,-2.9195,-2.9333,-2.9449,-2.984,-3.0378,-3.1166,-3.2139,-3.2645,-3.2645,-3.2645,-3.2342,-3.1607,-3.0328,-2.9713,-2.9481,-2.8408,-2.8143,-2.8369,-2.7875,-2.7579,-2.735,-2.7023,-2.7246,-2.7598,-2.7502,-2.8259,-2.8975,-2.8379,-2.8618,-2.9498,-3.0804,-3.1294,-3.1731,-3.3078,-3.3672,-3.3867,-3.3613,-3.4083,-3.4685,-3.5686,-3.6282,-3.6922,-3.7868,-3.8016,-3.8264,-3.8986,-3.8801,-3.8833,-3.9185,-3.964,-4.0013,-4.0199,-4.053,-4.0903,-4.1379,-4.1835,-4.2249,-4.26,-4.3139,-4.347,-4.347,-4.3553,-4.3615,-4.3615,-4.3615,-4.3615,-4.3615,-4.3615,-4.378,-4.4153,-4.4694,-4.5298,-4.5966,-4.7784,-4.8621,0.0,0.0,0.0,0.0,0.0,0.0,0.0,0.0,0.0,0.0,0.0,0.0,0.0,0.0,0.0,0.0,0.0,0.0,0.0,0.0,0.0,0.0,0.0,0.0,0.0,0.0,0.0,0.0,0.0,-2.8746,-2.8746,-2.8746,-2.8746,-2.8746,-2.8746,-2.8746,-2.8746,-2.8746,-2.8839,-2.8954,-2.9059,-2.9451,-3.024,-3.1784,-3.2409,-3.2307,-3.1803,-3.1455,-3.0852,-2.9286,-2.881,-2.8978,-2.7768,-2.7658,-2.8002,-2.7393,-2.7099,-2.6836,-2.6747,-2.6883,-2.7016,-2.7056,-2.7556,-2.8037,-2.7677,-2.802,-2.8781,-2.9947,-3.0661,-3.1484,-3.2574,-3.3467,-3.3946,-3.3729,-3.429,-3.5162,-3.5731,-3.6406,-3.7228,-3.8397,-3.8532,-3.873,-3.9413,-3.933,-3.933,-3.9806,-4.0075,-4.0303,-4.051,-4.0737,-4.1048,-4.1524,-4.1979,-4.2435,-4.289,-4.3346,-4.3615,-4.3615,-4.3615,-4.3615,-4.3615,-4.4201,-4.4306,-4.3946,-4.4768,-4.5307,-4.5539,-4.6507,-4.7392,-4.8239,-4.9158,-4.9806,0.0,0.0,0.0,0.0,0.0,0.0,0.0,0.0,0.0,0.0,0.0,0.0,0.0,0.0,0.0,0.0,0.0,0.0,0.0,0.0,0.0,0.0,0.0,0.0,0.0,0.0,0.0,0.0,0.0,-2.8746,-2.8746,-2.8746,-2.8746,-2.8746,-2.8746,-2.8746,-2.8746,-2.8746,-2.8768,-2.8768,-2.8657,-2.881,-2.9143,-3.1048,-3.1862,-3.1639,-3.0794,-3.0321,-2.9884,-2.8384,-2.8077,-2.8502,-2.7176,-2.7094,-2.7779,-2.7315,-2.6867,-2.6628,-2.6953,-2.6867,-2.6645,-2.697,-2.7073,-2.7073,-2.7073,-2.7435,-2.8059,-2.8977,-3.0043,-3.1095,-3.2194,-3.3096,-3.3895,-3.3942,-3.4784,-3.5591,-3.5771,-3.6506,-3.7381,-3.8635,-3.9102,-3.9288,-3.9599,-3.9723,-3.9889,-4.0282,-4.0344,-4.0468,-4.082,-4.0882,-4.1089,-4.1628,-4.2042,-4.2476,-4.2994,-4.3387,-4.3615,-4.3615,-4.3767,-4.3919,-4.3919,-4.517,-4.5556,-4.4894,-4.633,-4.7225,-4.7399,-4.8513,-4.957,-5.056,-5.0787,-5.1119,0.0,0.0,0.0,0.0,0.0,0.0,0.0,0.0,0.0,0.0,0.0,0.0,0.0,0.0,0.0,0.0,0.0,0.0,0.0,0.0,0.0,0.0,0.0,0.0,0.0,0.0,0.0,0.0,-2.8746,-2.8746,-2.8746,-2.8746,-2.8746,-2.8746,-2.8746,-2.8746,-2.8746,-2.8746,-2.8675,-2.8488,-2.837,-2.8279,-2.825,-2.8885,-2.9593,-3.0286,-2.9703,-2.9105,-2.8483,-2.7795,-2.7326,-2.7061,-2.6273,-2.6523,-2.7194,-2.7073,-2.7039,-2.7004,-2.7056,-2.7039,-2.7004,-2.7056,-2.7073,-2.7073,-2.7073,-2.7194,-2.747,-2.8818,-2.9279,-2.9976,-3.2194,-3.32,-3.3759,-3.4273,-3.5517,-3.6607,-3.6371,-3.6897,-3.7881,-3.9185,-4.0075,-4.051,-4.0199,-4.0448,-4.0717,-4.0779,-4.08,-4.082,-4.0862,-4.0882,-4.1214,-4.2083,-4.2228,-4.26,-4.3449,-4.3573,-4.3615,-4.3615,-4.4504,-4.5106,-4.5106,-4.6673,-4.7492,-4.7259,-4.7626,-4.8244,-4.9116,-4.9903,-5.0503,-5.1094,-5.1716,-5.2089,0.0,0.0,0.0,0.0,0.0,0.0,0.0,0.0,0.0,0.0,0.0,0.0,0.0,0.0,0.0,0.0,0.0,0.0,0.0,0.0,0.0,0.0,0.0,0.0,0.0,0.0,0.0,0.0,-2.8746,-2.8746,-2.8746,-2.8746,-2.8746,-2.8746,-2.8466,-2.8466,-2.8746,-2.8186,-2.7715,-2.7357,-2.7352,-2.7211,-2.7061,-2.7198,-2.8017,-2.9237,-2.8573,-2.7961,-2.7415,-2.663,-2.626,-2.6273,-2.6041,-2.6405,-2.7073,-2.7073,-2.7073,-2.7073,-2.7073,-2.7073,-2.7073,-2.7073,-2.7073,-2.7073,-2.7073,-2.721,-2.7607,-2.839,-2.9206,-3.0122,-3.1487,-3.2791,-3.3779,-3.4087,-3.5503,-3.6773,-3.6588,-3.7233,-3.8212,-3.933,-4.0261,-4.082,-4.0634,-4.0737,-4.0882,-4.0882,-4.0882,-4.0965,-4.1234,-4.1255,-4.1607,-4.2538,-4.2642,-4.289,-4.3553,-4.4201,-4.4654,-4.4654,-4.5683,-4.6404,-4.6404,-4.7637,-4.8621,-4.8919,-4.9193,-4.956,-5.0018,-5.1006,-5.1787,-5.2285,-5.2664,-5.2572,0.0,0.0,0.0,0.0,0.0,0.0,0.0,0.0,0.0,0.0,0.0,0.0,0.0,0.0,0.0,0.0,0.0,0.0,0.0,0.0,0.0,0.0,0.0,0.0,0.0,0.0,0.0,0.0,-2.8746,-2.8746,-2.8746,-2.8746,-2.8746,-2.856,-2.8186,-2.8092,-2.8373,-2.7526,-2.686,-2.6496,-2.64,-2.6289,-2.631,-2.6152,-2.6851,-2.8166,-2.7641,-2.7035,-2.6615,-2.5908,-2.5732,-2.5788,-2.5788,-2.6199,-2.6782,-2.6782,-2.685,-2.6936,-2.6936,-2.6987,-2.7073,-2.7073,-2.7073,-2.7073,-2.7073,-2.733,-2.7689,-2.8083,-2.9095,-3.0229,-3.09,-3.2222,-3.3574,-3.3828,-3.514,-3.6603,-3.6985,-3.7881,-3.873,-3.9413,-4.0261,-4.0882,-4.0882,-4.0882,-4.0882,-4.0882,-4.0986,-4.1172,-4.1524,-4.1669,-4.2042,-4.2828,-4.2911,-4.3118,-4.3573,-4.4654,-4.5405,-4.5405,-4.6699,-4.7558,-4.7558,-4.8766,-4.9529,-4.9928,-5.0303,-5.0631,-5.0912,-5.182,-5.2475,-5.286,-5.286,-5.2668,0.0,0.0,0.0,0.0,0.0,0.0,0.0,0.0,0.0,0.0,0.0,0.0,0.0,0.0,0.0,0.0,0.0,0.0,0.0,0.0,0.0,0.0,0.0,0.0,0.0,0.0,0.0,0.0,-2.8746,-2.8746,-2.8746,-2.8746,-2.856,-2.8092,-2.7998,-2.7809,-2.7336,-2.6784,-2.6496,-2.6496,-2.6014,-2.5839,-2.613,-2.611,-2.642,-2.6962,-2.7097,-2.6836,-2.6337,-2.625,-2.5882,-2.5395,-2.5395,-2.5652,-2.5994,-2.5994,-2.6217,-2.6525,-2.6525,-2.6765,-2.7073,-2.7073,-2.7073,-2.7073,-2.7073,-2.733,-2.7689,-2.8083,-2.8714,-2.9608,-3.1029,-3.1931,-3.2879,-3.3766,-3.4668,-3.5944,-3.7739,-3.8833,-3.9475,-3.9537,-4.0261,-4.0882,-4.0882,-4.0882,-4.0882,-4.0882,-4.1255,-4.1545,-4.1565,-4.1959,-4.2393,-4.287,-4.2911,-4.3118,-4.3573,-4.4654,-4.5405,-4.5405,-4.7603,-4.8766,-4.8766,-4.9961,-5.0578,-5.0602,-5.0626,-5.113,-5.2137,-5.2283,-5.2283,-5.2331,-5.2331,-5.2307,0.0,0.0,0.0,0.0,0.0,0.0,0.0,0.0,0.0,0.0,0.0,0.0,0.0,0.0,0.0,0.0,0.0,0.0,0.0,0.0,0.0,0.0,0.0,0.0,0.0,0.0,0.0,0.0,0.0,-2.8653,-2.8279,-2.8279,-2.8092,-2.7526,-2.7146,-2.6764,-2.6207,-2.64,-2.6304,-2.6014,-2.6014,-2.6014,-2.6091,-2.6496,-2.6709,-2.69,-2.714,-2.6666,-2.5797,-2.606,-2.5702,-2.5035,-2.5275,-2.56,-2.5943,-2.5943,-2.6165,-2.6491,-2.6491,-2.6747,-2.7073,-2.7073,-2.7073,-2.7073,-2.7073,-2.733,-2.7689,-2.8083,-2.8841,-2.9736,-3.0236,-3.1541,-3.316,-3.4483,-3.5098,-3.5717,-3.7112,-3.8623,-3.9537,-3.9537,-4.0261,-4.0882,-4.0882,-4.0882,-4.0882,-4.0882,-4.1276,-4.1669,-4.1979,-4.2393,-4.287,-4.3325,-4.3366,-4.3731,-4.4633,-4.581,-4.6847,-4.7603,-4.9221,-5.0104,-5.0104,-5.0412,-5.0696,-5.0696,-5.0696,-5.0888,-5.1273,-5.1273,-5.1441,-5.1778,-5.1778,-5.1778,-1.1217,0.0,0.0,0.0,0.0,0.0,0.0,0.0,0.0,0.0,0.0,0.0,0.0,0.0,0.0,0.0,0.0,0.0,0.0,0.0,0.0,0.0,0.0,0.0,0.0,0.0,0.0,0.0,0.0,0.0,-2.7764,-2.7522,-2.7128,-2.673,-2.6255,-2.5972,-2.5742,-2.6014,-2.6014,-2.5742,-2.6014,-2.6187,-2.6304,-2.6592,-2.69,-2.7092,-2.7167,-2.6543,-2.5566,-2.5729,-2.539,-2.4658,-2.4898,-2.5223,-2.5566,-2.5566,-2.5874,-2.6302,-2.6302,-2.6645,-2.7073,-2.7073,-2.7073,-2.7073,-2.7073,-2.733,-2.7689,-2.8083,-2.8968,-2.9846,-2.9847,-3.124,-3.3049,-3.4412,-3.5008,-3.549,-3.6459,-3.7935,-3.9075,-3.9378,-4.0137,-4.0696,-4.0841,-4.0882,-4.0882,-4.0882,-4.1276,-4.1731,-4.2207,-4.2642,-4.3097,-4.3553,-4.3615,-4.405,-4.5256,-4.6404,-4.7558,-4.8766,-5.0104,-5.0696,-5.0696,-5.0696,-5.0696,-5.0696,-5.0696,-5.0696,-5.0696,-5.0696,-5.0888,-5.1225,-5.1225,-5.1225,0.0,0.0,0.0,0.0,0.0,0.0,0.0,0.0,0.0,0.0,0.0,0.0,0.0,0.0,0.0,0.0,0.0,0.0,0.0,0.0,0.0,0.0,0.0,0.0,0.0,0.0,0.0,0.0,-2.6861,-2.6785,-2.7274,-2.6417,-2.592,-2.5792,-2.5342,-2.5254,-2.5723,-2.5723,-2.5723,-2.5742,-2.6014,-2.6304,-2.6496,-2.6496,-2.6784,-2.7262,-2.6996,-2.6348,-2.5528,-2.5528,-2.499,-2.4213,-2.423,-2.447,-2.4812,-2.4812,-2.5292,-2.5943,-2.5943,-2.6439,-2.7073,-2.7073,-2.7073,-2.7073,-2.7073,-2.7313,-2.7672,-2.8083,-2.8951,-2.9846,-2.9865,-3.0946,-3.2403,-3.3477,-3.437,-3.504,-3.584,-3.6876,-3.8138,-3.9296,-3.9889,-4.0344,-4.08,-4.0882,-4.0882,-4.0882,-4.1276,-4.1731,-4.2207,-4.2642,-4.3097,-4.3553,-4.3615,-4.4201,-4.5405,-4.6551,-4.7704,-4.891,-5.0104,-5.0696,-5.0696,-5.0696,-5.0696,-5.0696,-5.0696,-5.072,-5.072,-5.072,-5.0696,-5.0696,-5.0696,-5.0696,-0.896,0.0,0.0,0.0,0.0,0.0,0.0,0.0,0.0,0.0,0.0,0.0,0.0,0.0,0.0,0.0,0.0,0.0,0.0,0.0,0.0,0.0,0.0,0.0,0.0,0.0,0.0,0.0,-2.6861,-2.6547,-2.6334,-2.5412,-2.4842,-2.4775,-2.4683,-2.4805,-2.5254,-2.5254,-2.541,-2.5742,-2.6207,-2.64,-2.6496,-2.688,-2.7167,-2.7262,-2.7262,-2.6344,-2.5093,-2.5415,-2.4827,-2.3853,-2.4127,-2.447,-2.4812,-2.4812,-2.5292,-2.5943,-2.5943,-2.6439,-2.7073,-2.7073,-2.7073,-2.7073,-2.7073,-2.7141,-2.7469,-2.8248,-2.901,-2.976,-3.1402,-3.1774,-3.2151,-3.3495,-3.3955,-3.437,-3.504,-3.5938,-3.7072,-3.9096,-3.9909,-4.0365,-4.08,-4.0882,-4.0882,-4.0882,-4.1276,-4.1731,-4.2207,-4.2642,-4.3398,-4.4762,-4.4955,-4.5683,-4.7726,-4.8163,-4.891,-5.0104,-5.0554,-5.0696,-5.0696,-5.0696,-5.0696,-5.0696,-5.0696,-5.0888,-5.1273,-5.0888,-5.0696,-5.0696,-5.0696,-5.0696,-0.9012,-0.9199,-0.9365,0.0,0.0,0.0,-1.4941,-1.7239,0.0,0.0,0.0,0.0,0.0,0.0,0.0,0.0,0.0,0.0,0.0,0.0,0.0,0.0,0.0,0.0,0.0,-2.6562,-2.6628,-2.6281,-2.5911,-2.5472,-2.4784,-2.4315,-2.416,-2.416,-2.416,-2.4355,-2.4785,-2.498,-2.5195,-2.5469,-2.6127,-2.6496,-2.6496,-2.6976,-2.7167,-2.7262,-2.7167,-2.6476,-2.543,-2.5457,-2.4754,-2.3699,-2.4093,-2.447,-2.4812,-2.4812,-2.5292,-2.5943,-2.5943,-2.6439,-2.7073,-2.7073,-2.7073,-2.7073,-2.7073,-2.7073,-2.7349,-2.8338,-2.9042,-2.9953,-3.1993,-3.207,-3.2015,-3.3495,-3.3817,-3.3955,-3.4784,-3.5173,-3.6169,-3.8543,-3.9466,-4.0137,-4.0758,-4.0882,-4.0882,-4.0882,-4.111,-4.1441,-4.1917,-4.2352,-4.3255,-4.4912,-4.5276,-4.6277,-4.8766,-4.891,-4.9365,-5.0554,-5.0696,-5.0696,-5.0696,-5.0696,-5.0696,-5.0696,-5.0912,-5.1177,-5.1489,-5.096,-5.0696,-5.0696,-5.0696,-5.0696,-0.9155,-0.9287,-0.946,-0.9313,0.0,0.0,-1.57,-1.6637,-1.773,0.0,0.0,0.0,0.0,0.0,0.0,0.0,0.0,0.0,0.0,0.0,0.0,0.0,0.0,0.0,-2.5906,-2.5906,-2.5633,-2.4956,-2.4594,-2.3993,-2.3144,-2.3516,-2.3711,-2.3711,-2.3711,-2.3945,-2.4414,-2.4805,-2.5039,-2.5156,-2.6124,-2.6496,-2.6496,-2.6805,-2.7071,-2.7262,-2.7092,-2.6592,-2.6033,-2.5714,-2.4911,-2.3805,-2.4076,-2.447,-2.4812,-2.4812,-2.5292,-2.5943,-2.5943,-2.6439,-2.7073,-2.7073,-2.7073,-2.7073,-2.7073,-2.7073,-2.7349,-2.8462,-2.9229,-3.0259,-3.212,-3.207,-3.2015,-3.3495,-3.3817,-3.3955,-3.4646,-3.4808,-3.5482,-3.7608,-3.8726,-3.9589,-4.0574,-4.0882,-4.0882,-4.0882,-4.0882,-4.1048,-4.1503,-4.2064,-4.3089,-4.4776,-4.5357,-4.6655,-4.891,-4.9101,-4.9603,-5.0792,-5.084,-5.0888,-5.0888,-5.0888,-5.0888,-5.0888,-5.1345,-5.1513,-5.1393,-5.0936,-5.0696,-5.0696,-5.0696,-5.0696,0.0,0.0,0.0,0.0,0.0,0.0,-1.0926,-1.2134,-1.3312,0.0,0.0,0.0,0.0,0.0,0.0,0.0,0.0,0.0,0.0,0.0,0.0,0.0,0.0,0.0,-2.5906,-2.5906,-2.5633,-2.4956,-2.4186,-2.3493,-2.3144,-2.3223,-2.3262,-2.3262,-2.3262,-2.3633,-2.4414,-2.4492,-2.4902,-2.5605,-2.6167,-2.6496,-2.6496,-2.6976,-2.7262,-2.7262,-2.7262,-2.6784,-2.6053,-2.592,-2.5459,-2.4649,-2.4291,-2.447,-2.4812,-2.4812,-2.5292,-2.5943,-2.5943,-2.6439,-2.7073,-2.7073,-2.7073,-2.7073,-2.7073,-2.7073,-2.7349,-2.8729,-2.963,-3.0669,-3.2253,-3.207,-3.2015,-3.3495,-3.3817,-3.3817,-3.3678,-3.4268,-3.506,-3.5612,-3.7236,-3.8786,-3.9306,-4.0289,-4.0882,-4.0882,-4.0882,-4.1048,-4.1503,-4.2496,-4.3868,-4.5878,-4.6925,-4.8326,-5.0222,-5.0795,-5.1034,-5.1345,-5.173,-5.197,-5.197,-5.197,-5.197,-5.197,-5.2067,-5.1706,-5.0864,-5.0744,-5.0696,-5.0696,-5.0696,-5.0696,0.0,0.0,0.0,-0.8659,0.0,0.0,0.0,-1.1978,-1.2848,-1.3995,0.0,0.0,0.0,0.0,0.0,0.0,0.0,0.0,0.0,0.0,0.0,0.0,0.0,0.0,-2.5884,-2.5906,-2.5549,-2.4765,-2.3754,-2.3144,-2.3144,-2.3144,-2.3144,-2.3144,-2.3144,-2.3457,-2.4102,-2.4316,-2.4746,-2.541,-2.6108,-2.6496,-2.6496,-2.7071,-2.7262,-2.7262,-2.7262,-2.7195,-2.6956,-2.6275,-2.5956,-2.5674,-2.4802,-2.4641,-2.4847,-2.5018,-2.5446,-2.596,-2.6148,-2.6593,-2.7073,-2.7073,-2.7073,-2.7073,-2.7073,-2.7574,-2.8324,-2.8959,-2.9885,-3.0929,-3.2253,-3.2204,-3.2151,-3.3495,-3.3817,-3.3817,-3.3539,-3.3993,-3.4341,-3.4397,-3.5758,-3.7391,-3.8932,-3.955,-4.0146,-4.0882,-4.0882,-4.0965,-4.1193,-4.2407,-4.3959,-4.5976,-4.7271,-4.8803,-5.0506,-5.096,-5.1105,-5.1105,-5.1586,-5.1874,-5.1874,-5.1874,-5.1874,-5.1874,-5.1634,-5.1369,-5.1105,-5.084,-5.0696,-5.0696,-5.0696,-5.0696,0.0,0.0,0.0,0.0,0.0,-0.9486,0.0,0.0,0.0,-1.4508,0.0,0.0,0.0,0.0,0.0,0.0,0.0,0.0,0.0,0.0,0.0,0.0,0.0,0.0,-2.5153,-2.5092,-2.489,-2.4553,-2.3156,-2.2534,-2.3038,-2.3144,-2.3144,-2.3144,-2.3144,-2.3379,-2.3906,-2.4238,-2.4687,-2.5195,-2.6124,-2.6496,-2.6496,-2.7071,-2.7262,-2.7262,-2.7262,-2.751,-2.7847,-2.6676,-2.6484,-2.6586,-2.5318,-2.4812,-2.4864,-2.5241,-2.5617,-2.5994,-2.6354,-2.6747,-2.7073,-2.7073,-2.7073,-2.709,-2.7158,-2.8096,-2.9119,-2.9261,-3.0012,-3.1099,-3.2235,-3.2204,-3.2268,-3.3477,-3.3678,-3.3678,-3.3539,-3.3678,-3.3621,-3.3564,-3.4422,-3.5812,-3.8078,-3.8681,-3.9116,-4.0433,-4.0576,-4.0719,-4.1147,-4.2458,-4.4047,-4.5924,-4.7466,-4.8968,-5.0506,-5.0792,-5.0864,-5.0864,-5.1345,-5.1634,-5.1634,-5.1634,-5.1586,-5.1489,-5.1081,-5.1008,-5.1345,-5.0912,-5.0696,-5.0696,-5.0696,-5.0696,0.0,0.0,0.0,0.0,-0.8103,0.0,0.0,0.0,-0.9112,-0.9707,0.0,0.0,0.0,0.0,0.0,0.0,0.0,0.0,0.0,0.0,0.0,0.0,0.0,0.0,0.0,-2.2262,-2.277,-2.4385,-2.2026,-2.1279,-2.296,-2.3144,-2.3144,-2.3144,-2.3144,-2.3535,-2.4336,-2.4394,-2.4844,-2.5664,-2.6187,-2.6496,-2.6496,-2.7071,-2.7262,-2.7262,-2.7262,-2.751,-2.7868,-2.7382,-2.7001,-2.6586,-2.5318,-2.4812,-2.4864,-2.5241,-2.5617,-2.5994,-2.6354,-2.6747,-2.7073,-2.7073,-2.7073,-2.7141,-2.745,-2.8096,-2.88,-2.9509,-3.003,-3.0627,-3.1763,-3.1801,-3.1862,-3.308,-3.3418,-3.326,-3.2841,-3.3038,-3.3303,-3.2912,-3.318,-3.4023,-3.5682,-3.6922,-3.7951,-3.9116,-3.9261,-3.9982,-4.2116,-4.3419,-4.4909,-4.6981,-4.8282,-4.9451,-5.0624,-5.1129,-5.1393,-5.1393,-5.1898,-5.2187,-5.2187,-5.2187,-5.197,-5.1489,-5.1441,-5.1201,-5.0792,-5.0744,-5.0696,-5.0696,-5.0696,-5.0696,0.0,0.0,0.0,0.0,0.0,0.0,-0.84,0.0,-0.858,0.0,0.0,0.0,0.0,0.0,0.0,0.0,-1.1345,0.0,0.0,0.0,0.0,0.0,0.0,0.0,0.0,0.0,0.0,0.0,-2.2864,-2.2194,-2.3105,-2.3144,-2.3144,-2.3144,-2.3379,-2.3809,-2.4414,-2.4668,-2.5117,-2.5742,-2.6207,-2.6496,-2.6496,-2.7071,-2.7262,-2.7262,-2.7531,-2.7903,-2.826,-2.7883,-2.7474,-2.7031,-2.5918,-2.5377,-2.5189,-2.5566,-2.5943,-2.6319,-2.6696,-2.6936,-2.7073,-2.7073,-2.7073,-2.7141,-2.7747,-2.8394,-2.9048,-2.9869,-3.0446,-3.1102,-3.1799,-3.1917,-3.1997,-3.308,-3.3139,-3.2999,-3.2981,-3.3003,-3.2963,-3.3075,-3.3162,-3.3541,-3.4354,-3.5605,-3.6775,-3.7951,-3.9241,-4.0392,-4.1389,-4.3631,-4.5691,-4.726,-4.8373,-4.9517,-5.06,-5.0912,-5.1032,-5.1032,-5.1537,-5.1826,-5.1826,-5.1826,-5.1562,-5.1056,-5.1032,-5.0912,-5.0696,-5.0696,-5.0696,-5.0696,-5.0696,-5.0696,-0.8808,0.0,0.0,0.0,0.0,0.0,0.0,0.0,0.0,0.0,0.0,0.0,0.0,0.0,-0.9137,-0.9003,0.0,-1.1129,0.0,0.0,0.0,0.0,0.0,0.0,0.0,0.0,0.0,-2.337,-2.2725,-2.2519,-2.3105,-2.3144,-2.3144,-2.3144,-2.3437,-2.3867,-2.4414,-2.482,-2.5271,-2.582,-2.6304,-2.6592,-2.6613,-2.7071,-2.7262,-2.7282,-2.7738,-2.8193,-2.8549,-2.8369,-2.8081,-2.7726,-2.7191,-2.6496,-2.5891,-2.5955,-2.6165,-2.6542,-2.6936,-2.7073,-2.7073,-2.7073,-2.7141,-2.7417,-2.8026,-2.8711,-2.9422,-3.0193,-3.0829,-3.1303,-3.1684,-3.1917,-3.1997,-3.2784,-3.2701,-3.2561,-3.2981,-3.2773,-3.2663,-3.2919,-3.3008,-3.3237,-3.3614,-3.4504,-3.5456,-3.6793,-3.8787,-4.0494,-4.0942,-4.3907,-4.6215,-4.7213,-4.8415,-4.9445,-5.0407,-5.0624,-5.0696,-5.0696,-5.1056,-5.1273,-5.1273,-5.1273,-5.1105,-5.072,-5.0696,-5.0696,-5.0696,-5.0696,-5.0554,-5.0412,-5.0412,-5.0412,0.0,0.0,0.0,-0.7888,0.0,0.0,0.0,0.0,-0.7354,0.0,0.0,0.0,0.0,-0.9106,-0.8913,-0.859,-0.8985,0.0,0.0,0.0,0.0,0.0,0.0,0.0,0.0,0.0,-1.8359,-2.0623,-2.033,-2.0937,-2.3027,-2.3144,-2.3144,-2.3144,-2.3144,-2.3555,-2.4414,-2.471,-2.5258,-2.6091,-2.6613,-2.69,-2.69,-2.7167,-2.7262,-2.7282,-2.7738,-2.8193,-2.8649,-2.9104,-2.9042,-2.8727,-2.9164,-2.8366,-2.7061,-2.6157,-2.6165,-2.6542,-2.6936,-2.7073,-2.7073,-2.7073,-2.7313,-2.7655,-2.8407,-2.8922,-2.9475,-3.0498,-3.0847,-3.0956,-3.1363,-3.1531,-3.159,-3.2071,-3.2105,-3.2105,-3.2105,-3.2123,-3.2104,-3.2073,-3.245,-3.2826,-3.322,-3.3597,-3.4273,-3.5456,-3.7582,-3.9593,-4.1042,-4.4023,-4.6234,-4.7158,-4.8362,-4.9301,-4.9854,-5.0383,-5.0696,-5.0696,-5.072,-5.072,-5.072,-5.072,-5.072,-5.0696,-5.0696,-5.0696,-5.0696,-5.0696,-5.0246,-4.9509,-4.9509,-4.9509,0.0,0.0,-1.3939,-1.012,0.0,0.0,0.0,0.0,0.0,0.0,0.0,0.0,0.0,-0.8791,-0.8775,-0.8925,-0.9102,-0.8941,0.0,0.0,0.0,0.0,0.0,0.0,0.0,0.0,0.0,-2.0361,-2.1154,-2.207,-2.3086,-2.3144,-2.3144,-2.3144,-2.3691,-2.403,-2.4137,-2.5169,-2.5698,-2.58,-2.6592,-2.69,-2.69,-2.7167,-2.7427,-2.7717,-2.8173,-2.8649,-2.9104,-2.9559,-2.9306,-2.8727,-2.9183,-2.8829,-2.8011,-2.7463,-2.7116,-2.6902,-2.7021,-2.7073,-2.7107,-2.7347,-2.7501,-2.7847,-2.9116,-2.9563,-2.9814,-3.0974,-3.1157,-3.1212,-3.1361,-3.147,-3.1602,-3.1986,-3.1878,-3.1772,-3.2069,-3.1948,-3.1821,-3.2056,-3.2578,-3.3102,-3.3352,-3.373,-3.4574,-3.5885,-3.7874,-4.0024,-4.1467,-4.3885,-4.5803,-4.6426,-4.7346,-4.8207,-4.9084,-5.0101,-5.0696,-5.0696,-5.0696,-5.0696,-5.0696,-5.0696,-5.0696,-5.0696,-5.0696,-5.0696,-5.0696,-5.0104,-4.9795,-4.9509,-4.8499,-4.8209,-1.4863,-1.5779,0.0,-1.2208,-1.2578,0.0,-0.9343,0.0,0.0,0.0,0.0,0.0,0.0,0.0,-0.8593,-0.9563,-0.9169,-0.8528,0.0,-0.7546,0.0,0.0,0.0,0.0,0.0,0.0,-1.7605,-2.0083,-2.1017,-2.1967,-2.3086,-2.3144,-2.3144,-2.3144,-2.3828,-2.4166,-2.4025,-2.5307,-2.5932,-2.5897,-2.6688,-2.7092,-2.7092,-2.7332,-2.7655,-2.7966,-2.8587,-2.9021,-2.9352,-2.9808,-2.9761,-2.9413,-2.9964,-2.9727,-2.9221,-2.8589,-2.802,-2.7556,-2.7331,-2.7261,-2.733,-2.7689,-2.8037,-2.8351,-2.9489,-2.9992,-3.0263,-3.0883,-3.1139,-3.1303,-3.0924,-3.1123,-3.1531,-3.1666,-3.1565,-3.1597,-3.1911,-3.1722,-3.1628,-3.201,-3.2763,-3.3489,-3.4027,-3.48,-3.5456,-3.6164,-3.8166,-4.0024,-4.1326,-4.3747,-4.5302,-4.5369,-4.6242,-4.7328,-4.8639,-4.9936,-5.0696,-5.0696,-5.0696,-5.0696,-5.0696,-5.0696,-5.0696,-5.0696,-5.0412,-5.0412,-5.0696,-4.9509,-4.891,-4.8766,-4.7479,-4.6891]}]]